[[{"header":{"parameterUnit":"m.s-1","parameterCategory":1,"la1":30.6,"la2":28.766,"lo1":-90.7593,"lo2":-88.6598,"dy":0.0162,"dx":0.0183,"nx":116,"ny":114,"refTime":"2024-04-11T06:00:00:Z","depth":0,"parameterNumber":2,"parameterNumberName":"U-component_of_WINDS"},"data":[0.0,0.0,0.0,0.0,0.0,0.0,0.0,0.0,0.0,0.0,0.0,0.0,0.0,0.0,0.0,0.0,0.0,0.0,0.0,0.0,0.0,0.0,0.0,0.0,0.0,0.0,0.0,0.0,0.0,0.0,0.0,0.0,0.0,0.0,0.0,0.0,0.0,0.0,0.0,0.0,0.0,0.0,0.0,0.0,0.0,0.0,0.0,0.0,0.0,0.0,0.0,0.0,0.0,0.0,0.0,0.0,0.0,0.0,0.0,0.0,0.0,0.0,0.0,0.0,0.0,0.0,0.0,0.0,0.0,0.0,0.0,0.0,0.0,0.0,0.0,0.0,0.0,0.0,0.0,0.0,0.0,0.0,0.0,0.0,0.0,0.0,0.0,0.0,0.0,0.0,0.0,0.0,0.0,0.0,0.0,0.0,0.0,0.0,0.0,0.0,0.0,0.0,0.0,0.0,0.0,0.0,0.0,0.0,0.0,0.0,0.0,0.0,0.0,0.0,0.0,0.0,0.0,0.0,0.0,0.0,0.0,0.0,0.0,0.0,0.0,0.0,0.0,0.0,0.0,0.0,0.0,0.0,0.0,0.0,0.0,0.0,0.0,0.0,0.0,0.0,0.0,0.0,0.0,0.0,0.0,0.0,0.0,0.0,0.0,0.0,0.0,0.0,0.0,0.0,0.0,0.0,0.0,0.0,0.0,0.0,0.0,0.0,0.0,0.0,0.0,0.0,0.0,0.0,0.0,0.0,0.0,0.0,0.0,0.0,0.0,0.0,0.0,0.0,0.0,0.0,0.0,0.0,0.0,0.0,0.0,0.0,0.0,0.0,0.0,0.0,0.0,0.0,0.0,0.0,0.0,0.0,0.0,0.0,0.0,0.0,0.0,0.0,0.0,0.0,0.0,0.0,0.0,0.0,0.0,0.0,0.0,0.0,0.0,0.0,0.0,0.0,0.0,0.0,0.0,0.0,0.0,0.0,0.0,0.0,0.0,0.0,0.0,0.0,0.0,0.0,0.0,0.0,0.0,0.0,0.0,0.0,0.0,0.0,0.0,0.0,0.0,0.0,0.0,0.0,0.0,0.0,0.0,0.0,0.0,0.0,0.0,0.0,0.0,0.0,0.0,0.0,0.0,0.0,0.0,0.0,0.0,0.0,0.0,0.0,0.0,0.0,0.0,0.0,0.0,0.0,0.0,0.0,0.0,0.0,0.0,0.0,0.0,0.0,0.0,0.0,0.0,0.0,0.0,0.0,0.0,0.0,0.0,0.0,0.0,0.0,0.0,0.0,0.0,0.0,0.0,0.0,0.0,0.0,0.0,0.0,0.0,0.0,0.0,0.0,0.0,0.0,0.0,0.0,0.0,0.0,0.0,0.0,0.0,0.0,0.0,0.0,0.0,0.0,0.0,0.0,0.0,0.0,0.0,0.0,0.0,0.0,0.0,0.0,0.0,0.0,0.0,0.0,0.0,0.0,0.0,0.0,0.0,0.0,0.0,0.0,0.0,0.0,0.0,0.0,0.0,0.0,0.0,0.0,0.0,0.0,0.0,0.0,0.0,0.0,0.0,0.0,0.0,0.0,0.0,0.0,0.0,0.0,0.0,0.0,0.0,0.0,0.0,0.0,0.0,0.0,0.0,0.0,0.0,0.0,0.0,0.0,0.0,0.0,0.0,0.0,0.0,0.0,0.0,0.0,0.0,0.0,0.0,0.0,0.0,0.0,0.0,0.0,0.0,0.0,0.0,0.0,0.0,0.0,0.0,0.0,0.0,0.0,0.0,0.0,0.0,0.0,0.0,0.0,0.0,0.0,0.0,0.0,0.0,0.0,0.0,0.0,0.0,0.0,0.0,0.0,0.0,0.0,0.0,0.0,0.0,0.0,0.0,0.0,0.0,0.0,0.0,0.0,0.0,0.0,0.0,0.0,0.0,0.0,0.0,0.0,0.0,0.0,0.0,0.0,0.0,0.0,0.0,0.0,0.0,0.0,0.0,0.0,0.0,0.0,0.0,0.0,0.0,0.0,0.0,0.0,0.0,0.0,0.0,0.0,0.0,0.0,0.0,0.0,0.0,0.0,0.0,0.0,0.0,0.0,0.0,0.0,0.0,0.0,0.0,0.0,0.0,0.0,0.0,0.0,0.0,0.0,0.0,0.0,0.0,0.0,0.0,0.0,0.0,0.0,0.0,0.0,0.0,0.0,0.0,0.0,0.0,0.0,0.0,0.0,0.0,0.0,0.0,0.0,0.0,0.0,0.0,0.0,0.0,0.0,0.0,0.0,0.0,0.0,0.0,0.0,0.0,0.0,0.0,0.0,0.0,0.0,0.0,0.0,0.0,0.0,0.0,0.0,0.0,0.0,0.0,0.0,0.0,0.0,0.0,0.0,0.0,0.0,0.0,0.0,0.0,0.0,0.0,0.0,0.0,0.0,0.0,0.0,0.0,0.0,0.0,0.0,0.0,0.0,0.0,0.0,0.0,0.0,0.0,0.0,0.0,0.0,0.0,0.0,0.0,0.0,0.0,0.0,0.0,0.0,0.0,0.0,0.0,0.0,0.0,0.0,0.0,0.0,0.0,0.0,0.0,0.0,0.0,0.0,0.0,0.0,0.0,0.0,0.0,0.0,0.0,0.0,0.0,0.0,0.0,0.0,0.0,0.0,0.0,0.0,0.0,0.0,0.0,0.0,0.0,0.0,0.0,0.0,0.0,0.0,0.0,0.0,0.0,0.0,0.0,0.0,0.0,0.0,0.0,0.0,0.0,0.0,0.0,0.0,0.0,0.0,0.0,0.0,0.0,0.0,0.0,0.0,0.0,0.0,0.0,0.0,0.0,0.0,0.0,0.0,0.0,0.0,0.0,0.0,0.0,0.0,0.0,0.0,0.0,0.0,0.0,0.0,0.0,0.0,0.0,0.0,0.0,0.0,0.0,0.0,0.0,0.0,0.0,0.0,0.0,0.0,0.0,0.0,0.0,0.0,0.0,0.0,0.0,0.0,0.0,0.0,0.0,0.0,0.0,0.0,0.0,0.0,0.0,0.0,0.0,0.0,0.0,0.0,0.0,0.0,0.0,0.0,0.0,0.0,0.0,0.0,0.0,0.0,0.0,0.0,0.0,0.0,0.0,0.0,0.0,0.0,0.0,0.0,0.0,0.0,0.0,0.0,0.0,0.0,0.0,0.0,0.0,0.0,0.0,0.0,0.0,0.0,0.0,0.0,0.0,0.0,0.0,0.0,0.0,0.0,0.0,0.0,0.0,0.0,0.0,0.0,0.0,0.0,0.0,0.0,0.0,0.0,0.0,0.0,0.0,0.0,0.0,0.0,0.0,0.0,0.0,0.0,0.0,0.0,0.0,0.0,0.0,0.0,0.0,0.0,0.0,0.0,0.0,0.0,0.0,0.0,0.0,0.0,0.0,0.0,0.0,0.0,0.0,0.0,0.0,0.0,0.0,0.0,0.0,0.0,0.0,0.0,0.0,0.0,0.0,0.0,0.0,0.0,0.0,0.0,0.0,0.0,0.0,0.0,0.0,0.0,0.0,0.0,0.0,0.0,0.0,0.0,0.0,0.0,0.0,0.0,0.0,0.0,0.0,0.0,0.0,0.0,0.0,0.0,0.0,0.0,0.0,0.0,0.0,0.0,0.0,0.0,0.0,0.0,0.0,0.0,0.0,0.0,0.0,0.0,0.0,0.0,0.0,0.0,0.0,0.0,0.0,0.0,0.0,0.0,0.0,0.0,0.0,0.0,0.0,0.0,0.0,0.0,0.0,0.0,0.0,0.0,0.0,0.0,0.0,0.0,0.0,0.0,0.0,0.0,0.0,0.0,0.0,0.0,0.0,0.0,0.0,0.0,0.0,0.0,0.0,0.0,0.0,0.0,0.0,0.0,0.0,0.0,0.0,0.0,0.0,0.0,0.0,0.0,0.0,0.0,0.0,0.0,0.0,0.0,0.0,0.0,0.0,0.0,0.0,0.0,0.0,0.0,0.0,0.0,0.0,0.0,0.0,0.0,0.0,0.0,0.0,0.0,0.0,0.0,0.0,0.0,0.0,0.0,0.0,0.0,0.0,0.0,0.0,0.0,0.0,0.0,0.0,0.0,0.0,0.0,0.0,0.0,0.0,0.0,0.0,0.0,0.0,0.0,0.0,0.0,0.0,0.0,0.0,0.0,0.0,0.0,0.0,0.0,0.0,0.0,0.0,0.0,0.0,0.0,0.0,0.0,0.0,0.0,0.0,0.0,0.0,0.0,0.0,0.0,0.0,0.0,0.0,0.0,0.0,0.0,0.0,0.0,0.0,0.0,0.0,0.0,0.0,0.0,0.0,0.0,0.0,0.0,0.0,0.0,0.0,0.0,0.0,0.0,0.0,0.0,0.0,0.0,0.0,0.0,0.0,0.0,0.0,0.0,0.0,0.0,0.0,0.0,0.0,0.0,0.0,0.0,0.0,0.0,0.0,0.0,0.0,0.0,0.0,0.0,0.0,0.0,0.0,0.0,0.0,0.0,0.0,0.0,0.0,0.0,0.0,0.0,0.0,0.0,0.0,0.0,0.0,0.0,0.0,0.0,0.0,0.0,0.0,0.0,0.0,0.0,0.0,0.0,0.0,0.0,0.0,0.0,0.0,0.0,0.0,0.0,0.0,0.0,0.0,0.0,0.0,0.0,0.0,0.0,0.0,0.0,0.0,0.0,0.0,0.0,0.0,0.0,0.0,0.0,0.0,0.0,0.0,0.0,0.0,0.0,0.0,0.0,0.0,0.0,0.0,0.0,0.0,0.0,0.0,0.0,0.0,0.0,0.0,0.0,0.0,0.0,0.0,0.0,0.0,0.0,0.0,0.0,0.0,0.0,0.0,0.0,0.0,0.0,0.0,0.0,0.0,0.0,0.0,0.0,0.0,0.0,0.0,0.0,0.0,0.0,0.0,0.0,0.0,0.0,0.0,0.0,0.0,0.0,0.0,0.0,0.0,0.0,0.0,0.0,0.0,0.0,0.0,0.0,0.0,0.0,0.0,0.0,0.0,0.0,0.0,0.0,0.0,0.0,0.0,0.0,0.0,0.0,0.0,0.0,0.0,0.0,0.0,0.0,0.0,0.0,0.0,0.0,0.0,0.0,0.0,0.0,0.0,0.0,0.0,0.0,0.0,0.0,0.0,0.0,0.0,0.0,0.0,0.0,0.0,0.0,0.0,0.0,0.0,0.0,0.0,0.0,0.0,0.0,0.0,0.0,0.0,0.0,0.0,0.0,0.0,0.0,0.0,0.0,0.0,0.0,0.0,0.0,0.0,0.0,0.0,0.0,0.0,0.0,0.0,0.0,0.0,0.0,0.0,0.0,0.0,0.0,0.0,0.0,0.0,0.0,0.0,0.0,0.0,0.0,0.0,0.0,0.0,0.0,0.0,0.0,0.0,0.0,0.0,0.0,0.0,0.0,0.0,0.0,0.0,0.0,0.0,0.0,0.0,0.0,0.0,0.0,0.0,0.0,0.0,0.0,0.0,0.0,0.0,0.0,0.0,0.0,0.0,0.0,0.0,0.0,0.0,0.0,0.0,0.0,0.0,0.0,0.0,0.0,0.0,0.0,0.0,0.0,0.0,0.0,0.0,0.0,0.0,0.0,0.0,0.0,0.0,0.0,0.0,0.0,0.0,0.0,0.0,0.0,0.0,0.0,0.0,0.0,0.0,0.0,0.0,0.0,0.0,0.0,0.0,0.0,0.0,0.0,0.0,0.0,0.0,0.0,0.0,0.0,0.0,0.0,0.0,0.0,0.0,0.0,0.0,0.0,0.0,0.0,0.0,0.0,0.0,0.0,0.0,0.0,0.0,0.0,0.0,0.0,0.0,0.0,0.0,0.0,0.0,0.0,0.0,0.0,0.0,0.0,0.0,0.0,0.0,0.0,0.0,0.0,0.0,0.0,0.0,0.0,0.0,0.0,0.0,0.0,0.0,0.0,0.0,0.0,0.0,0.0,0.0,0.0,0.0,0.0,0.0,0.0,0.0,0.0,0.0,0.0,0.0,0.0,0.0,0.0,0.0,0.0,0.0,0.0,0.0,0.0,0.0,0.0,0.0,0.0,0.0,0.0,0.0,0.0,3.0214,0.0,0.0,0.0,0.0,0.0,0.0,0.0,0.0,0.0,0.0,0.0,0.0,0.0,0.0,0.0,0.0,0.0,0.0,0.0,0.0,0.0,0.0,0.0,0.0,1.8379,1.8852,1.9636,1.9826,2.0532,2.1866,0.0,0.0,0.0,0.0,0.0,2.4545,2.5103,2.6256,2.8164,2.813,2.8774,3.0106,3.1176,3.0999,2.9907,0.0,0.0,0.0,0.0,0.0,0.0,0.0,0.0,0.0,0.0,0.0,0.0,0.0,0.0,0.0,0.0,0.0,0.0,0.0,0.0,0.0,0.0,0.0,0.0,0.0,0.0,0.0,0.0,0.0,0.0,0.0,0.0,0.0,0.0,0.0,0.0,0.0,0.0,0.0,0.0,0.0,0.0,0.0,0.0,0.0,0.0,0.0,0.0,0.0,0.0,0.0,0.0,0.0,0.0,0.0,0.0,0.0,0.0,0.0,0.0,0.0,0.0,0.0,0.0,0.0,0.0,0.0,0.0,0.0,0.0,0.0,3.1637,0.0,0.0,0.0,0.0,0.0,0.0,0.0,0.0,0.0,0.0,0.0,0.0,0.0,0.0,0.0,0.0,0.0,0.0,0.0,0.0,0.0,1.8125,1.8125,1.8754,1.9586,2.0407,2.0687,2.1665,2.3676,2.2652,0.0,0.0,0.0,0.0,2.6177,2.6268,2.7244,2.9076,2.8688,2.9935,3.2685,3.481,3.4871,3.3078,3.3085,0.0,0.0,0.0,0.0,0.0,0.0,0.0,0.0,0.0,0.0,0.0,0.0,0.0,0.0,0.0,0.0,0.0,0.0,0.0,0.0,0.0,0.0,0.0,0.0,0.0,0.0,0.0,0.0,0.0,0.0,0.0,0.0,0.0,0.0,0.0,0.0,0.0,0.0,0.0,0.0,0.0,0.0,0.0,0.0,0.0,0.0,0.0,0.0,0.0,0.0,0.0,0.0,0.0,0.0,0.0,0.0,0.0,0.0,0.0,0.0,0.0,0.0,0.0,0.0,3.809,3.9446,3.9546,3.9898,4.0224,3.6634,3.4424,3.342,0.0,0.0,0.0,0.0,0.0,0.0,0.0,0.0,0.0,0.0,0.0,0.0,0.0,0.0,0.0,0.0,0.0,0.0,0.0,0.0,1.8555,1.8555,2.0451,2.1765,2.1914,2.3547,2.4681,2.498,2.5115,0.0,0.0,0.0,2.6631,2.7749,2.8255,2.8859,2.9646,3.2123,3.4971,3.8036,3.973,4.0831,4.1022,3.585,3.4672,3.6408,0.0,0.0,0.0,0.0,0.0,0.0,0.0,0.0,0.0,0.0,0.0,0.0,0.0,0.0,0.0,0.0,0.0,0.0,0.0,0.0,0.0,0.0,0.0,0.0,0.0,0.0,0.0,0.0,0.0,0.0,0.0,0.0,0.0,0.0,0.0,0.0,0.0,0.0,0.0,0.0,0.0,2.8097,2.8649,0.0,0.0,0.0,0.0,0.0,0.0,0.0,0.0,0.0,0.0,0.0,0.0,0.0,0.0,3.6307,3.8391,3.9295,3.9044,4.0626,4.1505,4.1731,4.2208,4.2735,4.3263,4.3137,0.0,3.7889,3.6584,0.0,0.0,0.0,0.0,0.0,0.0,0.0,0.0,0.0,0.0,0.0,0.0,0.0,0.0,0.0,0.0,0.0,0.0,0.0,0.0,0.0,2.1618,2.3308,2.4687,2.7199,2.817,2.6916,2.8103,0.0,0.0,2.7325,2.8089,2.9469,2.942,3.0328,3.2306,3.7181,4.0373,4.1913,4.421,4.5727,4.6343,4.324,4.0617,3.8475,3.7155,0.0,0.0,0.0,0.0,0.0,0.0,0.0,0.0,0.0,0.0,0.0,0.0,0.0,0.0,0.0,0.0,0.0,0.0,0.0,0.0,0.0,0.0,0.0,0.0,0.0,0.0,0.0,0.0,0.0,0.0,0.0,0.0,0.0,0.0,0.0,0.0,0.0,0.0,0.0,2.8913,3.0365,3.0261,3.0877,3.1225,0.0,0.0,0.0,0.0,0.0,0.0,0.0,0.0,0.0,3.583,3.8917,4.0702,4.0937,4.2814,4.4011,4.4401,4.4726,4.5271,4.5874,4.6125,4.6878,4.8008,4.7908,4.6928,4.5121,4.1882,3.9998,3.9044,0.0,0.0,0.0,0.0,0.0,3.8391,0.0,0.0,0.0,0.0,0.0,0.0,0.0,0.0,0.0,0.0,0.0,0.0,2.1479,2.334,2.5597,2.8504,3.0991,3.1938,3.0854,3.1304,3.1041,2.9671,2.9205,2.9585,3.1009,3.1411,3.3382,3.6934,4.2138,4.5434,4.6696,4.931,5.09,5.1498,5.102,4.7639,4.2367,4.096,3.9361,3.7563,0.0,0.0,0.0,0.0,0.0,0.0,0.0,0.0,0.0,0.0,0.0,0.0,0.0,0.0,0.0,0.0,0.0,0.0,0.0,0.0,0.0,0.0,0.0,0.0,0.0,0.0,0.0,0.0,0.0,0.0,0.0,0.0,0.0,0.0,0.0,0.0,0.0,3.0909,3.2016,3.142,3.3173,3.4023,0.0,0.0,0.0,0.0,0.0,0.0,3.5916,3.7505,3.8843,3.9672,4.2941,4.5022,4.5822,4.734,4.8839,5.0363,4.9507,4.9747,5.0971,5.0352,5.0795,5.2101,5.2159,5.1848,5.1122,4.6677,4.3966,4.2484,4.1229,4.0576,4.0325,4.0174,4.0752,4.1605,0.0,0.0,0.0,0.0,0.0,0.0,0.0,0.0,0.0,0.0,0.0,2.0268,2.3417,2.6325,2.9699,3.3743,3.4862,3.6022,3.7895,3.4767,3.3172,3.3647,3.2133,3.148,3.2114,3.4972,3.8965,4.4211,4.6475,4.9662,5.3704,5.5748,5.7034,5.7693,5.7633,5.4958,5.0296,4.5908,4.3832,4.3226,4.0735,0.0,0.0,0.0,0.0,0.0,0.0,0.0,0.0,0.0,0.0,0.0,0.0,0.0,0.0,0.0,0.0,0.0,0.0,0.0,0.0,0.0,0.0,0.0,0.0,0.0,0.0,0.0,0.0,0.0,0.0,0.0,0.0,0.0,0.0,0.0,0.0,0.0,0.0,3.1468,3.5349,0.0,0.0,0.0,0.0,3.8978,3.8836,3.9547,4.1391,4.1772,4.2635,4.4242,4.6069,4.8256,5.0936,5.2059,5.4073,5.6802,5.5002,5.5208,5.6735,5.449,5.3808,5.4527,5.621,5.5934,5.4009,4.954,4.7054,4.5899,4.4242,4.389,4.4267,4.374,4.3915,4.4342,0.0,0.0,0.0,0.0,0.0,0.0,1.6278,1.6958,1.7513,1.7242,1.9521,2.252,2.6043,2.9464,3.2959,3.6445,3.9575,4.0767,3.9573,3.9478,3.8338,3.5915,3.438,3.4079,3.5103,3.9137,4.3022,4.6741,5.0648,5.4012,5.6765,5.8291,5.9398,6.0057,6.0057,5.889,5.6555,5.1079,4.7732,4.5779,4.2812,4.0495,0.0,0.0,0.0,0.0,0.0,0.0,0.0,0.0,0.0,0.0,0.0,0.0,0.0,0.0,0.0,0.0,0.0,0.0,0.0,0.0,0.0,0.0,0.0,0.0,0.0,0.0,0.0,0.0,0.0,0.0,0.0,0.0,0.0,0.0,0.0,0.0,0.0,3.7077,4.0597,0.0,0.0,4.2731,4.3645,4.3842,4.4788,4.554,4.5848,4.6934,4.8316,5.0037,5.2359,5.5101,5.794,5.8783,5.968,6.0631,5.8962,5.8385,5.9012,5.6976,5.6254,5.6825,5.629,5.5776,5.4938,5.3005,5.1122,4.9339,4.7657,4.6677,4.6225,4.6024,4.6527,4.7305,0.0,0.0,0.0,0.0,0.0,1.5688,1.4999,1.6042,1.6977,1.6988,2.0451,2.4425,2.8417,3.2298,3.6418,4.0759,4.3372,4.4373,4.3565,4.2471,4.0887,3.8556,3.7419,3.7663,3.9467,4.3507,4.7328,5.064,5.4339,5.7304,5.9488,6.0356,6.1134,6.1762,6.1762,6.1403,6.0505,5.6316,5.2665,4.9374,4.6262,4.4659,4.3661,0.0,0.0,0.0,0.0,0.0,0.0,0.0,0.0,0.0,0.0,0.0,0.0,0.0,0.0,0.0,0.0,0.0,0.0,0.0,0.0,0.0,0.0,0.0,0.0,0.0,0.0,0.0,0.0,0.0,0.0,0.0,0.0,0.0,0.0,0.0,3.9221,4.0797,4.4997,4.7486,4.6578,4.8212,4.9375,4.9577,5.0623,5.145,5.1861,5.2669,5.3793,5.5383,5.7185,5.9486,6.2216,6.2649,6.3217,6.3976,6.2054,6.1369,6.1762,5.9721,5.8853,5.8903,5.8183,5.7423,5.6852,5.6289,5.5062,5.3401,5.1084,4.9715,4.9088,4.9088,4.954,5.0218,0.0,0.0,0.0,0.0,0.0,1.3999,1.3035,1.4714,1.6206,1.6569,2.0913,2.5784,3.0409,3.4725,4.0063,4.6818,4.5944,4.6489,4.9965,4.3916,4.0717,4.1785,4.1395,4.2326,4.4849,4.8043,5.1865,5.6256,5.7573,5.9548,6.2091,6.2121,6.251,6.3109,6.3139,6.278,6.2151,6.1493,5.865,5.4281,5.1498,4.9622,4.8209,0.0,0.0,0.0,0.0,0.0,0.0,0.0,0.0,0.0,0.0,0.0,0.0,0.0,0.0,0.0,0.0,0.0,0.0,0.0,0.0,0.0,0.0,0.0,0.0,0.0,0.0,0.0,0.0,0.0,0.0,0.0,0.0,0.0,3.4801,3.8668,4.1681,4.2393,4.8466,5.1622,4.9522,5.3024,5.5718,5.6376,5.6289,5.7139,5.9529,5.8755,5.8868,6.0116,6.0144,6.1357,6.3699,6.3699,6.4802,6.7059,6.4802,6.4335,6.5362,6.2998,6.1603,6.088,6.2095,6.1572,5.9747,5.9167,5.8586,5.7762,5.425,5.298,5.2955,5.2929,5.2929,5.2929,0.0,0.0,0.0,0.0,0.0,1.4098,1.3687,1.4758,1.6096,1.7368,2.2658,2.7918,3.2178,3.6751,4.1772,4.724,4.6528,4.7007,4.9832,4.6166,4.3595,4.3084,4.3428,4.5298,4.8818,5.1493,5.4666,5.8291,5.9638,6.0894,6.2121,6.3049,6.3588,6.3767,6.4276,6.4395,6.4216,6.4036,6.2929,6.0864,5.5837,5.2472,5.0194,0.0,0.0,0.0,0.0,0.0,0.0,0.0,0.0,0.0,0.0,0.0,0.0,0.0,0.0,0.0,0.0,0.0,0.0,0.0,0.0,0.0,0.0,0.0,0.0,0.0,0.0,0.0,0.0,0.0,0.0,0.0,0.0,3.7688,3.8241,4.143,4.4954,4.8368,5.2604,5.575,5.7131,5.9853,6.1642,6.1822,6.3148,6.3499,6.2418,6.2675,6.3108,6.3879,6.3908,6.5029,6.7479,6.7479,6.785,6.8435,6.785,6.7686,6.7885,6.591,6.4907,6.468,6.3665,6.3059,6.231,6.0482,5.9334,5.8533,5.5408,5.3858,5.3432,5.3055,5.2929,5.2929,0.0,0.0,0.0,0.0,0.0,1.3314,1.3704,1.4504,1.5867,1.829,2.3754,2.8972,3.2812,3.7593,4.2174,4.6425,4.582,4.6302,4.8775,4.7169,4.572,4.4876,4.6982,4.9662,5.2847,5.5113,5.7603,6.0356,6.1433,6.2421,6.3348,6.4366,6.4994,6.5263,6.5652,6.5862,6.5862,6.5862,6.5622,6.4964,6.1523,5.8381,5.5478,5.2665,5.0614,4.8963,4.6109,4.4967,4.4267,4.0402,0.0,0.0,0.0,0.0,0.0,0.0,0.0,0.0,0.0,0.0,0.0,0.0,0.0,0.0,0.0,0.0,0.0,0.0,0.0,0.0,0.0,0.0,0.0,0.0,3.9497,4.2447,4.4583,4.6386,4.8916,5.2985,5.6332,5.922,6.12,6.3413,6.4964,6.5233,6.634,6.654,6.5492,6.5718,6.6217,6.6862,6.7155,6.8023,6.9423,6.9662,6.9662,6.9423,6.9423,6.9423,6.9393,6.8277,6.7582,0.0,6.5759,6.5074,6.4881,6.245,6.1736,0.0,0.0,0.0,0.0,0.0,5.2929,5.2929,0.0,0.0,0.0,1.4332,1.3114,1.2445,1.36,1.4126,1.5704,1.9078,2.443,2.9201,3.2446,3.7136,4.1409,4.5023,4.4309,4.4773,4.7195,4.7495,4.7466,4.7346,5.1439,5.4551,5.6585,5.853,6.0505,6.2421,6.3079,6.4036,6.5263,6.5922,6.658,6.7208,6.7298,6.7358,6.7418,6.7418,6.7418,6.7418,6.7418,6.5323,6.1822,5.8201,5.6944,5.6675,5.3533,5.1109,4.8865,4.5053,0.0,0.0,0.0,0.0,0.0,0.0,0.0,0.0,0.0,0.0,0.0,0.0,0.0,0.0,0.0,0.0,0.0,0.0,0.0,0.0,0.0,0.0,0.0,0.0,4.3623,4.7798,5.2352,5.27,5.366,5.651,5.9806,6.2072,6.2956,6.504,6.667,6.7178,6.7478,6.7807,6.8196,0.0,0.0,0.0,0.0,7.032,7.032,7.0859,7.0859,7.032,7.032,7.026,7.0201,7.026,6.969,6.8354,6.8084,6.7794,6.7324,6.5186,6.4933,6.5431,5.871,5.5188,5.3733,5.3457,5.3092,0.0,0.0,0.0,0.0,1.5177,1.4392,1.4022,1.4833,1.5138,1.6402,1.9519,2.4287,2.8292,3.0823,3.4726,3.9213,4.4255,4.2292,4.2671,4.7145,4.8322,5.003,5.2613,5.5048,5.7274,5.9279,6.1283,6.3019,6.4455,6.5114,6.5832,6.664,6.7298,6.7956,6.8645,6.9123,6.9662,7.0141,7.0141,7.0141,7.0141,7.0141,6.7238,6.275,6.1433,5.9338,5.6795,5.461,5.485,5.5568,5.1101,5.0411,5.0679,4.6251,4.2246,0.0,0.0,0.0,0.0,0.0,0.0,0.0,0.0,0.0,0.0,0.0,0.0,0.0,0.0,0.0,0.0,0.0,0.0,0.0,4.436,4.7933,5.2079,5.7633,5.9493,6.0318,6.0422,6.1997,6.3902,6.5878,6.8011,6.9004,6.8645,7.056,7.1128,6.9662,7.1098,0.0,7.1338,7.1996,7.2355,7.2355,7.2475,7.2475,7.2355,0.0,0.0,7.1547,7.2086,7.1685,7.0397,7.1347,7.1139,7.0028,6.8615,6.6729,6.4499,6.1603,5.8032,5.4592,5.5449,5.4576,5.2929,0.0,0.0,0.0,1.541,1.4746,1.4532,1.557,1.5578,1.6571,1.9661,2.3713,2.7252,2.9633,3.3034,3.6379,3.9343,3.9197,4.0977,4.5817,4.8486,5.1875,5.6496,5.856,6.0535,6.251,6.3857,6.5173,6.649,6.7178,6.7986,6.8974,6.9632,7.029,7.0979,7.1278,7.1607,7.1906,7.1906,7.1906,7.1906,7.1906,7.0141,6.7358,6.6041,6.4306,6.2271,6.0326,5.9608,5.9099,5.5777,5.4251,5.3114,4.9823,4.6453,4.3225,0.0,0.0,0.0,0.0,0.0,0.0,0.0,0.0,0.0,0.0,0.0,0.0,0.0,0.0,3.8639,4.0522,0.0,4.5874,4.947,5.2917,5.662,6.0652,6.3538,6.4941,6.3847,6.5294,6.6812,6.8405,6.9961,7.0919,7.0949,7.2176,7.2475,7.1487,7.2385,7.2744,7.2415,7.3043,7.3253,7.2924,7.3253,7.3253,7.2924,7.2924,7.2744,7.2415,7.2744,7.2355,7.1427,7.2116,7.2026,7.1427,7.074,6.8866,6.6194,6.5945,6.271,5.8038,5.6847,5.573,5.4415,0.0,0.0,0.0,1.541,1.4864,1.4855,1.6052,1.5965,1.6766,1.9552,2.2871,2.5661,2.7687,3.0542,3.276,3.3731,3.6508,4.0361,4.5176,4.8823,5.3568,5.9668,6.1672,6.3528,6.5383,6.6191,6.7238,6.8555,6.9213,7.0171,7.1308,7.1846,7.2445,7.3103,7.3103,7.3163,7.3283,7.3283,7.3283,7.3283,7.3283,7.2954,7.2295,7.059,6.9213,6.7926,6.6071,6.3558,6.0864,5.9249,5.6585,5.3653,5.2067,5.0122,4.7732,4.4347,4.2514,0.0,0.0,0.0,0.0,0.0,0.0,0.0,0.0,0.0,3.8974,4.1393,4.2964,4.4668,4.7163,4.933,5.1736,5.4538,5.7708,6.0754,6.3341,6.6346,6.7867,6.7059,6.8495,6.9722,7.0111,7.1457,7.2445,7.2894,7.3163,7.3193,7.2924,7.3163,7.3223,7.3103,7.3732,7.3821,7.3313,7.3821,7.3821,7.3283,7.3283,7.3223,7.3103,7.3223,7.2864,7.2086,7.2086,7.2146,7.2265,7.2146,7.0844,6.8934,6.9832,6.7435,6.2865,5.8885,5.7037,5.6235,0.0,0.0,0.0,0.0,0.0,1.5565,1.6461,1.6573,1.7224,1.9114,2.1317,2.2927,2.3541,2.557,2.7848,3.023,3.5687,4.1413,4.7203,5.0898,5.5899,6.2391,6.3947,6.5353,6.6759,6.8016,6.9303,7.059,7.1248,7.1936,7.2684,7.2774,7.3163,7.3791,7.3791,7.4121,7.4659,7.4659,7.4659,7.4659,7.4659,7.4599,7.445,7.3642,7.1487,6.8704,6.7268,6.4336,6.1074,6.0864,5.8949,5.6615,5.6406,5.4581,5.2007,4.9283,4.6271,4.3159,3.9567,3.6297,3.4566,3.7663,3.7613,3.8301,0.0,0.0,4.5162,4.7276,4.8738,4.9743,4.9973,5.2799,5.6002,5.8896,6.1322,6.4193,6.7723,6.8608,6.9243,7.0231,7.1068,7.1368,7.0859,7.2535,7.3462,7.2954,7.4001,7.4151,7.2984,7.4031,7.439,7.3821,7.442,7.4719,7.4659,7.4719,7.4719,7.4659,7.4659,7.436,7.3821,7.439,7.3971,7.2804,7.2804,7.3133,7.3612,7.3043,7.2252,7.1434,7.0908,7.0062,6.8436,6.3187,5.9561,5.6867,0.0,0.0,0.0,0.0,0.0,1.5527,1.5898,1.6191,1.6766,1.8026,1.9975,2.1396,2.2049,2.3944,2.5698,2.7059,3.1535,3.6912,4.3299,4.7476,5.3641,6.2465,6.4018,6.6096,6.9213,7.0201,7.1338,7.2654,7.3313,7.3762,7.4061,7.448,7.4809,7.5078,7.5078,7.5407,7.6006,7.6006,7.5796,7.5497,7.5856,7.5557,7.4749,7.3732,7.1278,6.8166,6.646,6.3827,0.0,5.889,5.7723,5.7034,5.6675,5.4999,5.2815,5.096,4.7788,4.4146,4.0719,3.9542,0.0,0.0,4.2267,4.459,4.8298,4.9575,5.0537,5.2645,5.4361,5.6005,5.7523,5.9597,6.1874,0.0,6.5808,6.747,6.9743,7.044,7.059,7.038,7.1278,7.1936,7.2056,7.3522,7.436,7.4091,7.4569,7.4629,7.4091,7.4569,7.4749,7.448,7.4719,7.4869,7.4869,7.4869,7.4869,7.4869,7.4869,7.4719,7.448,7.4749,7.436,7.3492,7.3492,7.3432,7.3343,7.3432,7.2864,7.1846,7.1577,7.0859,6.9466,6.503,6.1733,5.8994,0.0,0.0,0.0,0.0,0.0,1.5449,1.5566,1.5859,1.6449,1.7266,1.8731,2.001,2.0876,2.2424,2.3645,2.4348,2.7561,3.2575,3.9576,4.3966,5.0867,6.0889,6.3265,6.6195,7.056,7.1637,7.2924,7.445,7.4929,7.5258,7.5437,7.5916,7.6155,7.6155,7.6155,7.6425,7.6814,7.6814,7.6574,7.6185,7.6455,7.5796,7.439,7.2535,6.9662,6.637,6.4366,6.1493,5.8261,5.5688,5.473,5.47,5.4999,5.4072,5.2606,5.1109,4.7878,4.4287,4.2073,0.0,0.0,4.4197,4.683,4.9972,5.2306,5.4012,5.5658,5.7663,5.9488,6.1313,6.3258,6.4695,0.0,6.7956,6.8974,7.0051,7.1517,7.1517,7.1009,7.0081,7.032,7.0799,7.1487,7.3253,7.448,7.4839,7.4869,7.4869,7.4869,7.4869,7.4869,7.4869,7.4869,7.4958,7.5168,7.5168,7.5168,7.5168,7.5168,7.5048,7.4869,7.4869,7.451,7.3911,7.4091,7.3791,7.3223,7.3881,7.3373,7.2176,7.2176,7.1368,6.9893,6.7049,6.405,6.0855,0.0,0.0,0.0,0.0,0.0,1.5547,1.6037,1.6115,1.6449,1.7266,1.7754,1.8429,1.9291,2.021,2.1108,2.2231,2.5018,3.0055,3.7868,4.188,4.8295,5.7915,6.1768,6.5651,6.9901,7.1876,7.3851,7.5856,7.5856,7.6185,7.6754,7.6784,7.6814,7.6814,7.6814,7.6814,7.6814,7.6814,7.6814,7.6754,7.6185,7.5138,7.3582,7.035,6.667,6.2959,6.0954,5.6885,5.2366,5.1618,5.0122,4.8985,5.1528,5.2276,5.1858,4.9883,4.6501,4.3509,4.4047,0.0,4.5843,4.8416,5.0571,5.2935,5.6166,5.8441,6.0446,6.245,6.3917,6.4874,6.4964,6.6041,6.7388,6.8764,7.0021,7.1547,7.3522,7.1607,6.9991,6.9991,6.8286,6.7388,0.0,7.1068,7.3492,7.4779,7.4869,7.4869,7.4869,7.4869,7.4869,7.4869,7.4869,7.5198,7.5856,7.5886,7.5886,7.5886,7.5886,7.5527,7.4869,7.4869,7.451,7.3941,7.4569,7.448,7.3911,7.4569,7.4061,7.2894,7.2894,7.2056,7.0799,7.0141,6.6693,6.1795,0.0,0.0,0.0,0.0,0.0,0.0,1.5605,1.5625,1.584,1.6426,1.7148,0.0,0.0,0.0,0.0,0.0,2.3116,2.6669,3.1437,3.6694,4.2818,5.0276,5.6753,6.2263,6.6549,7.0349,7.2984,7.4569,7.5886,7.6425,7.6245,7.7083,7.7472,7.7472,7.7472,7.7711,7.813,7.813,7.7622,7.6724,7.5647,7.4151,7.2206,6.8914,6.4126,5.871,0.0,5.2217,4.9224,4.68,4.6112,4.6441,4.7339,4.7938,4.7908,4.5903,4.5933,4.6471,4.5813,0.0,5.105,5.3294,5.5987,5.886,6.1702,6.3558,6.4605,6.4425,6.4366,6.4216,6.3797,6.4425,6.5892,6.8555,7.0081,7.1757,7.421,7.3402,7.1577,6.8974,6.8465,0.0,0.0,0.0,0.0,7.3402,7.3582,7.3941,7.4839,7.4869,7.5078,7.5557,7.5557,7.5856,7.6514,7.6125,7.5916,7.5886,7.5437,7.5108,7.4869,7.4869,7.4749,7.4569,7.4779,7.451,7.3911,7.4121,7.3432,7.2235,7.2235,7.1697,7.0539,6.7497,6.5074,6.2921,0.0,0.0,0.0,0.0,0.0,0.0,0.0,0.0,0.0,0.0,0.0,0.0,0.0,0.0,0.0,0.0,0.0,2.3906,2.6952,3.154,3.7083,4.3462,4.9744,5.5221,5.9529,6.3881,6.707,6.912,7.1506,7.2894,7.3462,7.4988,7.5826,7.6066,7.6544,7.7143,7.7741,7.7502,7.6634,7.5228,7.2714,7.038,6.7897,6.3408,5.8471,0.0,4.9494,4.695,4.5155,4.3,4.2851,4.3629,4.4107,4.4706,4.5155,4.4556,4.6262,4.8446,4.9284,5.2516,5.6196,5.8411,6.1104,6.3707,6.5652,6.655,6.661,6.5293,6.4126,6.2989,6.1852,6.1583,6.272,6.6311,6.7747,6.9692,7.3313,7.2834,7.1278,6.8974,6.8435,0.0,0.0,0.0,0.0,7.1996,7.2864,7.3642,7.448,7.4988,7.5437,7.5886,7.5916,7.6215,7.6814,7.6425,7.6245,7.6215,7.5318,7.4869,7.4869,7.4869,7.4749,7.454,7.4779,7.436,7.3552,7.3791,7.3103,7.1876,7.1876,7.1063,6.959,6.6748,6.4832,6.3115,0.0,0.0,0.0,0.0,0.0,0.0,0.0,0.0,0.0,0.0,0.0,0.0,0.0,0.0,0.0,0.0,0.0,0.0,2.4292,2.6952,3.1182,3.7474,4.1279,4.5337,4.9719,5.3415,5.6828,6.0063,6.3031,6.5801,6.8495,7.038,7.1637,7.2355,7.3612,7.454,7.5168,7.448,7.3462,7.1906,6.7328,6.4006,6.1074,5.461,5.0511,4.7698,4.3868,4.1594,4.0337,4.0337,4.0397,0.0,4.1953,4.2851,4.3838,4.5903,4.7578,4.9733,5.4251,5.7932,6.1104,6.3677,6.5742,6.7298,6.7897,6.7478,6.658,6.5114,6.3169,6.1134,0.0,0.0,5.8291,6.2361,6.3707,6.6101,7.1338,7.05,6.9542,0.0,0.0,0.0,0.0,0.0,0.0,7.0709,0.0,7.3821,7.4001,7.5198,7.5946,7.6006,7.6006,7.6305,7.6933,7.6904,7.6844,7.6754,7.5527,7.4899,7.4869,7.4869,7.454,7.3971,7.4599,7.4121,7.2954,7.3582,7.3043,7.1846,7.1685,7.0312,6.8248,6.7947,6.6025,6.2837,0.0,0.0,0.0,0.0,0.0,0.0,0.0,0.0,0.0,0.0,0.0,0.0,0.0,0.0,0.0,0.0,0.0,0.0,2.1607,2.4893,2.781,3.0125,3.6689,4.1392,4.3846,4.8518,5.2185,5.4749,5.7005,5.9037,6.0924,6.2421,6.3468,6.4126,6.4485,6.4994,6.5562,6.4904,6.4425,6.3797,6.0146,5.8291,5.7244,5.3054,4.9523,4.6621,4.5095,4.2432,3.9679,0.0,0.0,0.0,0.0,4.3479,4.5394,4.8356,5.1917,5.5538,5.874,6.272,6.637,6.8046,6.8854,6.9123,6.8824,6.7837,6.6071,6.278,5.9368,5.6346,0.0,0.0,0.0,6.1553,6.5383,0.0,7.421,7.445,0.0,0.0,0.0,7.044,6.7956,6.9482,0.0,0.0,7.1368,7.2744,7.5258,7.5707,7.6335,7.7293,7.7322,7.7622,7.828,7.7801,7.7083,7.6125,7.5796,7.5377,7.4869,7.4869,7.4779,7.4629,7.4809,7.4121,7.2924,7.3103,7.2355,7.1028,6.9617,6.95,6.9781,6.6927,6.5721,6.5057,0.0,0.0,0.0,0.0,0.0,0.0,0.0,0.0,0.0,0.0,0.0,0.0,0.0,0.0,0.0,0.0,0.0,0.0,0.0,2.233,2.4304,2.5466,3.0565,3.4145,3.5805,4.0291,4.3808,4.6243,4.8866,5.115,5.3177,5.5215,5.6555,5.7244,5.8411,5.9308,5.9877,5.9518,5.9039,0.0,0.0,5.2366,5.1498,4.8177,4.5574,4.3658,4.3269,4.1713,0.0,0.0,0.0,4.3329,4.4556,4.692,4.9793,5.2815,0.0,5.9997,6.3258,6.664,6.9572,7.0919,7.0829,6.9842,6.7747,6.6011,6.3378,5.8261,5.473,0.0,0.0,0.0,0.0,0.0,0.0,0.0,7.3402,7.4659,7.4689,0.0,7.4001,0.0,7.1218,7.2325,7.3163,0.0,7.2804,7.3462,7.5347,7.6275,7.7083,7.7801,7.7801,7.7981,7.837,7.7711,7.7023,7.6305,7.6036,7.5557,7.4869,7.4869,7.4869,7.4869,0.0,7.4121,7.2924,7.2924,7.2116,7.0759,6.9781,6.9486,6.9353,6.7203,6.6028,6.5074,0.0,0.0,0.0,0.0,0.0,0.0,0.0,0.0,0.0,0.0,1.5566,1.5547,0.0,0.0,0.0,0.0,0.0,0.0,0.0,0.0,2.1211,2.2574,2.4588,2.6314,2.7749,3.1331,3.4331,3.6651,3.9901,4.271,4.5194,4.7906,4.9515,5.0317,5.2634,5.403,5.4684,5.4917,5.4291,5.2919,4.8835,4.6595,4.5334,0.0,4.0741,4.0397,4.0307,4.0217,0.0,0.0,4.5214,4.6232,4.8476,5.1798,5.5418,5.8231,6.0864,6.3707,6.7567,7.0081,7.1846,7.3013,7.2176,6.9961,6.5832,6.3109,5.9578,5.3025,0.0,4.7938,4.6142,0.0,4.9853,5.5388,0.0,6.5323,7.1427,7.3373,7.4629,7.5886,7.6096,7.5886,7.5198,7.5198,7.5467,7.5976,7.5557,7.5258,7.5258,7.6874,7.7861,7.7921,7.7951,7.7951,7.7951,7.7293,7.6904,7.6814,7.6215,7.5557,7.4869,7.4869,7.4869,7.4869,0.0,0.0,7.3043,7.3043,7.2295,7.1158,7.0897,6.9854,6.8499,6.8363,6.689,6.4861,0.0,0.0,0.0,0.0,0.0,0.0,0.0,0.0,0.0,0.0,1.6657,1.5449,0.0,0.0,0.0,0.0,0.0,0.0,0.0,0.0,0.0,2.1431,2.3016,2.4223,2.488,2.7706,2.9757,3.0927,0.0,3.4963,3.6732,3.7811,3.888,3.9982,4.0435,4.1227,4.2389,4.3285,4.351,4.3219,4.1826,4.1666,4.1966,3.9408,0.0,0.0,3.9798,0.0,0.0,4.4975,4.7578,4.9224,5.2845,5.5957,5.8979,6.272,6.5323,6.7687,7.1128,7.3522,7.5108,7.5318,7.3522,7.038,6.5323,6.0954,0.0,0.0,4.6501,4.4077,4.321,4.5035,0.0,5.5807,0.0,0.0,0.0,0.0,7.5826,0.0,0.0,0.0,0.0,0.0,0.0,0.0,0.0,0.0,7.7293,7.7622,7.8041,7.8609,7.8609,7.8609,7.8609,7.7981,7.7382,7.6814,7.6215,7.5557,7.4869,7.4869,7.4869,7.4869,0.0,0.0,7.3732,7.3732,7.3253,7.2432,7.08,7.0614,7.1007,6.9437,6.901,6.8707,0.0,0.0,0.0,0.0,0.0,0.0,0.0,1.7698,1.8997,1.9873,2.0051,1.9426,1.7823,1.7675,1.7543,0.0,0.0,0.0,0.0,0.0,0.0,0.0,0.0,0.0,0.0,0.0,0.0,0.0,0.0,0.0,0.0,0.0,0.0,0.0,3.6397,3.7174,3.7838,3.8971,3.9417,3.936,3.8738,3.8723,3.9089,0.0,0.0,0.0,0.0,0.0,0.0,0.0,4.8057,5.1109,5.5748,5.9727,6.3199,6.5802,6.8465,7.1038,7.3313,7.5138,7.6305,7.5976,7.3133,6.8734,6.2391,0.0,0.0,0.0,4.291,4.1713,4.1384,4.3778,0.0,0.0,0.0,0.0,0.0,0.0,0.0,0.0,0.0,0.0,0.0,0.0,0.0,0.0,0.0,0.0,7.7831,7.813,7.846,7.8789,7.8789,7.8789,7.8789,7.846,7.7981,7.7322,7.6694,7.6036,7.5407,7.5048,7.4869,7.4869,7.4869,0.0,7.3881,7.3881,7.3492,7.276,7.1892,7.1748,7.1745,7.0888,7.0562,7.0181,0.0,0.0,0.0,0.0,0.0,0.0,1.7471,1.9144,2.0774,2.2155,2.4108,2.4258,2.1507,1.9942,1.8736,0.0,0.0,0.0,0.0,0.0,0.0,0.0,0.0,0.0,0.0,0.0,0.0,0.0,0.0,0.0,0.0,0.0,0.0,0.0,0.0,0.0,0.0,3.688,3.7511,0.0,0.0,0.0,0.0,0.0,0.0,0.0,0.0,0.0,0.0,0.0,4.6867,5.0601,5.5628,6.1074,6.5862,6.7328,7.0111,7.3073,7.4809,7.6155,7.6904,7.6275,7.2415,6.6909,5.9757,5.4102,0.0,0.0,3.9948,3.9798,3.9948,4.2312,4.5304,0.0,0.0,0.0,0.0,0.0,0.0,0.0,0.0,0.0,0.0,0.0,0.0,0.0,0.0,0.0,0.0,7.8519,7.8789,7.8789,7.8789,7.8789,7.8789,7.8639,7.831,7.7801,7.7023,7.6365,7.5886,7.5198,7.4869,7.4869,7.4869,0.0,0.0,7.4091,7.3791,7.3343,7.3343,7.2834,7.2116,7.2116,7.1607,7.0629,0.0,0.0,0.0,0.0,0.0,0.0,1.8448,2.0442,2.2936,2.6661,2.7924,2.7878,2.633,2.2992,2.0232,0.0,0.0,0.0,0.0,0.0,0.0,0.0,0.0,0.0,0.0,0.0,0.0,0.0,0.0,0.0,0.0,0.0,0.0,0.0,0.0,0.0,0.0,0.0,0.0,0.0,0.0,0.0,0.0,0.0,0.0,0.0,0.0,0.0,0.0,0.0,0.0,4.5663,4.9763,5.7094,6.4575,6.652,0.0,0.0,7.5796,7.7173,7.7562,7.6904,7.2355,6.6311,5.9638,0.0,0.0,4.0636,3.8542,3.7853,3.8452,3.9828,4.2491,0.0,5.0122,5.4491,0.0,0.0,0.0,0.0,0.0,0.0,0.0,0.0,0.0,0.0,0.0,0.0,0.0,7.8759,7.8789,7.8789,7.8789,7.8789,7.8789,7.819,7.7861,7.7801,7.6574,7.5946,7.5886,7.5198,7.4869,7.4869,0.0,0.0,0.0,7.4779,7.4749,7.4689,7.4689,7.3911,7.2834,7.2834,7.1996,7.0919,0.0,0.0,0.0,0.0,0.0,0.0,1.8051,2.0358,2.3006,2.6279,2.8626,2.9574,2.8694,2.6181,2.3279,2.0116,1.9975,0.0,0.0,0.0,0.0,0.0,0.0,0.0,0.0,0.0,0.0,0.0,0.0,0.0,0.0,0.0,0.0,0.0,0.0,0.0,0.0,0.0,0.0,0.0,0.0,0.0,0.0,0.0,0.0,0.0,0.0,0.0,0.0,0.0,0.0,0.0,4.3289,4.8716,0.0,0.0,6.6011,7.035,7.4061,7.6694,7.816,7.7083,7.1457,6.4665,5.886,0.0,4.4227,3.9738,3.8063,3.7614,3.8272,3.8841,4.0277,4.3599,4.4137,4.698,0.0,0.0,0.0,0.0,0.0,0.0,0.0,0.0,0.0,0.0,0.0,0.0,0.0,7.8789,7.8789,7.8789,7.8789,7.8789,7.8789,7.8519,7.819,7.7801,7.6904,7.6275,7.5886,7.5198,7.4869,7.4869,0.0,0.0,0.0,7.4869,7.4869,7.4839,7.445,7.3732,7.2864,7.2445,7.1697,7.0889,0.0,0.0,0.0,0.0,0.0,1.6117,1.8181,2.0532,2.3144,2.6355,2.901,3.0298,2.9559,2.7998,2.5589,2.2113,2.1069,0.0,0.0,0.0,0.0,0.0,0.0,0.0,0.0,0.0,2.6035,2.6259,2.7877,0.0,0.0,0.0,0.0,0.0,0.0,0.0,0.0,0.0,0.0,0.0,0.0,0.0,0.0,0.0,0.0,0.0,0.0,0.0,0.0,0.0,0.0,0.0,0.0,0.0,0.0,0.0,6.1762,6.7388,7.1368,7.5138,7.7682,7.6544,7.029,6.3109,0.0,5.0062,4.2671,3.8871,3.7434,3.7105,3.7943,3.8093,3.8751,4.0756,4.0636,4.2791,4.9912,0.0,0.0,0.0,0.0,0.0,0.0,0.0,0.0,0.0,0.0,0.0,0.0,7.8789,7.8789,7.8789,7.8789,7.8699,7.8489,7.8699,7.837,7.7502,7.7053,7.6514,7.5886,7.5198,7.4869,7.4869,0.0,0.0,0.0,7.4869,7.4869,7.4839,7.436,7.3672,7.2864,7.2355,7.1637,7.0889,0.0,0.0,0.0,0.0,0.0,1.6337,1.9254,2.1353,2.4049,2.7939,2.9677,3.0183,2.8951,2.79,2.6522,2.4684,2.2111,0.0,0.0,0.0,0.0,0.0,0.0,0.0,0.0,0.0,2.6237,2.5824,2.8445,2.9804,2.9804,0.0,0.0,0.0,0.0,0.0,0.0,0.0,0.0,0.0,0.0,0.0,0.0,0.0,0.0,0.0,0.0,0.0,0.0,0.0,0.0,0.0,0.0,3.6652,4.0187,0.0,5.6915,6.3977,6.7986,7.2415,7.5766,7.5078,6.8944,6.1882,0.0,4.9015,4.1444,3.8093,3.6417,3.5908,3.7195,3.7434,3.8063,4.0098,4.1504,4.4167,4.9494,0.0,0.0,0.0,0.0,0.0,0.0,0.0,0.0,0.0,0.0,0.0,0.0,0.0,7.8789,7.8789,7.8789,7.8489,7.7831,7.846,7.813,7.6844,7.6814,7.6514,7.5886,7.5198,7.4869,0.0,0.0,0.0,0.0,7.4869,7.4869,7.4869,7.4869,7.4061,7.2924,7.2894,7.2056,7.0889,0.0,0.0,0.0,0.0,0.0,0.0,1.7817,1.8995,2.1072,2.4634,2.5959,2.7076,2.8174,2.6749,2.5612,2.5419,2.3021,0.0,0.0,0.0,0.0,0.0,0.0,0.0,0.0,2.5495,2.6057,2.6237,2.8208,2.9395,2.9804,3.0181,3.0156,0.0,0.0,0.0,0.0,0.0,0.0,0.0,0.0,0.0,0.0,0.0,0.0,0.0,0.0,0.0,0.0,0.0,0.0,0.0,0.0,0.0,0.0,4.0403,4.7911,5.5748,5.9279,6.3288,6.6191,6.5054,6.0505,5.5448,5.2187,4.6052,4.0337,3.7913,3.6387,3.5759,3.6626,3.7135,3.8362,4.1265,4.2462,4.4257,4.7758,0.0,0.0,0.0,0.0,0.0,0.0,0.0,0.0,0.0,0.0,0.0,0.0,0.0,7.834,7.8789,7.8789,7.8699,7.8489,7.825,7.7682,7.6814,7.6395,7.5856,7.5198,7.4988,0.0,0.0,0.0,0.0,0.0,7.4869,7.4869,7.4839,7.439,7.3672,7.2864,7.2385,7.1667,7.0889,0.0,0.0,0.0,0.0,0.0,0.0,1.711,1.8086,1.9778,2.2526,2.3845,2.5062,2.6576,2.5505,2.4773,2.5121,2.3183,0.0,0.0,0.0,0.0,0.0,0.0,0.0,2.478,2.5968,2.6644,2.6918,2.9106,3.0433,3.1035,3.1386,3.1135,3.0382,3.0181,0.0,0.0,0.0,0.0,0.0,0.0,0.0,2.9804,0.0,0.0,0.0,0.0,0.0,0.0,0.0,0.0,0.0,0.0,0.0,0.0,0.0,4.1048,4.7429,0.0,5.6466,5.9338,5.874,5.5299,5.1379,4.8745,4.3928,3.9469,3.7464,3.6237,3.5789,3.6656,3.7135,3.8242,4.0846,4.2013,4.3599,4.6531,0.0,0.0,0.0,0.0,0.0,0.0,0.0,0.0,0.0,0.0,0.0,0.0,0.0,7.81,7.8759,7.8549,7.831,7.8041,7.7891,7.7233,7.6096,7.5976,7.5557,7.4869,7.4869,0.0,0.0,0.0,0.0,0.0,7.4869,7.4869,7.4839,7.442,7.3702,7.2864,7.2445,7.1697,7.0889,0.0,0.0,0.0,0.0,0.0,0.0,0.0,1.846,1.9907,2.1578,2.2947,2.3919,2.4308,2.3983,2.3713,2.381,2.2501,0.0,0.0,0.0,0.0,0.0,0.0,0.0,2.2244,2.5968,2.7836,2.7554,3.0699,3.255,3.3114,3.3154,3.26,3.1524,3.0884,3.0357,0.0,0.0,0.0,0.0,0.0,2.9804,0.0,0.0,0.0,0.0,0.0,0.0,0.0,0.0,0.0,0.0,0.0,0.0,0.0,0.0,0.0,0.0,0.0,5.1199,5.4281,5.485,5.2217,4.8805,4.6322,4.2402,0.0,0.0,0.0,0.0,3.7165,3.7404,3.7883,3.9379,4.0726,4.2731,4.5992,0.0,0.0,0.0,0.0,0.0,0.0,0.0,0.0,0.0,0.0,0.0,0.0,0.0,7.81,7.8699,7.8071,7.7472,7.6904,7.7412,7.6754,7.4958,7.5557,7.5497,7.4869,7.4869,0.0,0.0,0.0,0.0,0.0,7.4869,7.4869,7.4869,7.4869,7.4061,7.2924,7.2924,7.2056,7.0889,0.0,0.0,0.0,0.0,0.0,0.0,0.0,0.0,0.0,0.0,2.1236,2.1673,2.1524,2.1152,2.1173,0.0,0.0,0.0,0.0,0.0,0.0,0.0,0.0,0.0,2.4821,2.6147,2.7267,2.7951,3.086,3.2536,3.3144,3.3522,3.3377,3.2699,3.164,3.0683,0.0,0.0,0.0,0.0,2.9804,2.9804,0.0,0.0,0.0,0.0,2.9804,2.9804,0.0,0.0,0.0,0.0,0.0,0.0,0.0,0.0,3.4611,3.6656,3.8871,0.0,4.3778,4.3449,4.2641,4.1654,0.0,0.0,0.0,0.0,0.0,0.0,0.0,3.7404,3.8332,4.1205,4.2761,4.4616,4.7429,0.0,0.0,0.0,0.0,0.0,0.0,0.0,0.0,0.0,0.0,0.0,0.0,0.0,7.7891,7.8041,7.7412,7.7233,7.7562,7.6754,7.6125,7.5647,7.5288,7.5018,7.4869,7.4869,0.0,0.0,0.0,0.0,7.4869,7.4869,7.4869,7.4869,7.4869,7.4061,7.2924,7.2924,7.2056,7.0889,0.0,0.0,0.0,0.0,0.0,0.0,0.0,0.0,0.0,0.0,2.1083,2.1547,2.1412,2.1065,2.093,0.0,0.0,0.0,0.0,0.0,0.0,0.0,0.0,2.3224,2.4647,2.6599,2.8028,2.8903,3.1635,3.3751,3.5107,3.5314,3.5077,3.4519,3.2306,3.0751,2.9804,2.9804,2.9804,2.9804,2.9804,0.0,0.0,0.0,0.0,0.0,2.9804,2.9804,0.0,3.0292,3.1044,3.1756,0.0,0.0,0.0,0.0,3.4341,3.5579,3.5938,3.7494,3.902,3.896,3.896,3.8781,3.8093,0.0,0.0,0.0,0.0,0.0,0.0,0.0,0.0,4.1414,4.3,0.0,0.0,0.0,0.0,0.0,0.0,0.0,0.0,0.0,0.0,0.0,0.0,0.0,0.0,0.0,7.7502,7.7801,7.6574,7.6245,7.6933,7.6245,7.5736,7.5437,7.5048,7.4869,7.4869,7.4869,0.0,0.0,0.0,0.0,7.4869,7.4869,7.4869,7.4869,7.4869,7.4061,7.2924,7.2924,7.2056,7.0889,0.0,0.0,0.0,0.0,0.0,0.0,0.0,0.0,0.0,0.0,0.0,0.0,0.0,0.0,0.0,0.0,0.0,0.0,0.0,0.0,0.0,0.0,2.2757,2.4006,2.378,2.6961,2.9008,2.9797,3.2537,3.4944,3.7087,3.7358,3.7037,3.6001,3.2894,3.0851,2.9804,2.9804,2.9804,2.9804,2.9804,0.0,0.0,0.0,0.0,0.0,0.0,0.0,0.0,3.0895,3.1901,3.2806,3.2664,0.0,0.0,0.0,0.0,0.0,3.5759,3.6656,3.7614,3.7883,3.7943,3.7793,3.7255,0.0,0.0,0.0,0.0,0.0,0.0,0.0,0.0,0.0,0.0,0.0,0.0,0.0,0.0,0.0,0.0,0.0,0.0,0.0,0.0,0.0,0.0,0.0,0.0,0.0,0.0,7.7652,7.6036,7.5347,7.5736,7.5736,7.5467,7.4869,7.4869,7.4869,7.4869,7.4869,7.4869,0.0,0.0,0.0,7.4869,7.4869,7.4809,7.4719,7.4719,7.3911,7.2744,7.2744,7.1966,7.0889,0.0,0.0,0.0,0.0,0.0,0.0,0.0,0.0,0.0,0.0,0.0,0.0,0.0,0.0,0.0,0.0,0.0,0.0,0.0,0.0,0.0,2.0017,2.1882,2.3909,2.6013,2.7038,2.8305,2.9795,3.2531,3.4561,3.5923,3.8383,3.8156,3.5785,3.378,3.1759,2.9804,2.9804,2.9804,2.9804,0.0,0.0,0.0,0.0,0.0,0.0,0.0,0.0,0.0,3.1167,3.2307,3.3671,3.2876,0.0,0.0,0.0,0.0,0.0,3.6836,3.7674,3.7883,3.6327,3.5938,3.5938,0.0,0.0,0.0,0.0,0.0,0.0,0.0,0.0,0.0,0.0,0.0,0.0,0.0,0.0,0.0,0.0,0.0,0.0,0.0,0.0,0.0,0.0,0.0,0.0,0.0,0.0,0.0,7.7023,7.6694,7.6036,7.5048,7.5018,7.4988,7.4869,7.4869,7.4869,7.4869,7.4869,7.4869,0.0,0.0,7.4869,7.4869,7.4869,7.454,7.4031,7.4031,7.3223,7.2056,7.2056,7.1547,7.0889,0.0,0.0,0.0,0.0,0.0,0.0,0.0,0.0,0.0,0.0,0.0,0.0,0.0,0.0,0.0,0.0,0.0,0.0,0.0,0.0,2.1063,2.2887,2.3786,2.473,2.5682,2.7673,2.946,3.111,3.3897,3.6483,3.8972,4.018,3.9365,3.6888,3.4114,3.1969,3.0495,3.0011,2.9804,2.9804,0.0,0.0,0.0,0.0,0.0,0.0,0.0,0.0,0.0,0.0,3.2876,3.4041,3.4109,0.0,0.0,0.0,0.0,0.0,3.6207,3.6596,3.6776,3.6596,3.7075,3.7434,0.0,0.0,0.0,0.0,0.0,0.0,0.0,0.0,0.0,0.0,0.0,0.0,0.0,0.0,0.0,0.0,0.0,0.0,0.0,0.0,0.0,0.0,0.0,0.0,0.0,0.0,0.0,0.0,7.6125,7.5497,7.4899,7.4869,7.4869,7.4869,7.4869,7.4869,7.4869,7.4869,7.4869,7.4869,0.0,7.4869,7.4869,7.4869,7.448,7.3881,7.3881,7.3073,7.1846,7.1487,7.1158,7.0889,0.0,0.0,0.0,0.0,0.0,0.0,0.0,0.0,0.0,0.0,0.0,0.0,0.0,0.0,0.0,0.0,0.0,0.0,0.0,2.1164,2.2128,2.4806,2.5394,2.5822,2.6287,2.882,3.1035,3.2792,3.5948,3.9401,4.3097,4.1913,4.0371,3.8312,3.4921,3.2581,3.1167,3.0419,3.0011,2.9804,0.0,0.0,0.0,0.0,0.0,0.0,0.0,0.0,0.0,0.0,0.0,0.0,0.0,0.0,0.0,3.5519,3.5519,3.5579,3.5878,3.5938,3.6237,3.7345,0.0,0.0,0.0,0.0,0.0,0.0,0.0,0.0,0.0,0.0,0.0,0.0,0.0,0.0,0.0,0.0,0.0,0.0,0.0,0.0,0.0,0.0,0.0,0.0,0.0,0.0,0.0,0.0,0.0,0.0,7.5647,7.5048,7.4869,7.4869,7.4869,7.4869,7.4869,7.4869,7.4869,7.4869,7.4869,7.4869,7.4869,7.4779,7.4659,7.4659,7.4151,7.3432,7.3432,7.2714,7.1577,7.1098,7.0889,7.0889,0.0,0.0,0.0,0.0,0.0,0.0,0.0,0.0,0.0,0.0,0.0,0.0,0.0,0.0,0.0,0.0,0.0,0.0,0.0,2.1353,2.2139,2.2886,2.4641,2.7067,3.0177,3.0934,3.234,3.455,3.8668,4.2931,4.6915,4.32,4.0862,3.9721,3.6995,3.408,3.1167,3.1119,3.062,2.9804,2.9804,0.0,0.0,0.0,0.0,0.0,0.0,0.0,0.0,0.0,0.0,0.0,0.0,0.0,3.5519,3.5519,3.5519,3.5759,3.6956,3.7255,3.7434,3.8153,0.0,0.0,0.0,0.0,0.0,0.0,0.0,0.0,0.0,0.0,0.0,0.0,0.0,0.0,0.0,0.0,0.0,0.0,0.0,0.0,0.0,0.0,0.0,0.0,0.0,0.0,0.0,0.0,0.0,0.0,0.0,7.5527,7.4899,7.4869,7.4869,7.4869,7.4869,7.4869,7.4869,7.4869,7.4869,7.4869,7.4869,7.454,7.3971,7.3971,7.3193,7.2026,7.2026,7.1607,7.0979,7.0919,7.0889,7.0889,0.0,0.0,0.0,0.0,0.0,0.0,0.0,0.0,0.0,0.0,0.0,2.1066,2.1267,0.0,0.0,0.0,0.0,0.0,2.2101,2.2002,2.2654,2.4452,2.5228,2.7168,3.0532,3.1813,3.3696,3.6257,4.1293,4.4927,4.7203,4.3708,4.1362,4.0081,3.6416,3.4098,3.2876,3.1683,3.097,3.062,2.9985,2.9804,0.0,0.0,0.0,0.0,0.0,0.0,0.0,0.0,3.3905,3.5519,3.5519,3.5519,3.5519,3.5519,3.5519,3.5609,3.6088,3.6806,3.7554,3.8212,0.0,0.0,0.0,0.0,0.0,0.0,0.0,0.0,0.0,0.0,0.0,0.0,0.0,0.0,0.0,0.0,0.0,0.0,0.0,0.0,0.0,0.0,0.0,0.0,0.0,0.0,0.0,0.0,0.0,0.0,0.0,7.5138,7.4869,7.4869,7.4869,7.4869,7.4869,7.4869,7.4869,7.445,7.427,7.424,7.3821,7.3522,7.3283,7.3283,7.2744,7.1846,7.1427,7.1128,7.0889,7.0889,7.0889,7.0889,0.0,0.0,0.0,0.0,0.0,0.0,0.0,0.0,1.9811,0.0,0.0,0.0,0.0,2.1016,0.0,0.0,0.0,0.0,2.304,2.258,2.3217,2.5285,2.5511,2.7092,3.0281,3.1964,3.4248,3.7186,4.2484,4.5605,4.6891,4.382,4.1803,4.0576,3.6781,3.5038,3.4836,3.3135,3.2136,3.1609,3.0921,3.0696,0.0,0.0,0.0,0.0,0.0,0.0,0.0,0.0,3.4109,3.5519,3.5519,3.5519,3.5519,3.5519,3.534,3.522,3.5459,3.6148,3.7075,3.8123,0.0,0.0,0.0,0.0,0.0,0.0,0.0,0.0,0.0,0.0,0.0,0.0,0.0,0.0,0.0,0.0,0.0,0.0,0.0,0.0,0.0,0.0,0.0,0.0,0.0,0.0,0.0,0.0,0.0,0.0,0.0,0.0,7.4869,7.4869,7.4779,7.4569,7.4569,7.4569,7.454,7.3881,7.3582,7.3552,7.3103,7.2804,7.2595,7.2595,7.2176,7.1517,7.1068,7.0889,7.0889,7.0889,7.0889,7.0889,0.0,0.0,0.0,0.0,0.0,0.0,0.0,0.0,1.9811,1.9811,1.9811,0.0,0.0,0.0,0.0,0.0,0.0,0.0,2.304,2.3065,2.3591,2.4782,2.531,2.6892,2.9704,3.1361,3.3847,3.7186,4.1957,4.5004,4.6232,4.3599,4.1983,4.1235,3.8601,3.7275,3.6953,3.5581,3.4101,3.2593,3.2593,3.2593,3.2522,0.0,0.0,0.0,0.0,0.0,0.0,0.0,3.4677,3.5519,3.5519,3.5519,3.5519,3.5519,3.5011,3.4651,3.531,3.5519,3.5998,0.0,0.0,0.0,0.0,0.0,0.0,0.0,0.0,0.0,0.0,0.0,0.0,0.0,0.0,0.0,0.0,0.0,0.0,0.0,0.0,0.0,0.0,0.0,0.0,0.0,0.0,0.0,0.0,0.0,0.0,0.0,0.0,0.0,7.4869,7.4869,7.454,7.3881,7.3881,7.3881,7.3851,7.3223,7.2894,7.2894,7.2894,7.2505,7.1876,7.1876,7.1487,7.0889,7.0889,7.0889,7.0889,7.0889,7.0889,7.0889,0.0,0.0,0.0,0.0,0.0,0.0,0.0,0.0,2.0263,1.9861,2.0162,0.0,0.0,0.0,0.0,0.0,0.0,0.0,2.304,2.3065,2.3591,2.4782,2.4958,2.5988,2.7996,3.0407,3.3938,3.8792,4.1098,4.2374,4.245,4.1911,4.0816,3.926,3.896,3.8012,3.6576,3.5514,3.445,3.3533,3.2876,3.2593,3.2593,0.0,0.0,0.0,0.0,0.0,0.0,0.0,0.0,0.0,3.5519,3.5818,3.6118,3.5639,3.5699,3.5848,3.5579,0.0,0.0,0.0,0.0,0.0,0.0,0.0,0.0,0.0,0.0,0.0,0.0,0.0,0.0,0.0,0.0,0.0,0.0,0.0,0.0,0.0,0.0,0.0,0.0,0.0,0.0,0.0,0.0,0.0,0.0,0.0,0.0,0.0,0.0,0.0,7.3492,7.3492,7.3402,7.3193,7.2714,7.2744,7.3193,7.2505,7.2206,7.2176,7.1697,7.1368,7.1188,7.1188,7.1068,7.0859,7.041,7.026,7.0201,6.9722,6.9572,6.9572,0.0,0.0,0.0,0.0,0.0,0.0,2.104,2.1056,2.0865,2.0514,2.0765,2.0865,0.0,0.0,0.0,2.1769,2.2121,0.0,2.304,2.3065,2.3591,2.4782,2.5008,2.6013,2.7896,3.0206,3.2689,3.5208,3.8121,3.9476,3.9431,4.0617,4.0664,3.9619,4.0546,4.0038,3.8392,3.7234,3.6043,3.4923,3.4347,3.4139,3.4111,0.0,0.0,0.0,0.0,0.0,0.0,0.0,0.0,0.0,3.5519,3.5789,3.6028,3.5609,3.5579,3.5669,3.5549,0.0,0.0,0.0,0.0,0.0,0.0,0.0,0.0,0.0,0.0,0.0,0.0,0.0,0.0,0.0,0.0,0.0,0.0,0.0,0.0,0.0,0.0,0.0,0.0,0.0,0.0,0.0,0.0,0.0,0.0,0.0,0.0,0.0,0.0,0.0,7.2924,7.2924,7.2774,7.2505,7.2086,7.1966,7.2086,7.1697,7.1487,7.1457,7.1068,7.0769,7.053,7.053,7.038,7.0111,6.8891,6.903,6.9415,6.8299,6.8436,6.9004,0.0,0.0,2.2432,2.1904,0.0,0.0,2.1852,2.1655,2.1543,2.1493,2.1518,2.1543,0.0,0.0,0.0,2.2272,2.2347,2.2598,2.304,2.3065,2.3591,2.4782,2.541,2.6691,2.8725,3.0306,3.0331,2.8775,3.3822,3.6388,3.6605,3.9469,4.0949,4.1265,4.2701,4.2521,4.1115,3.9798,3.8123,3.6387,3.6387,3.6387,3.6261,3.468,0.0,0.0,0.0,0.0,0.0,0.0,0.0,0.0,3.5489,3.5549,3.5579,3.5519,3.51,3.4831,0.0,0.0,0.0,0.0,0.0,0.0,0.0,0.0,0.0,0.0,0.0,0.0,0.0,0.0,0.0,0.0,0.0,0.0,0.0,0.0,0.0,0.0,0.0,0.0,0.0,0.0,0.0,0.0,0.0,0.0,0.0,0.0,0.0,0.0,0.0,0.0,7.2654,7.2714,7.2385,0.0,7.1697,7.1398,7.0829,7.0889,7.0859,7.0799,7.0769,7.041,6.9901,6.9901,6.9415,6.8564,6.684,6.71,6.819,6.6491,6.6984,6.8452,0.0,0.0,2.2899,2.3625,0.0,0.0,2.2959,2.2475,2.197,2.1543,2.187,2.197,2.1543,2.187,0.0,2.2297,2.2698,2.294,2.3065,2.3065,2.3591,2.4782,2.6163,2.7143,2.762,2.8423,2.8423,2.7645,3.1681,3.3369,3.2989,3.794,4.0041,3.9948,4.2282,4.2043,3.9738,3.8422,3.7015,3.5729,3.5729,3.5729,3.5699,3.5323,3.4783,0.0,0.0,0.0,0.0,0.0,0.0,0.0,3.534,3.5848,3.6178,3.5639,3.5759,3.6297,0.0,0.0,0.0,0.0,0.0,0.0,0.0,0.0,0.0,0.0,0.0,0.0,0.0,0.0,0.0,0.0,0.0,0.0,0.0,0.0,0.0,0.0,0.0,0.0,0.0,0.0,0.0,0.0,0.0,0.0,0.0,0.0,0.0,0.0,0.0,7.1637,7.062,7.1098,7.1009,0.0,7.038,7.032,7.0201,7.0679,7.0649,7.0141,6.9632,6.9333,6.9213,6.9213,6.8299,6.6738,6.5926,6.4879,6.3891,6.2984,6.3431,6.459,0.0,0.0,0.0,0.0,0.0,0.0,0.0,0.0,2.3555,2.2928,2.3103,2.2981,2.2355,2.2548,0.0,0.0,2.2915,2.3065,2.3065,2.3065,2.3753,2.5134,2.654,2.7394,2.767,2.7971,2.7846,2.7293,2.9474,3.0734,3.126,3.6107,3.8477,3.8885,4.19,4.1863,3.9379,3.8661,3.7434,3.5968,3.5968,3.5968,3.5938,3.5639,3.4891,3.3993,3.3993,0.0,0.0,0.0,0.0,0.0,0.0,0.0,3.5938,3.5609,3.5759,3.6237,0.0,0.0,0.0,0.0,0.0,0.0,0.0,0.0,0.0,0.0,0.0,0.0,0.0,0.0,0.0,0.0,0.0,0.0,0.0,0.0,0.0,0.0,0.0,0.0,0.0,0.0,0.0,0.0,0.0,0.0,0.0,0.0,0.0,0.0,7.0679,7.0171,6.9512,6.9842,6.9842,6.9512,6.9512,6.9333,6.9034,6.9692,6.9812,6.9482,6.9153,6.8824,6.8495,6.8495,6.7783,6.6481,6.4365,6.3432,6.3111,6.1057,6.1075,6.2208,0.0,0.0,0.0,0.0,0.0,0.0,0.0,0.0,0.0,2.4394,2.4385,2.4119,2.321,2.3165,2.3276,0.0,0.0,0.0,2.3215,2.3276,2.3979,2.5536,2.659,2.7444,2.8097,2.8097,2.7871,2.7419,2.7971,2.9065,3.0765,3.4788,3.707,3.8011,4.1448,4.1654,3.9409,3.917,3.8063,3.6477,3.6357,3.6327,3.6267,3.5699,3.4741,3.3664,3.3664,3.3604,3.3604,3.4262,0.0,0.0,0.0,0.0,3.5519,3.5519,3.5519,3.5699,0.0,0.0,0.0,0.0,0.0,0.0,0.0,0.0,0.0,0.0,0.0,0.0,0.0,0.0,0.0,0.0,0.0,0.0,0.0,0.0,0.0,0.0,0.0,0.0,0.0,0.0,0.0,0.0,0.0,0.0,0.0,0.0,7.029,6.9662,6.9123,6.8704,6.8495,6.8704,6.8764,6.8645,6.8645,6.8286,6.7657,6.8106,6.8375,6.8465,6.8375,6.7986,6.7478,6.7597,6.7115,6.5872,6.2868,6.2152,6.2642,5.9525,5.8986,6.0011,0.0,0.0,0.0,0.0,0.0,0.0,0.0,0.0,0.0,0.0,2.4728,2.4502,2.3236,2.3577,2.3879,2.3879,2.3427,2.3351,2.3853,0.0,0.0,2.5536,2.6214,2.7042,2.8072,2.8097,2.8072,2.7996,2.8549,2.9907,3.208,3.5173,3.6767,3.7271,4.0321,4.0816,3.9349,3.8182,3.7225,3.6447,3.5878,3.5639,3.5639,3.5549,3.5011,3.4352,3.4352,3.3963,3.3604,3.4262,3.4532,0.0,0.0,0.0,3.5519,3.5519,3.5519,0.0,0.0,0.0,0.0,0.0,0.0,0.0,0.0,0.0,0.0,0.0,0.0,0.0,0.0,0.0,0.0,0.0,0.0,0.0,0.0,0.0,0.0,0.0,0.0,0.0,0.0,0.0,0.0,0.0,0.0,0.0,0.0,6.9303,6.8944,6.8256,6.8166,6.7567,6.643,6.7537,6.7837,6.7268,6.7268,6.6909,6.6251,6.5772,6.5862,6.637,6.5802,6.5503,6.5473,6.6041,6.4951,6.2909,6.2005,6.0157,5.7861,5.638,5.6313,5.701,0.0,0.0,0.0,0.0,0.0,0.0,0.0,0.0,0.0,0.0,0.0,2.639,2.4918,2.5003,2.4869,2.4092,2.3778,2.3602,2.3527,2.3527,2.4004,2.5109,2.5686,2.664,2.8072,2.8097,2.8247,2.8574,2.88,3.0061,3.2368,3.5228,3.7155,3.8214,4.0025,4.0307,3.932,3.7973,3.7045,3.6417,3.5759,3.5519,3.5519,3.5519,3.507,3.4532,3.4921,3.4622,3.4143,3.4831,3.504,3.51,3.54,0.0,0.0,0.0,0.0,0.0,0.0,0.0,0.0,0.0,0.0,0.0,0.0,0.0,0.0,0.0,0.0,0.0,0.0,0.0,0.0,0.0,0.0,0.0,0.0,0.0,0.0,0.0,0.0,0.0,0.0,0.0,0.0,0.0,0.0,0.0,6.8435,6.7717,6.7178,6.6879,6.652,6.6041,6.5473,6.6041,6.6191,6.5892,6.5892,6.5533,6.4874,6.4575,6.4814,6.5443,6.5144,6.5024,6.5054,6.5353,6.4239,6.2342,6.1035,5.9209,5.7104,5.5496,5.4949,5.4928,0.0,0.0,0.0,0.0,0.0,0.0,0.0,0.0,0.0,0.0,0.0,2.7882,2.6519,0.0,0.0,0.0,2.4053,2.3602,2.309,2.3065,2.3591,2.4782,2.5184,2.6239,2.8072,2.8097,2.8448,2.9151,2.9151,3.0649,3.3684,3.5825,3.8274,4.0871,4.105,4.0606,3.9619,3.8601,3.7913,3.7375,3.6207,3.5759,3.5729,3.5579,3.519,3.4831,3.5519,3.5429,3.51,3.5759,3.5878,3.5759,3.5759,3.5639,0.0,0.0,0.0,0.0,0.0,0.0,0.0,0.0,0.0,0.0,0.0,0.0,0.0,0.0,0.0,0.0,0.0,0.0,0.0,0.0,0.0,0.0,0.0,0.0,0.0,0.0,0.0,0.0,0.0,0.0,0.0,0.0,0.0,0.0,6.7238,6.6281,6.5682,6.5503,6.5024,6.4695,6.4545,6.4695,6.4844,6.5024,6.4844,6.4485,6.4006,6.3445,6.3387,6.3862,6.3862,6.3862,6.3891,6.3528,6.2587,6.12,5.969,5.8186,5.663,5.4962,5.3984,5.3507,0.0,0.0,0.0,0.0,0.0,0.0,0.0,0.0,0.0,0.0,0.0,2.8025,2.7329,2.5975,2.5414,2.5915,2.4269,2.3115,2.3065,2.3065,2.3591,2.4782,2.4858,0.0,2.8047,2.8097,2.8649,2.9754,2.9754,3.228,3.7251,3.7414,4.0474,4.5848,4.3937,4.2132,4.0337,4.0277,4.0217,3.9978,3.7434,3.6447,3.6357,3.5729,3.5489,3.5549,3.6207,3.6417,3.6477,3.7105,3.6926,3.6447,3.6447,3.5998,3.5519,0.0,0.0,0.0,0.0,0.0,0.0,0.0,0.0,0.0,0.0,0.0,0.0,0.0,0.0,0.0,0.0,0.0,0.0,0.0,0.0,0.0,0.0,0.0,0.0,0.0,0.0,0.0,0.0,0.0,0.0,0.0,0.0,0.0,6.5203,6.5114,6.4784,6.4126,6.4066,6.3767,6.3169,6.3767,6.4366,6.5024,6.4366,6.4036,6.3977,6.1698,6.0687,6.0716,6.0716,6.0716,6.0624,5.9711,5.8868,5.8198,5.7678,5.6636,5.5313,5.4199,5.3406,5.298,0.0,0.0,0.0,0.0,0.0,0.0,0.0,0.0,0.0,0.0,0.0,0.0,0.0,2.8782,2.8135,2.7482,2.5959,2.4648,2.3703,2.4141,2.478,2.5621,2.6083,2.6956,2.8317,2.8731,2.9036,2.9227,2.9603,3.1448,3.4787,3.6263,3.8808,4.2291,4.3031,4.297,4.2192,4.0487,3.9499,3.896,3.7195,3.6477,3.6417,3.5759,3.5519,0.0,0.0,0.0,0.0,3.6746,3.6926,3.7075,3.7075,3.6656,3.6058,3.5639,3.5519,3.5998,0.0,0.0,0.0,0.0,0.0,0.0,0.0,0.0,0.0,0.0,0.0,0.0,0.0,0.0,0.0,0.0,0.0,0.0,0.0,0.0,0.0,0.0,0.0,0.0,0.0,0.0,0.0,0.0,0.0,0.0,6.4366,6.4006,6.3647,6.3408,6.3408,6.3288,6.3079,6.3288,6.3528,6.3767,6.3528,6.3408,6.3408,6.1346,6.048,6.0359,5.8202,5.7823,5.8884,5.8479,5.756,5.6363,5.616,5.5174,5.37,5.3381,5.308,5.2929,0.0,0.0,0.0,3.0582,0.0,3.0731,3.1362,3.1482,3.1482,3.1482,0.0,0.0,0.0,0.0,2.9197,2.7996,2.7067,2.6142,2.5162,2.5595,2.6163,2.6754,2.727,2.8009,2.8933,2.9204,2.9386,2.9349,2.9656,3.1112,3.354,3.5421,3.7692,4.0379,4.1952,4.306,4.3569,0.0,0.0,3.9858,3.7674,3.7195,3.7734,3.7075,0.0,0.0,0.0,0.0,0.0,3.757,3.7496,3.7503,3.7986,3.7556,3.6716,3.6267,3.5998,3.6148,3.7644,0.0,0.0,0.0,0.0,0.0,0.0,0.0,0.0,0.0,0.0,0.0,0.0,0.0,0.0,0.0,0.0,0.0,0.0,0.0,0.0,0.0,0.0,0.0,0.0,0.0,0.0,0.0,0.0,0.0,6.3707,6.3288,6.3079,6.3079,6.3079,6.3079,6.3079,6.3079,6.3079,6.3079,6.3079,6.3079,6.3079,6.1258,6.0237,5.9475,5.6699,5.6076,5.7085,5.6466,5.5578,5.4541,5.4541,5.392,5.2929,5.2929,5.2929,5.2929,3.0342,2.9475,2.9235,3.1123,3.0971,3.0761,3.145,3.1482,3.1482,3.1511,0.0,0.0,0.0,0.0,0.0,2.7499,2.744,2.744,2.7412,2.7412,2.769,2.8241,2.833,2.8823,2.9821,2.9644,2.9742,3.0178,2.9935,3.1267,3.4073,3.5041,3.7438,4.0764,4.1211,4.2402,4.4167,0.0,4.3269,4.294,0.0,3.8661,4.0337,0.0,0.0,0.0,4.0157,4.0008,0.0,3.9739,3.8825,3.785,3.9247,3.8733,3.7464,3.7434,3.6985,3.6656,0.0,0.0,0.0,0.0,0.0,0.0,0.0,0.0,0.0,0.0,0.0,0.0,0.0,0.0,0.0,0.0,0.0,0.0,0.0,0.0,0.0,0.0,0.0,0.0,0.0,0.0,0.0,0.0,0.0,6.3707,6.3109,6.3079,6.3079,6.3049,6.3049,6.3049,6.3049,6.3049,6.3049,6.3079,6.3079,6.3079,6.3079,6.1258,5.9626,5.7878,5.6206,5.5419,5.5181,5.3538,5.2929,5.2929,5.2929,5.2929,5.2929,5.2929,5.2929,5.2929,2.9175,2.9235,2.9624,3.0612,3.1031,3.148,3.2138,3.1839,3.1869,0.0,0.0,0.0,3.2886,3.2437,3.1748,3.0888,3.0825,3.0375,2.9422,2.9803,3.0225,3.0487,3.0569,3.0858,3.1532,3.1443,3.1034,3.0349,3.0634,3.1206,3.2057,3.3512,3.5536,3.811,3.9906,4.0965,4.1474,4.1294,0.0,0.0,3.9679,3.9768,0.0,0.0,0.0,0.0,0.0,4.0876,0.0,0.0,4.1944,4.1832,4.0783,4.0189,3.9542,3.788,3.7285,3.7195,3.7375,0.0,0.0,0.0,0.0,0.0,0.0,0.0,0.0,0.0,0.0,0.0,0.0,0.0,0.0,0.0,0.0,0.0,0.0,0.0,0.0,0.0,0.0,0.0,0.0,0.0,0.0,0.0,6.3588,6.3258,6.3079,6.3079,6.2869,6.2391,6.2361,6.2361,6.2361,6.2361,6.26,6.3079,6.3079,6.3079,6.3079,6.1258,5.9626,5.7878,5.6206,5.4675,5.3563,5.3042,5.2929,5.2929,5.2929,5.2929,5.2929,5.2929,5.2929,5.2929,2.9834,2.9894,3.0163,3.0821,3.148,3.2078,3.2467,3.2407,3.2617,0.0,0.0,0.0,3.3455,3.3484,3.33,3.2805,3.2742,3.2378,3.1559,3.1907,3.2185,3.2247,3.2287,3.2436,3.2742,3.2622,3.2188,3.1556,3.1342,3.1389,3.1829,3.2736,3.4084,3.5812,3.7849,3.8901,3.917,0.0,0.0,0.0,4.0247,0.0,0.0,4.2073,4.2102,0.0,0.0,0.0,4.471,4.4496,4.4383,0.0,0.0,0.0,4.0771,3.9474,3.8871,3.8661,3.8661,3.8452,3.8452,0.0,0.0,0.0,4.0965,4.288,0.0,0.0,0.0,0.0,0.0,0.0,0.0,0.0,0.0,0.0,0.0,0.0,0.0,0.0,0.0,0.0,0.0,0.0,0.0,0.0,6.3288,6.3079,6.3079,6.281,6.248,6.2121,6.1822,6.1672,6.1672,6.1672,6.1882,6.2271,6.254,6.266,6.269,6.191,6.0629,5.898,5.7213,5.5578,5.392,5.3179,5.2929,5.2929,5.2929,5.2929,5.2929,5.2929,5.2929,5.2929,0.0,3.0881,3.0702,3.1243,3.2018,3.2557,3.2706,3.3155,3.3574,0.0,3.3814,3.3814,3.3814,3.3814,3.3844,3.3933,3.3814,3.3784,3.3933,3.3784,3.3754,3.3814,3.3694,3.3634,3.3724,3.341,3.3244,3.3168,3.2061,3.1947,3.2735,3.2818,3.3339,3.439,3.5993,3.6956,3.7464,0.0,0.0,4.1025,4.0726,4.2132,0.0,0.0,4.5454,0.0,4.6659,4.7601,4.8153,4.7359,4.6551,0.0,0.0,0.0,4.197,4.1867,4.134,4.0755,4.0606,4.0187,4.0127,4.1743,0.0,0.0,4.1534,4.1354,4.1384,0.0,0.0,0.0,0.0,0.0,0.0,0.0,0.0,0.0,0.0,0.0,0.0,0.0,0.0,0.0,0.0,0.0,6.3079,6.3079,6.3019,6.2959,6.2959,6.2331,6.1942,6.1882,6.1313,6.1014,6.1014,6.1014,6.1044,6.1134,6.1792,6.2091,6.2121,6.278,6.2028,6.0116,5.8634,5.6984,5.5049,5.3563,5.2929,5.2929,5.2929,5.2929,5.2929,5.2929,5.2929,5.2929,3.0043,3.0253,3.0552,3.0672,3.1719,3.2856,3.3933,3.3754,3.4083,3.5699,3.5908,3.5908,3.5908,3.5908,3.6118,3.6596,3.5699,3.5549,3.6567,3.5699,3.534,3.5878,3.4861,3.4532,3.51,3.4554,3.4103,3.384,3.3545,3.3533,3.3739,3.4254,3.5096,3.603,3.7425,3.7793,3.7494,0.0,0.0,3.914,4.1175,0.0,4.5185,4.5873,4.6441,4.698,4.7748,4.8437,4.9088,0.0,4.9763,4.9757,0.0,0.0,0.0,4.4486,4.3692,4.2947,4.2182,0.0,0.0,0.0,0.0,0.0,4.0247,4.1444,4.294,0.0,0.0,0.0,0.0,0.0,0.0,0.0,0.0,0.0,0.0,0.0,0.0,0.0,0.0,0.0,0.0,0.0,6.3079,6.3079,6.26,6.2301,6.2301,6.1672,6.1044,6.0505,6.0356,6.0296,6.0296,6.0296,6.0565,6.1134,6.1792,6.2091,6.2121,6.278,6.1407,5.8509,5.8131,5.6233,5.3291,5.3042,5.2929,5.2929,5.2929,5.2929,5.2929,5.2929,5.2929,5.2929,3.0672,3.1061,3.1509,3.1509,3.2347,3.3335,3.4322,3.4771,3.534,3.6357,3.7045,3.7434,3.7434,3.7734,3.7943,3.7913,3.7614,3.7434,3.7404,3.7135,3.6956,3.6956,3.5998,3.5639,3.5998,3.5669,3.5264,3.4773,3.4564,3.4777,3.5242,3.5056,3.5575,3.6537,3.7823,3.8033,3.7524,0.0,3.9888,4.0068,4.2043,0.0,4.4608,4.7145,4.8553,4.9426,5.1194,5.2327,5.299,5.2964,5.2605,0.0,0.0,4.9013,4.7793,0.0,4.588,4.5125,0.0,0.0,0.0,4.2521,0.0,0.0,0.0,4.0935,0.0,0.0,0.0,0.0,0.0,0.0,0.0,0.0,0.0,0.0,0.0,0.0,0.0,0.0,0.0,0.0,0.0,0.0,6.1732,6.2061,6.1792,6.1613,6.1613,6.0984,6.0296,5.9608,5.9279,5.9099,5.9099,5.9099,5.9458,6.0116,6.0775,6.1104,6.1104,6.1019,5.9943,5.8203,5.6593,5.5123,5.3618,5.2886,5.2678,5.2929,5.2929,5.2929,5.2929,5.2929,5.2929,5.2929,3.1661,3.2048,3.2527,3.2527,3.3155,3.3903,3.4562,3.5699,3.6567,3.6806,3.806,3.8822,3.8822,3.9234,3.9525,3.9534,3.9282,3.8962,3.8681,3.8521,3.828,3.7888,3.7173,3.6783,3.6712,3.6663,3.6417,3.5878,3.5556,3.5889,3.6656,3.6084,3.627,3.7105,3.8123,3.8452,3.8272,0.0,0.0,4.1324,0.0,4.3718,4.4128,4.845,5.0537,5.1621,5.455,5.6226,5.6982,5.6107,0.0,5.3678,5.2246,5.0988,0.0,0.0,0.0,0.0,0.0,0.0,0.0,0.0,0.0,4.2701,0.0,0.0,0.0,0.0,0.0,0.0,0.0,0.0,0.0,0.0,0.0,0.0,0.0,0.0,0.0,0.0,0.0,0.0,0.0,0.0,5.9548,6.0475,6.0176,6.0146,6.0505,5.9877,5.9249,5.874,5.8201,5.7932,5.7932,5.7932,5.8261,5.8919,5.9578,5.9967,6.0116,5.9158,5.849,5.799,5.5041,5.3892,5.4079,5.2724,5.2427,5.2929,5.2929,5.2929,5.2929,5.2929,5.2929,5.2929,3.1898,3.2048,3.2527,3.2527,3.3544,3.4592,3.528,3.5998,3.6896,3.8033,3.952,4.043,4.043,4.0067,4.0833,4.3317,0.0,0.0,4.2962,0.0,3.8785,3.9308,3.8599,3.7926,3.7494,3.7358,3.7255,3.7195,3.7118,3.7216,3.7315,3.837,3.8937,3.908,3.923,3.9918,0.0,0.0,4.0457,0.0,4.3838,4.5065,0.0,4.9343,5.1219,5.2317,5.5528,5.7362,5.8091,0.0,5.6229,5.625,0.0,5.3685,0.0,0.0,0.0,0.0,0.0,0.0,0.0,0.0,4.68,0.0,0.0,0.0,0.0,0.0,0.0,0.0,0.0,0.0,0.0,0.0,0.0,0.0,0.0,0.0,0.0,0.0,0.0,0.0,0.0,0.0,0.0,5.8321,5.6855,5.6615,5.8381,5.7812,5.7393,5.7334,5.7244,5.7214,5.7214,5.7214,5.7543,5.8231,5.889,5.9518,6.0116,5.9158,5.7871,5.6426,5.4566,5.3296,5.2346,5.2236,5.2427,5.2929,5.2929,5.2929,5.2929,5.2929,5.2929,5.2929,3.2916,3.3215,3.3664,3.3664,3.4113,3.4711,3.54,3.7491,3.9337,4.0021,4.2395,4.4039,4.4351,0.0,0.0,0.0,0.0,0.0,0.0,0.0,4.1683,4.2857,4.1794,4.0836,4.0075,3.9948,3.9464,3.8571,3.896,3.914,3.914,3.9738,3.9978,4.0008,4.0397,0.0,4.0337,0.0,0.0,0.0,0.0,0.0,0.0,5.0372,5.3905,5.6887,5.821,5.9305,5.9901,0.0,5.7917,0.0,0.0,0.0,0.0,0.0,0.0,0.0,0.0,0.0,0.0,0.0,0.0,0.0,0.0,0.0,4.5065,0.0,0.0,0.0,0.0,0.0,0.0,0.0,0.0,0.0,0.0,0.0,0.0,0.0,0.0,0.0,0.0,0.0,0.0,0.0,0.0,5.3832,5.464,5.5149,5.5418,5.5418,5.5777,5.5987,5.5987,5.6376,5.6885,5.7543,5.8201,5.868,5.8871,5.6996,5.5849,5.5039,5.2476,5.1198,5.1147,5.1498,5.195,5.2477,5.2804,5.2929,5.2929,5.2929,5.2929,5.2929,3.4759,3.4544,3.4472,3.4472,3.4622,3.51,3.6148,3.9045,4.1457,4.2288,4.4858,0.0,4.8294,4.8877,0.0,0.0,0.0,4.7163,0.0,0.0,4.4397,4.4689,0.0,0.0,4.2537,4.2403,4.1842,4.0595,4.0664,4.0666,4.0666,4.0846,4.0935,4.0965,4.1444,4.1235,4.0636,0.0,0.0,4.312,4.5603,4.6991,4.8131,5.1579,5.5883,6.0148,6.0351,6.1061,6.1704,6.0385,6.008,0.0,5.937,0.0,0.0,0.0,0.0,0.0,5.305,0.0,0.0,0.0,0.0,0.0,0.0,0.0,0.0,0.0,0.0,0.0,0.0,0.0,4.3808,4.3629,0.0,0.0,0.0,0.0,0.0,0.0,0.0,0.0,0.0,0.0,0.0,0.0,0.0,0.0,5.1349,5.2486,5.3294,5.3653,5.4281,5.464,5.464,5.5299,5.5957,5.6585,5.7274,5.7693,5.7736,5.5253,5.4138,5.3901,5.0965,4.9916,5.0469,5.1046,5.1599,5.2151,5.2703,5.2929,5.2929,5.2929,5.2929,5.2929,3.77,3.5952,3.4472,3.4472,3.504,3.6118,3.8003,4.0261,4.2497,0.0,0.0,0.0,0.0,0.0,0.0,0.0,0.0,5.0221,5.0711,0.0,4.6157,0.0,0.0,0.0,0.0,4.4008,4.378,4.378,4.2122,4.1354,4.1354,4.2013,4.2312,4.2312,4.2312,4.2671,4.324,4.3988,4.4257,4.4436,4.6471,4.8912,5.1517,0.0,5.6389,6.0216,6.0994,0.0,0.0,6.255,6.2753,0.0,0.0,0.0,0.0,0.0,0.0,0.0,0.0,0.0,0.0,5.2763,0.0,0.0,0.0,0.0,4.7638,0.0,0.0,0.0,0.0,4.5244,4.5035,4.4377,4.4287,0.0,0.0,0.0,0.0,0.0,0.0,0.0,0.0,0.0,0.0,0.0,0.0,0.0,4.9194,5.0002,5.096,5.2217,5.2905,5.3234,5.3234,5.3922,5.461,5.5269,5.5927,5.6555,5.7049,5.4573,5.3475,5.3268,5.0658,4.9916,5.0469,5.1046,5.1599,5.2151,5.2703,5.2929,5.2929,5.2929,5.2929,5.2929,3.7706,3.6808,3.6045,3.6591,0.0,3.7225,4.0178,4.2636,0.0,0.0,0.0,0.0,0.0,0.0,5.9336,0.0,0.0,5.5845,5.5526,5.2504,0.0,0.0,0.0,4.9293,0.0,0.0,4.7484,4.6907,4.5241,4.4403,4.4327,4.3482,4.3,4.3,4.2551,4.2491,0.0,0.0,0.0,0.0,0.0,5.0434,5.36,0.0,0.0,5.9471,6.0216,6.1467,0.0,6.3057,6.2956,6.2821,6.3057,6.1941,6.0444,6.0102,6.0088,0.0,0.0,0.0,6.1776,5.7486,0.0,0.0,0.0,0.0,0.0,0.0,0.0,0.0,0.0,4.5603,4.5065,4.4436,4.4317,4.4077,0.0,0.0,0.0,0.0,0.0,0.0,0.0,0.0,0.0,0.0,0.0,0.0,0.0,4.68,4.8446,5.0212,5.1319,5.2097,5.2516,5.3204,5.3862,5.4551,5.5209,5.5867,5.6526,5.5435,5.44,5.3358,5.1848,5.0665,4.9916,5.0469,5.082,5.1071,5.2026,5.2377,5.2427,5.2804,5.2929,5.2929,3.859,3.8212,3.7725,3.7445,0.0,0.0,0.0,0.0,0.0,0.0,5.5455,0.0,6.233,0.0,6.3971,0.0,6.2821,6.052,5.8423,5.6528,0.0,5.3551,5.3315,0.0,0.0,0.0,4.9768,4.894,4.7215,4.6379,4.6347,4.4665,4.3849,4.3849,4.3277,4.291,0.0,0.0,4.4885,0.0,0.0,5.0731,0.0,0.0,5.6062,0.0,0.0,6.1434,6.326,6.3734,6.3937,6.4038,6.4546,6.3666,6.2415,6.2178,6.2076,6.1975,6.1434,6.2719,0.0,0.0,5.9388,0.0,5.4929,0.0,0.0,0.0,0.0,0.0,0.0,4.677,4.5873,4.5454,4.4975,4.4347,0.0,4.297,0.0,0.0,0.0,0.0,0.0,0.0,0.0,0.0,0.0,0.0,0.0,0.0,4.6621,4.8835,5.0182,5.1199,5.1858,5.2516,5.3054,5.3503,5.4401,5.5059,5.5508,5.5255,5.4205,5.2752,5.191,5.0732,4.9364,5.0117,5.0419,5.0519,5.1674,5.2101,5.2176,5.2729,5.2929,5.2929,4.0324,4.0207,3.9503,3.7338,3.8589,0.0,0.0,0.0,5.2004,0.0,5.7968,6.1839,6.5493,6.5933,6.6542,6.7963,6.6745,0.0,5.9742,6.0757,0.0,0.0,5.5953,5.5987,5.3822,0.0,0.0,0.0,4.8356,4.7501,4.7469,4.5677,4.4843,4.4874,4.4497,0.0,4.3528,4.5424,4.5903,4.562,4.8019,5.0039,5.188,5.3639,0.0,6.2178,6.0655,6.1975,6.4444,6.4546,6.5527,6.6711,6.6779,6.5831,6.4512,6.3835,6.3632,6.3328,6.1907,6.2584,6.3328,6.1839,0.0,0.0,0.0,0.0,5.4844,0.0,0.0,0.0,0.0,0.0,4.7309,4.7219,4.6112,4.4825,4.3599,4.3389,0.0,0.0,0.0,0.0,0.0,0.0,0.0,0.0,0.0,0.0,0.0,0.0,0.0,4.8117,4.9494,5.0511,5.1199,5.1828,5.2187,5.2247,5.3533,5.4192,5.4212,5.3896,5.3015,5.1594,5.1162,5.0162,4.8862,4.9916,5.0343,5.0494,5.1599,5.2051,5.2176,5.2729,5.2929,5.2929,4.1639,4.1744,4.1683,4.1629,4.2028,4.326,0.0,0.0,0.0,0.0,6.2358,6.6102,6.8741,6.9519,7.0026,7.0398,6.9586,0.0,0.0,0.0,0.0,6.1061,6.0419,5.9336,5.7645,5.6078,0.0,5.3345,5.1111,4.996,4.9927,4.6961,4.5978,4.657,4.4965,0.0,4.4481,4.5242,4.6191,4.7373,4.9804,5.2538,0.0,0.0,5.8706,6.2178,6.0655,6.0994,6.2415,6.4038,6.485,6.5358,6.6474,6.617,6.5358,6.5189,6.5121,6.5053,6.4647,6.5256,6.5595,6.414,6.3168,6.2051,0.0,0.0,0.0,0.0,0.0,0.0,0.0,0.0,0.0,4.6052,4.5125,4.4616,4.4766,0.0,0.0,0.0,0.0,0.0,0.0,0.0,0.0,0.0,0.0,0.0,0.0,0.0,0.0,4.6741,4.8566,5.0062,5.1199,5.1379,5.1977,5.2935,5.3264,5.3982,5.497,5.4206,5.3096,5.1594,5.0853,4.98,4.8786,4.9088,4.9439,4.9866,5.0569,5.1373,5.2176,5.2729,5.2929,5.2929,4.2706,4.3597,4.4582,4.559,0.0,0.0,4.9027,0.0,0.0,5.9565,6.3734,0.0,6.8538,7.0263,7.1312,7.1312,7.0939,0.0,0.0,0.0,0.0,6.5019,6.3835,6.2212,6.0047,5.7915,0.0,5.4126,0.0,5.116,5.146,4.8842,4.7895,4.8285,4.6284,4.5507,0.0,4.6192,4.7423,4.9143,5.1282,0.0,0.0,5.6438,5.8321,6.0385,6.0182,6.1028,6.2448,6.37,6.4546,6.5222,6.6068,6.6271,6.617,6.617,6.617,6.617,6.617,6.6474,6.6609,6.5764,6.5256,6.458,6.3091,6.2448,6.1587,0.0,0.0,0.0,0.0,0.0,0.0,4.6137,4.5424,4.5214,0.0,0.0,0.0,0.0,0.0,0.0,0.0,0.0,0.0,0.0,0.0,0.0,0.0,0.0,0.0,4.5813,4.8356,5.0032,5.078,5.1648,5.1839,5.1473,5.1964,5.2281,5.2468,5.2487,5.1683,5.0276,4.994,4.9256,4.841,4.8661,4.9113,4.9665,5.0469,5.1473,5.2503,5.2804,5.2929,5.2929,4.3978,4.5737,4.7631,4.8917,0.0,0.0,0.0,5.4888,0.0,6.0622,0.0,6.6677,6.732,6.9823,7.1447,0.0,0.0,7.0601,6.8605,6.9654,6.9451,6.7489,6.6677,6.4952,6.2076,5.8998,0.0,0.0,0.0,5.1826,5.2435,5.0724,5.0017,5.0017,4.8115,0.0,0.0,4.7746,4.8922,0.0,5.245,5.3643,5.4626,5.6443,5.7543,5.8355,5.9742,6.1467,6.3125,6.3531,6.4512,6.5561,6.5764,6.6271,6.6812,6.6812,6.6812,6.6812,6.6812,6.688,6.6948,6.6948,6.7015,6.6745,6.5358,6.4287,6.3045,6.1141,5.8976,0.0,0.0,0.0,0.0,4.6911,0.0,0.0,0.0,0.0,0.0,0.0,0.0,0.0,0.0,0.0,0.0,0.0,0.0,0.0,0.0,0.0,0.0,0.0,4.8297,0.0,5.0481,0.0,5.1621,4.9635,5.0284,5.0077,4.9055,4.9886,4.9653,4.8558,4.8878,4.8549,4.7958,4.8535,4.9113,4.9715,5.0845,5.1875,5.2729,5.2879,5.2929,5.2929,0.0,0.0,0.0,0.0,0.0,5.6727,0.0,6.112,6.3666,6.5425,6.8368,0.0,7.05,7.1548,7.2225,7.2225,7.2225,0.0,0.0,0.0,0.0,7.0534,6.9789,6.8301,6.5899,6.2347,5.9404,0.0,5.4431,5.3179,5.3281,5.1489,5.1123,5.1799,4.9815,0.0,4.8126,4.8795,0.0,5.1021,5.3107,5.4882,5.6516,5.8045,5.9066,5.9844,6.0757,6.0926,6.1095,6.3565,6.458,6.5019,6.6237,6.6711,6.6812,6.6812,6.6812,6.6812,6.6812,6.7252,6.7692,6.7692,6.8199,6.847,6.7523,6.715,6.6742,6.5798,6.2759,5.9864,5.826,0.0,0.0,0.0,0.0,0.0,0.0,0.0,0.0,0.0,0.0,0.0,0.0,0.0,0.0,0.0,0.0,0.0,0.0,0.0,0.0,0.0,0.0,0.0,0.0,0.0,0.0,5.1568,4.9606,4.9014,4.9663,4.87,4.8311,4.8442,4.7795,4.7652,4.7958,4.8535,4.9113,4.9715,5.0845,5.1398,5.1674,5.2578,5.2929,5.2929,0.0,0.0,0.0,0.0,0.0,0.0,0.0,6.5797,0.0,6.6339,6.7827,6.8977,6.8977,7.1041,7.2394,7.2394,7.2732,7.2969,7.2969,7.2293,7.1887,7.1887,7.1176,0.0,6.7421,6.3768,6.0757,5.8457,5.5141,5.3518,5.3484,5.2639,5.2471,5.2842,5.0999,4.9961,0.0,0.0,0.0,5.2399,5.4238,5.5895,5.7476,5.8592,5.9471,6.0216,6.1028,6.1298,6.1569,6.3429,6.4275,6.4783,6.5865,6.6508,6.6812,6.6812,6.6812,6.6812,6.6812,6.7083,6.7421,6.7793,6.8199,6.8368,6.7996,6.7895,6.7315,6.5246,6.3563,6.1407,5.8078,5.3284,0.0,0.0,0.0,0.0,0.0,0.0,0.0,0.0,0.0,0.0,0.0,0.0,0.0,0.0,0.0,0.0,0.0,0.0,0.0,0.0,0.0,0.0,0.0,0.0,0.0,4.8393,4.7403,4.6999,4.7186,4.6757,4.6901,4.7324,4.6939,4.7154,4.7983,4.8837,4.9515,5.0117,5.0946,5.1448,5.18,5.2628,5.2929,5.2929,0.0,5.2807,0.0,0.0,6.0486,0.0,0.0,6.9011,6.9789,6.7421,6.7489,6.7895,6.8199,7.0872,7.2766,7.3071,7.3477,7.3781,7.395,7.3138,7.2563,7.2394,7.1853,7.0567,6.8436,6.4918,6.1907,0.0,5.5953,5.3957,5.3518,5.3518,5.3518,0.0,0.0,0.0,0.0,0.0,5.2397,5.3856,5.5344,5.6833,5.822,5.8964,5.981,6.0689,6.1501,6.2245,6.299,6.3734,6.4343,6.4952,6.5696,6.644,6.7049,6.7049,6.7151,6.732,6.732,6.7421,6.7658,6.8233,6.8504,6.8538,6.8233,6.8267,6.7389,6.4053,6.3182,6.1644,5.6931,5.3819,0.0,0.0,0.0,0.0,0.0,0.0,0.0,0.0,0.0,0.0,0.0,0.0,0.0,0.0,0.0,0.0,0.0,0.0,0.0,0.0,0.0,4.7786,4.6649,0.0,4.8243,0.0,4.5459,4.5175,4.4644,4.5221,4.5799,4.6326,4.6426,4.7104,4.8184,4.9188,4.9916,5.0469,5.1046,5.1624,5.2176,5.2729,5.2929,5.2929,0.0,0.0,0.0,0.0,0.0,0.0,0.0,6.9891,7.209,7.1819,7.1244,7.1379,7.2732,7.3172,7.3916,7.527,7.483,7.4796,7.5439,7.4153,7.3105,7.2428,7.2326,7.1582,6.9992,6.6948,6.3971,0.0,0.0,5.548,0.0,5.3518,5.3518,0.0,0.0,0.0,0.0,5.3618,5.4328,5.4634,5.6089,5.7577,5.8998,5.9708,6.0892,6.2279,6.3024,6.3768,6.4512,6.5256,6.5527,6.573,6.6474,6.7218,6.7793,6.7793,6.8301,6.8876,6.8876,6.935,6.9891,6.9958,7.05,7.0635,6.9282,6.9485,6.8964,6.542,6.2396,5.9594,5.6707,5.543,5.4012,0.0,0.0,0.0,0.0,0.0,0.0,0.0,0.0,0.0,0.0,0.0,0.0,0.0,0.0,0.0,0.0,0.0,0.0,4.2342,0.0,4.5883,4.8009,4.5915,0.0,4.68,4.4873,4.4206,4.4644,4.5221,4.5799,4.6326,4.6828,4.7682,4.8736,4.9339,4.9916,5.0469,5.1046,5.1624,5.2176,5.2729,5.2929,5.2929,0.0,0.0,0.0,0.0,0.0,0.0,0.0,7.1142,7.2563,7.3003,7.28,7.2834,7.3409,7.3883,7.4593,7.5608,7.5879,7.6115,7.6386,7.5405,7.4492,7.3747,7.2868,7.2124,7.1515,6.8538,6.5797,0.0,0.0,0.0,0.0,5.4566,0.0,0.0,0.0,5.2875,5.3078,5.3687,5.4702,5.6021,5.7036,5.8626,6.0452,6.1197,6.2144,6.3159,6.3903,6.4647,6.529,6.5595,6.5696,6.5831,6.6576,6.732,6.7895,6.7895,6.847,6.9113,6.9113,6.9316,6.9654,7.0094,6.9793,6.9461,6.968,6.8685,6.7066,6.4926,6.179,5.9017,5.7618,5.6795,5.5748,0.0,0.0,0.0,0.0,0.0,0.0,0.0,0.0,0.0,0.0,0.0,0.0,0.0,0.0,0.0,0.0,0.0,0.0,4.294,0.0,4.596,4.6965,4.5951,4.5523,4.5734,4.4479,4.4091,4.4644,4.5221,4.5799,4.6351,4.723,4.7857,4.8309,4.9213,4.9715,5.0017,5.0921,5.1423,5.1724,5.2603,5.2929,5.2929,6.3606,0.0,6.4884,0.0,6.8301,6.918,7.1312,7.2428,7.324,7.3747,7.4018,7.4153,7.4153,7.4627,7.5337,7.6284,7.6893,7.7232,7.7232,7.6487,7.5608,7.4661,7.3612,0.0,7.2428,7.0094,6.7692,6.5256,6.2448,0.0,5.707,0.0,0.0,0.0,5.3788,5.3822,5.4194,5.4837,5.5886,5.7205,5.8152,5.9776,6.167,6.2178,6.3125,6.4241,6.4749,6.5392,6.6,6.6,6.6,6.6136,6.688,6.7658,6.8301,6.8504,6.9113,6.9755,6.9755,6.9755,6.9891,7.0398,6.9803,6.9151,6.9535,6.8233,6.6445,6.4207,6.1255,5.8949,5.8501,5.8022,5.7214,0.0,0.0,0.0,0.0,0.0,0.0,0.0,4.4766,4.3988,4.3419,0.0,0.0,0.0,0.0,0.0,0.0,0.0,0.0,0.0,0.0,0.0,0.0,4.531,4.5016,4.4427,4.4117,4.4242,4.4644,4.5397,4.6024,4.6602,4.7506,4.8008,4.8234,4.9188,4.969,4.9941,5.0896,5.1373,5.1649,5.2578,5.2929,5.2929,6.896,6.8597,6.8571,7.0872,7.1853,7.2326,7.2394,7.3646,7.4593,7.4593,7.5236,7.5676,7.5676,7.5676,7.6284,7.7841,7.7976,7.7976,7.7976,7.7299,7.6217,0.0,0.0,7.3883,7.2428,7.165,6.9789,6.6779,0.0,6.1569,5.7814,0.0,5.4972,5.5716,5.6427,5.6359,5.5852,5.8017,5.8524,5.8017,5.9471,6.0994,6.2381,6.2381,6.3734,6.5662,6.5662,6.617,6.6812,6.6812,6.6812,6.6914,6.7658,6.8436,6.9214,6.9958,7.0703,7.1278,7.1278,7.1278,7.1312,7.1312,7.1312,7.068,6.8611,6.869,6.7949,6.3912,6.0989,5.9099,5.9099,5.9069,5.8441,5.6466,0.0,0.0,0.0,0.0,0.0,0.0,4.6292,4.5514,4.3569,0.0,0.0,0.0,0.0,0.0,0.0,0.0,0.0,4.3359,4.3364,0.0,4.4193,4.3526,4.3202,4.2986,4.4091,4.4618,4.4669,4.5799,4.6602,4.7154,4.7682,4.8234,4.8812,4.9364,4.9916,5.0469,5.1046,5.1599,5.2176,5.2729,5.2929,5.2929,6.9935,7.0119,7.0466,7.1176,7.1921,7.2394,7.2394,7.3646,7.4627,7.4627,7.5709,7.6521,7.6521,7.6521,7.713,0.0,7.8754,7.8754,0.0,7.8551,7.7739,7.6217,7.5642,7.4897,7.3916,7.2699,7.1109,6.9113,0.0,0.0,0.0,5.9742,5.8727,5.7983,5.822,5.8186,5.8051,5.9235,6.0216,6.1028,6.2042,6.3024,6.3937,6.4444,6.5087,6.5831,6.6846,6.7049,6.688,6.7387,6.7218,6.7049,6.8301,6.8876,6.9248,6.9958,7.0737,7.1312,7.1312,7.1312,7.1312,7.1312,7.0574,6.9976,7.018,6.869,6.623,6.3067,6.0987,5.9787,5.9787,5.9039,5.8082,5.6974,0.0,0.0,0.0,0.0,0.0,0.0,4.5903,4.5394,0.0,4.4855,0.0,0.0,0.0,0.0,0.0,0.0,0.0,0.0,4.5595,0.0,4.6281,4.5503,4.5099,4.4941,4.47,4.502,4.5799,4.6527,4.6979,4.7179,4.8109,4.8611,4.8812,4.9364,4.9916,5.0469,5.1046,5.1624,5.2176,5.2729,5.2929,5.2929,7.1891,7.1523,7.1413,7.1684,7.2326,7.2902,7.3172,7.4492,7.5371,7.5067,7.6352,7.7299,7.7299,7.757,0.0,7.9025,7.9363,0.0,7.9126,7.9126,7.845,7.6961,7.642,7.5676,7.4627,0.0,0.0,7.1007,6.8639,6.617,6.3599,6.2313,6.1366,6.0723,6.0723,6.0554,6.0351,6.1366,6.2178,6.2888,6.3632,6.4343,6.5053,6.5493,6.5865,6.6271,6.7455,6.759,6.7354,6.8098,6.8064,6.7895,6.9113,6.9519,6.9654,7.0398,7.0939,7.1312,7.1312,7.1312,7.1312,7.1312,7.0666,7.0043,7.0482,6.7851,6.4905,6.3202,6.1428,6.0086,6.0086,5.9009,5.7902,5.7214,0.0,5.2725,5.1409,0.0,0.0,0.0,0.0,0.0,0.0,4.5693,0.0,0.0,0.0,0.0,0.0,0.0,0.0,4.6022,4.686,0.0,4.6809,4.6317,4.5786,4.5115,4.5233,4.5748,4.6652,4.7179,4.7531,4.7782,4.846,4.8887,4.9113,4.9464,4.9791,5.0193,5.0971,5.1498,5.19,5.2653,5.2929,5.2929,7.4305,7.2769,0.0,0.0,7.3105,0.0,7.4593,7.598,7.669,7.5946,7.713,7.8077,7.8077,7.872,7.9194,7.9194,0.0,0.0,0.0,7.9194,7.8517,7.7029,7.6961,0.0,7.4728,7.4627,7.3883,7.2394,6.8808,6.6677,6.5967,6.3835,6.3159,6.3734,6.3734,6.3294,6.2651,6.4072,6.4275,6.3734,6.4512,6.5222,6.5831,6.5899,6.6373,6.7083,6.7793,6.803,6.8098,6.891,6.9147,6.9214,6.9958,7.0195,7.0331,7.1075,7.1312,7.1312,7.1312,7.1312,7.1312,7.1312,7.1312,7.0882,6.9537,6.6652,6.4333,6.4226,6.2086,6.0146,6.0146,5.9009,5.7812,5.7064,5.476,5.2576,5.1259,0.0,0.0,0.0,0.0,0.0,0.0,4.6411,4.6142,0.0,0.0,0.0,0.0,0.0,4.6052,4.7279,4.7312,4.6887,4.6082,4.6091,4.5395,4.394,4.5573,4.6652,4.7154,4.7707,4.8259,4.8761,4.8812,4.9113,4.959,4.959,4.964,4.9816,5.087,5.1322,5.1523,5.2553,5.2929,5.2929,0.0,0.0,7.3978,7.3356,7.4322,7.5236,7.5405,7.6758,7.7671,7.7468,7.8247,7.8855,7.8855,7.9498,7.9938,7.9938,8.0107,8.0141,7.9938,7.9938,7.9295,7.7807,7.7739,7.7029,7.5473,7.4897,7.3883,7.2394,7.0364,6.9282,6.9113,6.803,6.6981,6.6034,6.6034,6.5324,6.414,6.5053,6.5324,6.529,6.6609,6.7218,6.7455,6.8064,6.8402,6.8639,6.9383,6.9282,6.8944,6.9688,6.9553,6.9214,6.9958,7.0195,7.0331,7.1075,7.1312,7.1312,7.1312,7.1312,7.1312,7.1312,7.1312,7.0882,6.9537,6.7745,6.6185,6.5079,6.2677,6.0864,6.0864,5.8949,5.6974,5.5837,5.3414,5.1229,4.9912,4.8476,4.7668,0.0,4.7608,4.7429,4.7788,4.7369,4.7219,0.0,0.0,0.0,0.0,0.0,4.7489,4.7309,4.7222,4.6881,4.6082,4.6005,4.5689,4.5095,4.6351,4.7004,4.7154,4.8134,4.8636,4.8786,4.9213,4.9464,4.959,4.959,5.0092,5.0896,5.1172,5.18,5.2578,5.2829,5.2929,5.2929,7.5519,7.5242,7.5016,7.4816,7.4966,7.5439,7.6149,7.7232,7.7976,7.7976,7.8923,7.9464,7.916,7.9769,8.0209,8.0209,8.0209,8.0209,8.0209,8.0209,7.9701,7.8551,7.8179,7.7435,7.6284,7.5506,7.4559,7.3409,7.1921,7.121,7.1176,7.0094,6.9147,6.8335,6.7996,6.7421,6.6677,6.7083,6.7252,6.732,6.8132,6.8436,6.8504,6.8944,6.9113,6.9214,6.9925,6.9925,6.9722,7.0432,7.0432,7.0195,7.0567,7.0703,7.077,7.121,7.1312,7.1312,7.1312,7.1312,7.1312,7.1312,7.1312,7.1098,7.0356,6.8601,6.6958,6.6259,6.3684,6.1463,6.1164,5.8919,5.6675,5.5388,5.2695,5.0421,4.9404,4.8386,4.7878,4.8237,4.8237,4.8356,4.8686,4.8416,4.8237,4.8297,0.0,0.0,4.7403,4.8268,4.8417,4.7665,4.792,4.7447,4.6407,4.6219,4.6039,4.5874,4.723,4.7883,4.7908,4.8761,4.9163,4.9163,4.9464,4.959,4.959,4.959,4.9967,5.0569,5.1071,5.1649,5.2226,5.2729,5.2929,5.2929,7.7162,7.6356,7.5775,7.6088,7.5607,7.5574,7.686,7.7773,7.8314,7.8314,7.9431,7.9972,7.9329,7.9837,8.0209,8.0209,8.0209,8.0209,8.0209,8.0107,7.9769,7.9126,7.828,7.7536,7.6927,7.5879,7.5067,7.4424,7.2969,7.2225,7.2225,7.0939,7.0297,7.0161,6.9553,6.9214,6.9113,6.9113,6.9113,6.9113,6.9214,6.9282,6.9282,6.9383,6.9451,6.9519,7.0128,7.0364,7.0466,7.1109,7.1312,7.1312,7.1312,7.1312,7.1312,7.1312,7.1312,7.1312,7.1312,7.1312,7.1312,7.1312,7.1312,7.1222,7.1007,6.9024,6.7164,6.6958,6.4289,6.1912,6.1224,5.8919,5.6645,5.5269,5.2336,4.9972,4.9224,0.0,4.8356,4.8566,4.9075,4.9494,4.9703,4.9613,4.9374,4.8925,4.8775,0.0,0.0,4.8798,4.9203,4.8125,4.8553,4.818,4.669,4.6366,4.6401,4.6577,4.8058,4.8812,4.8912,4.9389,4.964,4.9715,4.964,4.959,4.959,4.959,4.964,4.9816,5.087,5.1322,5.1523,5.2553,5.2929,5.2929,7.8003,7.8098,7.7846,7.6061,7.6685,7.7536,7.7773,7.8957,7.987,7.987,8.0073,8.0175,8.004,8.0141,8.0209,8.0209,8.0209,8.0209,8.0209,7.9634,7.9228,7.9126,7.7807,7.7029,7.6893,7.4897,7.3781,7.3646,7.2191,7.1481,7.1481,7.1244,7.0804,7.0195,7.006,6.9688,6.9113,6.9113,6.9113,6.9147,6.9755,7.0026,7.0094,7.0737,7.0973,7.0973,7.1109,7.1142,7.1142,7.1278,7.1312,7.1312,7.1312,7.1312,7.1312,7.1312,7.1312,7.1312,7.1312,7.1312,7.1312,7.1312,7.1312,7.1007,6.9855,6.8306,6.6855,6.562,6.3659,6.1912,6.1224,5.8919,5.6496,5.467,5.2037,4.9823,4.8596,0.0,4.8686,4.9793,5.0032,5.0541,5.1648,5.1229,5.1109,5.1558,5.1079,5.0896,5.1244,5.1583,5.0818,4.8714,4.8298,4.7541,4.6357,4.6345,4.6753,4.7682,4.841,4.9012,4.9464,4.9565,4.9841,5.0268,4.9791,4.959,4.959,4.959,4.9866,5.0343,5.1021,5.1574,5.2051,5.2678,5.2929,5.2929,7.903,7.962,7.9762,7.7581,7.7441,7.7807,7.8483,7.916,7.9769,8.0141,8.0209,8.0209,8.0209,8.0209,8.0209,8.0209,8.0209,8.0209,8.0209,7.987,7.9701,7.9701,7.828,7.7096,7.6284,7.5202,7.4661,7.4661,7.3206,7.2496,7.2462,7.1684,7.1142,7.0804,7.0804,7.0601,7.0297,7.0297,7.0297,7.0331,7.0669,7.0804,7.0838,7.1176,7.1312,7.1312,7.1312,7.1312,7.1312,7.1312,7.1312,7.1312,7.1312,7.1312,7.1312,7.1312,7.1312,7.1312,7.1312,7.1312,7.1312,7.1312,7.0699,7.0043,6.9313,6.7572,6.5835,6.5219,6.3741,6.2301,6.1313,5.9219,5.7244,5.5987,5.2665,0.0,0.0,4.9793,4.9823,5.1139,5.1917,5.2755,5.3713,5.3533,5.3324,5.3294,5.2995,5.2464,5.1659,5.2991,5.2661,5.002,4.8305,4.7327,4.7154,4.7481,4.8033,4.8812,4.9389,4.9791,5.0042,5.0042,5.0017,4.9967,4.9715,4.959,4.959,4.959,4.9741,5.0042,5.0594,5.1172,5.1724,5.2277,5.2678,5.2929,7.9901,8.0834,8.122,7.9147,7.8338,7.8394,7.9381,7.9426,7.9566,8.0141,8.0209,8.0209,8.0209,8.0209,8.0209,8.0209,8.0209,8.0209,8.0209,8.0209,8.0107,7.9938,7.8517,7.7096,7.5743,7.554,7.5439,7.5439,7.4119,7.3477,7.3443,7.2157,7.1582,7.1548,7.1379,7.1312,7.1312,7.1312,7.1312,7.1312,7.1312,7.1312,7.1312,7.1312,7.1312,7.1312,7.1312,7.1312,7.1312,7.1312,7.1312,7.1312,7.1312,7.1312,7.1312,7.1312,7.1312,7.1312,7.1312,7.1312,7.1312,7.1312,7.0482,6.9537,6.8894,6.7061,6.5436,6.4813,6.3789,6.272,6.1553,5.9847,5.8201,5.7064,0.0,0.0,0.0,5.1229,5.1199,5.2516,5.3862,5.491,5.5568,5.5628,5.5418,5.491,5.488,5.4209,5.2603,5.4522,5.4567,5.2182,4.9337,4.8146,4.8706,4.8787,4.9113,4.9791,5.0218,5.0544,5.0795,5.067,5.0469,5.0167,4.9891,4.9866,4.9967,4.9841,4.9866,5.0042,5.0594,5.1071,5.1548,5.2101,5.2578,5.2929,8.0366,8.1518,8.2147,7.9823,8.0011,8.0605,8.0674,8.0355,8.0141,8.0175,8.0209,8.0209,8.0209,8.0209,8.0209,8.0209,8.0209,8.0209,8.0209,8.0209,7.9904,7.9228,7.7773,7.6589,7.5709,7.5033,7.4695,7.4695,7.3883,7.3477,7.3477,7.2699,7.2326,7.2293,7.1616,7.1312,7.1312,7.1312,7.1312,7.1312,7.1312,7.1312,7.1312,7.1312,7.1312,7.1312,7.1312,7.1312,7.1312,7.1312,7.1312,7.1312,7.1312,7.1312,7.1312,7.1312,7.1312,7.1312,7.1312,7.1312,7.1312,7.1312,7.1222,7.0482,6.7907,6.7164,6.6365,6.3789,6.3194,6.2869,6.2151,6.0894,5.9129,5.6645,0.0,0.0,5.1439,5.1738,5.2546,5.3892,5.5239,5.6256,5.6885,5.6944,5.6944,5.6885,5.6885,5.6855,5.6691,5.6885,5.6444,5.5472,5.1972,5.0364,5.097,4.9467,4.9314,5.0368,5.0393,5.0971,5.1975,5.1448,5.1473,5.1875,5.082,5.067,5.1122,5.0569,5.067,5.1222,5.1774,5.2,5.2126,5.2653,5.2904,5.2929,7.9365,8.2382,8.4386,8.1047,8.124,8.1552,8.0555,8.0272,8.0209,8.0209,8.0209,8.0209,8.0209,8.0209,8.0209,8.0209,8.0209,8.0209,8.0209,8.0209,7.987,7.916,7.8585,7.7705,7.6454,7.6183,7.5777,7.527,7.4525,7.4187,7.4153,7.3409,7.3071,7.3037,7.2326,7.1988,7.1954,7.1515,7.1312,7.1312,7.1312,7.1312,7.1312,7.1312,7.1312,7.1312,7.1312,7.1312,7.1312,7.1312,7.1312,7.1312,7.1312,7.1312,7.1312,7.1312,7.1312,7.1312,7.1312,7.1312,7.1098,7.0263,6.9346,6.8206,6.6365,6.5219,6.432,6.3279,6.3079,6.2869,6.2211,6.1343,6.0386,5.9398,0.0,5.5149,5.5448,5.5029,5.5149,5.6466,5.7782,5.868,5.8919,5.9338,5.9398,5.8979,5.8949,5.877,5.8351,5.8351,5.8226,5.7921,5.6308,5.4314,5.1672,5.1419,5.1152,5.0971,5.1297,5.1699,5.2101,5.19,5.1724,5.1574,5.1147,5.1071,5.1272,5.1046,5.1071,5.1297,5.1498,5.18,5.2126,5.2352,5.2628,5.2929,7.9679,8.2886,8.5251,8.328,8.2646,8.2244,8.1379,8.0607,8.0209,8.0209,8.0209,8.0209,8.0209,8.0412,8.0547,8.0547,8.075,8.0784,8.0547,8.031,7.987,7.916,7.8889,7.828,7.7266,7.7232,7.686,7.6082,7.5811,7.5439,7.4931,7.4424,7.4052,7.3815,7.3071,7.2631,7.236,7.1853,7.1515,7.1312,7.1312,7.1312,7.1312,7.1312,7.1312,7.1312,7.1312,7.1312,7.1312,7.1312,7.1312,7.1312,7.1312,7.1312,7.1345,7.1582,7.1175,7.0666,7.0666,7.0356,6.9855,6.9313,6.8174,6.6855,6.5436,6.4401,6.3592,6.3194,6.3079,6.2929,6.248,6.2032,6.1523,6.0894,5.889,5.7573,5.8052,5.7543,5.7513,5.862,5.9727,6.0416,6.0416,6.0835,6.0924,6.0446,6.0416,6.0206,5.9757,5.9727,5.9727,5.9727,5.9526,5.7708,5.4093,5.3388,5.2801,5.2272,5.2169,5.2201,5.2352,5.2352,5.2151,5.18,5.1624,5.1649,5.1774,5.1599,5.1649,5.18,5.18,5.2026,5.2352,5.2352,5.2603,5.2929,8.1818,8.2962,8.437,8.6571,8.4532,8.275,8.345,8.1663,8.0209,8.0209,8.0209,8.0209,8.0209,8.0851,8.1291,8.1291,8.1968,8.2103,8.1359,8.0615,7.987,7.916,7.8416,7.801,7.801,7.801,7.7638,7.6893,7.7638,7.7198,7.5709,7.5709,7.5337,7.4593,7.3849,7.3105,7.2428,7.2394,7.1988,7.1345,7.1312,7.1312,7.1312,7.1312,7.1312,7.1312,7.1312,7.1312,7.1312,7.1312,7.1312,7.1312,7.1345,7.1345,7.1481,7.2191,7.0924,6.9217,6.9217,6.8206,6.7502,6.8797,6.8206,6.6751,6.5436,6.5111,6.4703,6.3394,6.3079,6.3079,6.3079,6.3079,6.2421,6.0416,6.0116,5.9638,5.8321,5.871,5.9368,6.0027,6.0715,6.1134,6.1134,6.1134,6.1134,6.1134,6.1134,6.1134,6.1104,6.1104,6.1134,6.1104,6.1134,6.0368,5.8725,5.5414,5.4123,5.4549,5.2833,5.2402,5.2929,5.2929,5.2929,5.2904,5.2352,5.2427,5.2879,5.2327,5.2427,5.2929,5.2929,5.2929,5.2929,5.2929,5.2929,5.2929,8.2975,8.4571,8.588,8.5432,8.4657,8.367,8.2571,8.1816,8.1125,8.0276,8.0868,8.1125,8.0276,8.0851,8.1291,8.1291,8.1968,8.2306,8.2103,8.1359,8.0851,8.0648,7.9938,7.9295,7.8788,7.8788,7.8416,7.7671,7.7874,7.7739,7.7299,7.7299,7.6927,7.6183,7.5371,7.4627,7.3883,7.2834,7.2563,7.28,7.2293,7.209,7.209,7.209,7.1751,7.1312,7.1312,7.1312,7.1379,7.1921,7.209,7.2157,7.2665,7.2834,7.2868,7.3105,7.166,7.0041,7.0601,6.8595,6.643,6.6354,6.6048,6.5328,6.4015,6.3706,6.3592,6.3194,6.3079,6.3079,6.3079,6.3079,6.272,6.1672,6.1493,6.1194,6.0356,6.0775,6.1283,6.1463,6.2091,6.2301,6.1852,6.2211,6.2301,6.1852,6.1792,6.1613,6.1134,6.1553,6.1583,6.1134,6.085,6.0853,6.1049,5.7678,5.5518,5.4575,5.3241,5.2779,5.2929,5.2929,5.2929,5.2929,5.2754,5.2779,5.2904,5.2754,5.2779,5.2929,5.2929,5.2929,5.2929,5.2929,5.2929,5.2929,8.49,8.599,8.6749,8.577,8.5087,8.4416,8.3415,8.2839,8.2335,8.1663,8.1723,8.1629,8.0966,8.1359,8.1731,8.1731,8.2408,8.2847,8.2847,8.1866,8.1291,8.1291,8.0581,8.0006,7.9532,7.9532,7.916,7.845,7.872,7.8551,7.801,7.828,7.8044,7.7299,7.6826,7.6014,7.4999,7.4086,7.3612,7.3443,7.3003,7.2834,7.2834,7.2834,7.2563,7.2157,7.2157,7.2157,7.2225,7.2665,7.2834,7.2969,7.368,7.3713,7.3418,7.3184,7.1589,6.9867,6.9672,6.77,6.5604,6.5207,6.5085,6.4828,6.37,6.3438,6.3378,6.3139,6.3079,6.3079,6.3079,6.3079,6.2959,6.254,6.248,6.2331,6.1942,6.2241,6.248,6.248,6.2839,6.2929,6.251,6.2839,6.2899,6.251,6.248,6.2301,6.1912,6.2271,6.2301,6.1912,6.1644,6.1851,6.248,5.9087,5.6949,5.5929,5.3901,5.2929,5.2929,5.2929,5.2929,5.2929,5.2929,5.2929,5.2929,5.2929,5.2929,5.2929,5.2929,5.2929,5.2929,5.2929,5.2929,5.2929,8.6995,8.6995,8.6995,8.6995,8.588,8.5009,8.5278,8.4452,8.3706,8.3415,8.2661,8.1968,8.1816,8.2067,8.234,8.2408,8.3152,8.3592,8.3592,8.2272,8.1494,8.1494,8.0716,8.031,8.031,8.0242,7.987,7.9194,7.987,7.9498,7.8213,7.8889,7.8822,7.8077,7.801,7.7164,7.5811,7.5676,7.4864,7.368,7.3612,7.3578,7.3578,7.3578,7.3544,7.3477,7.3477,7.3477,7.351,7.3578,7.3612,7.3815,7.4492,7.4255,7.3595,7.2879,7.107,6.9084,6.7839,6.6345,6.5114,6.5173,6.5203,6.4994,6.4186,6.4006,6.3827,6.3199,6.3079,6.3079,6.3079,6.3079,6.3079,6.3079,6.3079,6.3079,6.3079,6.3079,6.3079,6.3079,6.3079,6.3079,6.3079,6.3079,6.3079,6.3079,6.3079,6.3079,6.3079,6.3079,6.3079,6.3079,6.2933,6.2933,6.3079,5.9503,5.7878,5.8005,5.4593,5.2929,5.2929,5.2929,5.2929,5.2929,5.2929,5.2929,5.2929,5.2929,5.2929,5.2929,5.2929,5.2929,5.2929,5.2929,5.2929,5.2929,8.6848,8.6995,8.6995,8.6995,8.6749,8.6247,8.5468,8.5123,8.4289,8.2481,8.2839,8.2571,8.0804,8.1156,8.1765,8.2374,8.3625,8.437,8.437,8.3524,8.3016,8.3016,8.1765,8.1054,8.1054,8.0479,8.0107,7.9972,8.0107,8.004,7.9735,7.9904,7.9566,7.8855,7.8247,7.7468,7.6555,7.5371,7.4999,7.5168,7.4593,7.4356,7.4356,7.4356,7.3984,7.3477,7.3477,7.3477,7.3578,7.4153,7.4762,7.5236,7.5405,7.5337,7.5141,7.5085,7.2674,7.0204,7.0454,6.8166,6.5922,6.643,6.658,6.6131,6.4395,6.4006,6.3827,6.3199,6.3079,6.3079,6.3079,6.3079,6.3079,6.3079,6.3079,6.3079,6.3079,6.3079,6.3079,6.3079,6.3079,6.3079,6.3079,6.3079,6.3079,6.3079,6.3079,6.3079,6.3079,6.3079,6.3079,6.3079,6.1762,6.1762,6.3079,5.8355,5.6699,5.8005,5.4593,5.2929,5.2929,5.2929,5.2929,5.2929,5.2929,5.2929,5.2929,5.2929,5.2929,5.2929,5.2929,5.2929,5.2929,5.2929,5.2929,5.2929,8.6885,8.6995,8.6995,8.6995,8.6995,8.6749,8.6211,8.6138,8.5468,8.3755,8.3904,8.3314,8.1256,8.1528,8.2103,8.2881,8.3625,8.4234,8.4606,8.393,8.349,8.349,8.2408,8.1832,8.1832,8.1088,8.0547,8.0209,8.0209,8.0209,8.0209,8.0209,8.0006,7.9634,7.9228,7.8653,7.7908,7.7096,7.6555,7.6284,7.6251,7.5777,7.5168,7.554,7.5236,7.4525,7.4525,7.4525,7.4695,7.5845,7.6251,7.6284,7.6284,7.6521,7.6594,7.5471,7.3613,7.1726,7.1091,6.9228,6.7448,6.7448,6.7717,6.7418,6.5413,6.4964,6.4695,6.3707,6.3528,6.3438,6.3139,6.3079,6.3079,6.3079,6.3079,6.3079,6.3079,6.3079,6.3079,6.3079,6.3079,6.3079,6.3079,6.3079,6.3079,6.3079,6.3079,6.3079,6.3079,6.3079,6.3079,6.3079,6.2175,6.2175,6.3079,5.8731,5.7469,5.9104,5.4968,5.2929,5.2929,5.2929,5.2929,5.2929,5.2929,5.2929,5.2929,5.2929,5.2929,5.2929,5.2929,5.2929,5.2929,5.2929,5.2929,5.2929,8.6995,8.6995,8.6925,8.6642,8.6819,8.6856,8.65,8.6749,8.6536,8.5381,8.4813,8.3965,8.2477,8.2371,8.2644,8.3253,8.3422,8.3828,8.4573,8.4031,8.3693,8.3693,8.2983,8.2611,8.2611,8.1866,8.1122,8.0378,8.0242,8.0209,8.0209,8.0209,8.0209,8.0175,8.0073,7.9667,7.9092,7.8991,7.8213,7.713,7.7739,7.7232,7.6149,7.669,7.6555,7.6082,7.5946,7.598,7.6284,7.757,7.757,7.7096,7.7096,7.7502,7.7644,7.5803,7.4473,7.3115,7.1289,6.9884,6.8854,6.8286,6.8495,6.8375,6.6729,6.6251,6.5802,6.4455,6.4186,6.3977,6.3348,6.3318,6.3348,6.3109,6.3169,6.3199,6.3079,6.3079,6.3079,6.3079,6.3079,6.3079,6.3079,6.3079,6.3079,6.3079,6.3079,6.3079,6.3079,6.3079,6.3079,6.3079,6.3079,6.3079,6.3079,6.0022,5.9104,6.048,5.5972,5.3563,5.3291,5.3042,5.2929,5.2929,5.2929,5.2929,5.2929,5.2929,5.2929,5.2929,5.2929,5.2929,5.2929,5.2929,5.2929,5.2929,8.6995,8.6995,8.6571,8.5242,8.6138,8.632,8.437,8.5731,8.6502,8.5014,8.4202,8.3789,8.3901,8.2986,8.2441,8.2543,8.3118,8.3828,8.4573,8.4539,8.4471,8.4471,8.3761,8.3355,8.3355,8.2644,8.19,8.1122,8.0513,8.0209,8.0209,8.0209,8.0209,8.0175,7.9532,7.9194,7.9058,7.8416,7.801,7.7841,7.7942,7.7874,7.7604,7.7096,7.7232,7.7604,7.6961,7.713,7.7705,7.7908,7.7908,7.7841,7.7841,7.7908,7.7942,7.7644,7.5641,7.3468,7.3115,7.1065,6.8974,6.8884,6.8495,6.8046,6.7777,6.7268,6.649,6.5173,6.4874,6.4695,6.4006,6.4366,6.4395,6.3258,6.3528,6.3677,6.3139,6.3079,6.3079,6.3079,6.3079,6.3079,6.3079,6.3079,6.3079,6.3079,6.3079,6.3079,6.3079,6.3079,6.3079,6.3079,6.3079,6.3079,6.3079,6.1139,6.0237,6.048,5.8355,5.6466,5.5049,5.3538,5.2929,5.2929,5.2929,5.2929,5.2929,5.2929,5.2929,5.2929,5.2929,5.2929,5.2929,5.2929,5.2929,5.2929,8.6174,8.588,8.5355,8.4253,8.4289,8.4452,8.4532,8.5391,8.5612,8.4336,8.4187,8.3805,8.2668,8.2514,8.2577,8.2983,8.3321,8.3828,8.4573,8.464,8.464,8.464,8.4302,8.4133,8.4133,8.3389,8.2847,8.2509,8.1359,8.0818,8.0784,8.0378,8.0209,8.0175,7.987,7.9735,7.9701,7.9363,7.8991,7.8653,7.9058,7.872,7.801,7.8111,7.8077,7.801,7.8111,7.8077,7.8111,7.8957,7.8957,7.8619,7.8619,7.8889,7.9126,7.8754,7.6736,7.4555,7.4171,7.2204,6.9991,6.9632,6.9572,6.9512,6.9183,6.8884,6.8076,6.6011,6.5592,6.5353,6.4695,6.4814,6.4695,6.3737,6.3827,6.3767,6.3169,6.3079,6.3079,6.3079,6.3079,6.3079,6.3079,6.3079,6.3079,6.3079,6.3079,6.3079,6.3079,6.3079,6.3079,6.3079,6.3079,6.3079,6.3079,6.1377,6.099,6.191,5.9256,5.7624,5.6828,5.5075,5.4299,5.4299,5.3291,5.2929,5.2929,5.2929,5.2929,5.2929,5.2929,5.2929,5.2929,5.2929,5.2929,5.2929]},{"header":{"parameterUnit":"m.s-1","parameterCategory":1,"la1":30.6,"la2":28.766,"lo1":-90.7593,"lo2":-88.6598,"dy":0.0162,"dx":0.0183,"nx":116,"ny":114,"refTime":"2024-04-11T06:00:00:Z","depth":0,"parameterNumber":3,"parameterNumberName":"V-component_of_WINDS"},"data":[0.0,0.0,0.0,0.0,0.0,0.0,0.0,0.0,0.0,0.0,0.0,0.0,0.0,0.0,0.0,0.0,0.0,0.0,0.0,0.0,0.0,0.0,0.0,0.0,0.0,0.0,0.0,0.0,0.0,0.0,0.0,0.0,0.0,0.0,0.0,0.0,0.0,0.0,0.0,0.0,0.0,0.0,0.0,0.0,0.0,0.0,0.0,0.0,0.0,0.0,0.0,0.0,0.0,0.0,0.0,0.0,0.0,0.0,0.0,0.0,0.0,0.0,0.0,0.0,0.0,0.0,0.0,0.0,0.0,0.0,0.0,0.0,0.0,0.0,0.0,0.0,0.0,0.0,0.0,0.0,0.0,0.0,0.0,0.0,0.0,0.0,0.0,0.0,0.0,0.0,0.0,0.0,0.0,0.0,0.0,0.0,0.0,0.0,0.0,0.0,0.0,0.0,0.0,0.0,0.0,0.0,0.0,0.0,0.0,0.0,0.0,0.0,0.0,0.0,0.0,0.0,0.0,0.0,0.0,0.0,0.0,0.0,0.0,0.0,0.0,0.0,0.0,0.0,0.0,0.0,0.0,0.0,0.0,0.0,0.0,0.0,0.0,0.0,0.0,0.0,0.0,0.0,0.0,0.0,0.0,0.0,0.0,0.0,0.0,0.0,0.0,0.0,0.0,0.0,0.0,0.0,0.0,0.0,0.0,0.0,0.0,0.0,0.0,0.0,0.0,0.0,0.0,0.0,0.0,0.0,0.0,0.0,0.0,0.0,0.0,0.0,0.0,0.0,0.0,0.0,0.0,0.0,0.0,0.0,0.0,0.0,0.0,0.0,0.0,0.0,0.0,0.0,0.0,0.0,0.0,0.0,0.0,0.0,0.0,0.0,0.0,0.0,0.0,0.0,0.0,0.0,0.0,0.0,0.0,0.0,0.0,0.0,0.0,0.0,0.0,0.0,0.0,0.0,0.0,0.0,0.0,0.0,0.0,0.0,0.0,0.0,0.0,0.0,0.0,0.0,0.0,0.0,0.0,0.0,0.0,0.0,0.0,0.0,0.0,0.0,0.0,0.0,0.0,0.0,0.0,0.0,0.0,0.0,0.0,0.0,0.0,0.0,0.0,0.0,0.0,0.0,0.0,0.0,0.0,0.0,0.0,0.0,0.0,0.0,0.0,0.0,0.0,0.0,0.0,0.0,0.0,0.0,0.0,0.0,0.0,0.0,0.0,0.0,0.0,0.0,0.0,0.0,0.0,0.0,0.0,0.0,0.0,0.0,0.0,0.0,0.0,0.0,0.0,0.0,0.0,0.0,0.0,0.0,0.0,0.0,0.0,0.0,0.0,0.0,0.0,0.0,0.0,0.0,0.0,0.0,0.0,0.0,0.0,0.0,0.0,0.0,0.0,0.0,0.0,0.0,0.0,0.0,0.0,0.0,0.0,0.0,0.0,0.0,0.0,0.0,0.0,0.0,0.0,0.0,0.0,0.0,0.0,0.0,0.0,0.0,0.0,0.0,0.0,0.0,0.0,0.0,0.0,0.0,0.0,0.0,0.0,0.0,0.0,0.0,0.0,0.0,0.0,0.0,0.0,0.0,0.0,0.0,0.0,0.0,0.0,0.0,0.0,0.0,0.0,0.0,0.0,0.0,0.0,0.0,0.0,0.0,0.0,0.0,0.0,0.0,0.0,0.0,0.0,0.0,0.0,0.0,0.0,0.0,0.0,0.0,0.0,0.0,0.0,0.0,0.0,0.0,0.0,0.0,0.0,0.0,0.0,0.0,0.0,0.0,0.0,0.0,0.0,0.0,0.0,0.0,0.0,0.0,0.0,0.0,0.0,0.0,0.0,0.0,0.0,0.0,0.0,0.0,0.0,0.0,0.0,0.0,0.0,0.0,0.0,0.0,0.0,0.0,0.0,0.0,0.0,0.0,0.0,0.0,0.0,0.0,0.0,0.0,0.0,0.0,0.0,0.0,0.0,0.0,0.0,0.0,0.0,0.0,0.0,0.0,0.0,0.0,0.0,0.0,0.0,0.0,0.0,0.0,0.0,0.0,0.0,0.0,0.0,0.0,0.0,0.0,0.0,0.0,0.0,0.0,0.0,0.0,0.0,0.0,0.0,0.0,0.0,0.0,0.0,0.0,0.0,0.0,0.0,0.0,0.0,0.0,0.0,0.0,0.0,0.0,0.0,0.0,0.0,0.0,0.0,0.0,0.0,0.0,0.0,0.0,0.0,0.0,0.0,0.0,0.0,0.0,0.0,0.0,0.0,0.0,0.0,0.0,0.0,0.0,0.0,0.0,0.0,0.0,0.0,0.0,0.0,0.0,0.0,0.0,0.0,0.0,0.0,0.0,0.0,0.0,0.0,0.0,0.0,0.0,0.0,0.0,0.0,0.0,0.0,0.0,0.0,0.0,0.0,0.0,0.0,0.0,0.0,0.0,0.0,0.0,0.0,0.0,0.0,0.0,0.0,0.0,0.0,0.0,0.0,0.0,0.0,0.0,0.0,0.0,0.0,0.0,0.0,0.0,0.0,0.0,0.0,0.0,0.0,0.0,0.0,0.0,0.0,0.0,0.0,0.0,0.0,0.0,0.0,0.0,0.0,0.0,0.0,0.0,0.0,0.0,0.0,0.0,0.0,0.0,0.0,0.0,0.0,0.0,0.0,0.0,0.0,0.0,0.0,0.0,0.0,0.0,0.0,0.0,0.0,0.0,0.0,0.0,0.0,0.0,0.0,0.0,0.0,0.0,0.0,0.0,0.0,0.0,0.0,0.0,0.0,0.0,0.0,0.0,0.0,0.0,0.0,0.0,0.0,0.0,0.0,0.0,0.0,0.0,0.0,0.0,0.0,0.0,0.0,0.0,0.0,0.0,0.0,0.0,0.0,0.0,0.0,0.0,0.0,0.0,0.0,0.0,0.0,0.0,0.0,0.0,0.0,0.0,0.0,0.0,0.0,0.0,0.0,0.0,0.0,0.0,0.0,0.0,0.0,0.0,0.0,0.0,0.0,0.0,0.0,0.0,0.0,0.0,0.0,0.0,0.0,0.0,0.0,0.0,0.0,0.0,0.0,0.0,0.0,0.0,0.0,0.0,0.0,0.0,0.0,0.0,0.0,0.0,0.0,0.0,0.0,0.0,0.0,0.0,0.0,0.0,0.0,0.0,0.0,0.0,0.0,0.0,0.0,0.0,0.0,0.0,0.0,0.0,0.0,0.0,0.0,0.0,0.0,0.0,0.0,0.0,0.0,0.0,0.0,0.0,0.0,0.0,0.0,0.0,0.0,0.0,0.0,0.0,0.0,0.0,0.0,0.0,0.0,0.0,0.0,0.0,0.0,0.0,0.0,0.0,0.0,0.0,0.0,0.0,0.0,0.0,0.0,0.0,0.0,0.0,0.0,0.0,0.0,0.0,0.0,0.0,0.0,0.0,0.0,0.0,0.0,0.0,0.0,0.0,0.0,0.0,0.0,0.0,0.0,0.0,0.0,0.0,0.0,0.0,0.0,0.0,0.0,0.0,0.0,0.0,0.0,0.0,0.0,0.0,0.0,0.0,0.0,0.0,0.0,0.0,0.0,0.0,0.0,0.0,0.0,0.0,0.0,0.0,0.0,0.0,0.0,0.0,0.0,0.0,0.0,0.0,0.0,0.0,0.0,0.0,0.0,0.0,0.0,0.0,0.0,0.0,0.0,0.0,0.0,0.0,0.0,0.0,0.0,0.0,0.0,0.0,0.0,0.0,0.0,0.0,0.0,0.0,0.0,0.0,0.0,0.0,0.0,0.0,0.0,0.0,0.0,0.0,0.0,0.0,0.0,0.0,0.0,0.0,0.0,0.0,0.0,0.0,0.0,0.0,0.0,0.0,0.0,0.0,0.0,0.0,0.0,0.0,0.0,0.0,0.0,0.0,0.0,0.0,0.0,0.0,0.0,0.0,0.0,0.0,0.0,0.0,0.0,0.0,0.0,0.0,0.0,0.0,0.0,0.0,0.0,0.0,0.0,0.0,0.0,0.0,0.0,0.0,0.0,0.0,0.0,0.0,0.0,0.0,0.0,0.0,0.0,0.0,0.0,0.0,0.0,0.0,0.0,0.0,0.0,0.0,0.0,0.0,0.0,0.0,0.0,0.0,0.0,0.0,0.0,0.0,0.0,0.0,0.0,0.0,0.0,0.0,0.0,0.0,0.0,0.0,0.0,0.0,0.0,0.0,0.0,0.0,0.0,0.0,0.0,0.0,0.0,0.0,0.0,0.0,0.0,0.0,0.0,0.0,0.0,0.0,0.0,0.0,0.0,0.0,0.0,0.0,0.0,0.0,0.0,0.0,0.0,0.0,0.0,0.0,0.0,0.0,0.0,0.0,0.0,0.0,0.0,0.0,0.0,0.0,0.0,0.0,0.0,0.0,0.0,0.0,0.0,0.0,0.0,0.0,0.0,0.0,0.0,0.0,0.0,0.0,0.0,0.0,0.0,0.0,0.0,0.0,0.0,0.0,0.0,0.0,0.0,0.0,0.0,0.0,0.0,0.0,0.0,0.0,0.0,0.0,0.0,0.0,0.0,0.0,0.0,0.0,0.0,0.0,0.0,0.0,0.0,0.0,0.0,0.0,0.0,0.0,0.0,0.0,0.0,0.0,0.0,0.0,0.0,0.0,0.0,0.0,0.0,0.0,0.0,0.0,0.0,0.0,0.0,0.0,0.0,0.0,0.0,0.0,0.0,0.0,0.0,0.0,0.0,0.0,0.0,0.0,0.0,0.0,0.0,0.0,0.0,0.0,0.0,0.0,0.0,0.0,0.0,0.0,0.0,0.0,0.0,0.0,0.0,0.0,0.0,0.0,0.0,0.0,0.0,0.0,0.0,0.0,0.0,0.0,0.0,0.0,0.0,0.0,0.0,0.0,0.0,0.0,0.0,0.0,0.0,0.0,0.0,0.0,0.0,0.0,0.0,0.0,0.0,0.0,0.0,0.0,0.0,0.0,0.0,0.0,0.0,0.0,0.0,0.0,0.0,0.0,0.0,0.0,0.0,0.0,0.0,0.0,0.0,0.0,0.0,0.0,0.0,0.0,0.0,0.0,0.0,0.0,0.0,0.0,0.0,0.0,0.0,0.0,0.0,0.0,0.0,0.0,0.0,0.0,0.0,0.0,0.0,0.0,0.0,0.0,0.0,0.0,0.0,0.0,0.0,0.0,0.0,0.0,0.0,0.0,0.0,0.0,0.0,0.0,0.0,0.0,0.0,0.0,0.0,0.0,0.0,0.0,0.0,0.0,0.0,0.0,0.0,0.0,0.0,0.0,0.0,0.0,0.0,0.0,0.0,0.0,0.0,0.0,0.0,0.0,0.0,0.0,0.0,0.0,0.0,0.0,0.0,0.0,0.0,0.0,0.0,0.0,0.0,0.0,0.0,0.0,0.0,0.0,0.0,0.0,0.0,0.0,0.0,0.0,0.0,0.0,0.0,0.0,0.0,0.0,0.0,0.0,0.0,0.0,0.0,0.0,0.0,0.0,0.0,0.0,0.0,0.0,0.0,0.0,0.0,0.0,0.0,0.0,0.0,0.0,0.0,0.0,0.0,0.0,0.0,0.0,0.0,0.0,0.0,0.0,0.0,0.0,0.0,0.0,0.0,0.0,0.0,0.0,0.0,0.0,0.0,0.0,0.0,0.0,0.0,0.0,0.0,0.0,0.0,0.0,0.0,0.0,0.0,0.0,0.0,0.0,0.0,0.0,0.0,0.0,0.0,0.0,0.0,0.0,0.0,0.0,0.0,0.0,0.0,0.0,0.0,0.0,0.0,0.0,0.0,0.0,0.0,0.0,0.0,0.0,0.0,0.0,0.0,0.0,0.0,0.0,0.0,0.0,0.0,0.0,0.0,0.0,0.0,0.0,0.0,0.0,0.0,0.0,0.0,0.0,0.0,0.0,0.0,0.0,0.0,0.0,0.0,0.0,0.0,0.0,0.0,0.0,0.0,0.0,0.0,0.0,0.0,0.0,0.0,0.0,0.0,0.0,0.0,0.0,0.0,0.0,0.0,0.0,0.0,0.0,0.0,0.0,0.0,0.0,0.0,0.0,0.0,0.0,0.0,0.0,0.0,0.0,-3.6652,0.0,0.0,0.0,0.0,0.0,0.0,0.0,0.0,0.0,0.0,0.0,0.0,0.0,0.0,0.0,0.0,0.0,0.0,0.0,0.0,0.0,0.0,0.0,0.0,-3.1833,-3.2326,-3.236,-3.3657,-3.451,-3.4655,0.0,0.0,0.0,0.0,0.0,-3.6734,-3.6355,-3.6305,-3.6538,-3.5523,-3.4751,-3.4178,-3.4322,-3.4428,-3.4404,0.0,0.0,0.0,0.0,0.0,0.0,0.0,0.0,0.0,0.0,0.0,0.0,0.0,0.0,0.0,0.0,0.0,0.0,0.0,0.0,0.0,0.0,0.0,0.0,0.0,0.0,0.0,0.0,0.0,0.0,0.0,0.0,0.0,0.0,0.0,0.0,0.0,0.0,0.0,0.0,0.0,0.0,0.0,0.0,0.0,0.0,0.0,0.0,0.0,0.0,0.0,0.0,0.0,0.0,0.0,0.0,0.0,0.0,0.0,0.0,0.0,0.0,0.0,0.0,0.0,0.0,0.0,0.0,0.0,0.0,0.0,-3.7704,0.0,0.0,0.0,0.0,0.0,0.0,0.0,0.0,0.0,0.0,0.0,0.0,0.0,0.0,0.0,0.0,0.0,0.0,0.0,0.0,0.0,-3.1393,-3.1393,-3.2158,-3.2436,-3.1879,-3.3594,-3.4504,-3.397,-3.5729,0.0,0.0,0.0,0.0,-3.6699,-3.6826,-3.6987,-3.7215,-3.6228,-3.5204,-3.4143,-3.4962,-3.5176,-3.5009,-3.5324,0.0,0.0,0.0,0.0,0.0,0.0,0.0,0.0,0.0,0.0,0.0,0.0,0.0,0.0,0.0,0.0,0.0,0.0,0.0,0.0,0.0,0.0,0.0,0.0,0.0,0.0,0.0,0.0,0.0,0.0,0.0,0.0,0.0,0.0,0.0,0.0,0.0,0.0,0.0,0.0,0.0,0.0,0.0,0.0,0.0,0.0,0.0,0.0,0.0,0.0,0.0,0.0,0.0,0.0,0.0,0.0,0.0,0.0,0.0,0.0,0.0,0.0,0.0,0.0,-4.5394,-4.701,-4.713,-4.7549,-4.7938,-4.3658,-4.1025,-3.9828,0.0,0.0,0.0,0.0,0.0,0.0,0.0,0.0,0.0,0.0,0.0,0.0,0.0,0.0,0.0,0.0,0.0,0.0,0.0,0.0,-3.2138,-3.2138,-3.3373,-3.4164,-3.4069,-3.491,-3.5412,-3.5345,-3.6204,0.0,0.0,0.0,-3.7335,-3.6658,-3.7157,-3.6938,-3.5804,-3.6149,-3.5899,-3.516,-3.8033,-3.8917,-3.8086,-3.5077,-3.4823,-3.6567,0.0,0.0,0.0,0.0,0.0,0.0,0.0,0.0,0.0,0.0,0.0,0.0,0.0,0.0,0.0,0.0,0.0,0.0,0.0,0.0,0.0,0.0,0.0,0.0,0.0,0.0,0.0,0.0,0.0,0.0,0.0,0.0,0.0,0.0,0.0,0.0,0.0,0.0,0.0,0.0,0.0,-3.3484,-3.4143,0.0,0.0,0.0,0.0,0.0,0.0,0.0,0.0,0.0,0.0,0.0,0.0,0.0,0.0,-4.3269,-4.5753,-4.683,-4.6531,-4.8416,-4.9464,-4.9733,-5.0301,-5.093,-5.1558,-5.1409,0.0,-4.5155,-4.3599,0.0,0.0,0.0,0.0,0.0,0.0,0.0,0.0,0.0,0.0,0.0,0.0,0.0,0.0,0.0,0.0,0.0,0.0,0.0,0.0,0.0,-3.3933,-3.4883,-3.4451,-3.6094,-3.6878,-3.6209,-3.7125,0.0,0.0,-3.6927,-3.6939,-3.6554,-3.6493,-3.6304,-3.6038,-3.7507,-3.7979,-3.7573,-3.9459,-4.0279,-4.0108,-3.8256,-3.7546,-3.7645,-3.5413,0.0,0.0,0.0,0.0,0.0,0.0,0.0,0.0,0.0,0.0,0.0,0.0,0.0,0.0,0.0,0.0,0.0,0.0,0.0,0.0,0.0,0.0,0.0,0.0,0.0,0.0,0.0,0.0,0.0,0.0,0.0,0.0,0.0,0.0,0.0,0.0,0.0,0.0,0.0,-3.5546,-3.571,-3.4354,-3.5993,-3.6722,0.0,0.0,0.0,0.0,0.0,0.0,0.0,0.0,0.0,-4.2701,-4.4376,-4.5403,-4.5665,-4.7969,-4.931,-4.9747,-5.2367,-5.3952,-5.467,-5.497,-5.5867,-5.7214,-5.7094,-5.5927,-5.3773,-4.9912,-4.7668,-4.6531,0.0,0.0,0.0,0.0,0.0,-4.5753,0.0,0.0,0.0,0.0,0.0,0.0,0.0,0.0,0.0,0.0,0.0,0.0,-3.3233,-3.4767,-3.5721,-3.5675,-3.7429,-3.8063,-3.6933,-3.7473,-3.7489,-3.6641,-3.6715,-3.6862,-3.6956,-3.6615,-3.6751,-3.7421,-3.9467,-4.0551,-4.0951,-4.1929,-4.271,-4.3212,-4.2811,-4.1595,-3.9508,-3.6881,-3.591,-3.6116,0.0,0.0,0.0,0.0,0.0,0.0,0.0,0.0,0.0,0.0,0.0,0.0,0.0,0.0,0.0,0.0,0.0,0.0,0.0,0.0,0.0,0.0,0.0,0.0,0.0,0.0,0.0,0.0,0.0,0.0,0.0,0.0,0.0,0.0,0.0,0.0,0.0,-3.6836,-3.7486,-3.5049,-3.7827,-3.8796,0.0,0.0,0.0,0.0,0.0,0.0,-4.1499,-4.4303,-4.6292,-4.7279,-4.8536,-4.9133,-4.8924,-5.0766,-5.2145,-5.3071,-5.5713,-5.7735,-5.9155,-5.9478,-6.0535,-6.2091,-6.107,-6.0975,-6.0924,-5.5628,-5.2396,-5.0631,-4.9134,-4.8356,-4.8057,-4.7878,-4.8566,-4.9583,0.0,0.0,0.0,0.0,0.0,0.0,0.0,0.0,0.0,0.0,0.0,-3.1968,-3.5887,-3.64,-3.717,-3.8988,-3.8888,-3.846,-3.7566,-3.6637,-3.6201,-3.672,-3.7128,-3.7683,-3.8272,-3.8841,-3.9478,-4.0158,-4.1847,-4.3553,-4.5263,-4.6778,-4.7857,-4.841,-4.836,-4.632,-4.2578,-3.8693,-3.7935,-3.9092,-3.6839,0.0,0.0,0.0,0.0,0.0,0.0,0.0,0.0,0.0,0.0,0.0,0.0,0.0,0.0,0.0,0.0,0.0,0.0,0.0,0.0,0.0,0.0,0.0,0.0,0.0,0.0,0.0,0.0,0.0,0.0,0.0,0.0,0.0,0.0,0.0,0.0,0.0,0.0,-3.7336,-3.9605,0.0,0.0,0.0,0.0,-3.8304,-4.0746,-4.297,-4.4776,-4.8054,-5.081,-5.2725,-5.466,-5.5512,-5.5103,-5.6565,-5.6981,-5.6555,-5.8469,-6.0249,-6.2188,-6.3239,-6.4126,-6.4696,-6.2978,-6.3222,-6.4366,-5.9039,-5.6077,-5.47,-5.2725,-5.2306,-5.2755,-5.2127,-5.2336,-5.2845,0.0,0.0,0.0,0.0,0.0,0.0,-3.094,-3.0751,-3.1113,-3.2772,-3.2975,-3.4186,-3.7367,-3.9279,-4.1066,-4.3051,-4.2625,-4.2032,-4.1338,-3.8965,-3.784,-3.8346,-3.7849,-3.8015,-3.8986,-3.9308,-4.0294,-4.1902,-4.4028,-4.5927,-4.7631,-4.8912,-4.9841,-5.0393,-5.0393,-4.9414,-4.7456,-4.2861,-4.0408,-3.9446,-3.6726,-3.6462,0.0,0.0,0.0,0.0,0.0,0.0,0.0,0.0,0.0,0.0,0.0,0.0,0.0,0.0,0.0,0.0,0.0,0.0,0.0,0.0,0.0,0.0,0.0,0.0,0.0,0.0,0.0,0.0,0.0,0.0,0.0,0.0,0.0,0.0,0.0,0.0,0.0,-4.2093,-4.4498,0.0,0.0,-4.2175,-4.1964,-4.2154,-4.4206,-4.6544,-4.9166,-5.1671,-5.3896,-5.5816,-5.6394,-5.6317,-5.5952,-5.6766,-5.7131,-5.7036,-5.8705,-5.9934,-6.0578,-6.2179,-6.3304,-6.3947,-6.447,-6.5018,-6.5473,-6.3169,-6.0924,-5.88,-5.6795,-5.5628,-5.5089,-5.485,-5.5448,-5.6376,0.0,0.0,0.0,0.0,0.0,-2.9661,-3.0582,-3.0491,-3.0785,-3.2288,-3.3373,-3.5209,-3.8403,-4.134,-4.3788,-4.5667,-4.511,-4.418,-4.2998,-4.048,-3.897,-3.8894,-3.8749,-3.9002,-3.964,-4.0748,-4.2242,-4.4215,-4.6205,-4.8083,-4.9916,-5.0645,-5.1297,-5.1825,-5.1825,-5.1523,-5.077,-4.7255,-4.4192,-4.143,-3.8818,-3.8651,-3.9659,0.0,0.0,0.0,0.0,0.0,0.0,0.0,0.0,0.0,0.0,0.0,0.0,0.0,0.0,0.0,0.0,0.0,0.0,0.0,0.0,0.0,0.0,0.0,0.0,0.0,0.0,0.0,0.0,0.0,0.0,0.0,0.0,0.0,0.0,0.0,-4.6126,-4.652,-4.8677,-4.9174,-4.6782,-4.5552,-4.5046,-4.523,-4.7207,-4.9684,-5.2545,-5.454,-5.6439,-5.8107,-5.7938,-5.7445,-5.6762,-5.7157,-5.7171,-5.6851,-5.8374,-5.9263,-5.9643,-6.1305,-6.2837,-6.4281,-6.4619,-6.5191,-6.5689,-6.504,-6.3622,-6.1702,-6.0343,-5.9249,-5.8501,-5.8501,-5.9039,-5.9847,0.0,0.0,0.0,0.0,0.0,-3.0194,-3.0707,-3.0677,-3.0802,-3.1493,-3.2669,-3.5005,-3.9098,-4.2501,-4.5084,-4.6818,-4.6145,-4.4699,-4.2486,-4.0595,-3.9149,-3.8122,-3.9627,-4.0518,-4.0559,-4.3258,-4.5484,-4.7205,-4.8309,-4.9967,-5.2101,-5.2126,-5.2452,-5.2955,-5.298,-5.2678,-5.2151,-5.1599,-4.9213,-4.5547,-4.3212,-4.2946,-4.3599,0.0,0.0,0.0,0.0,0.0,0.0,0.0,0.0,0.0,0.0,0.0,0.0,0.0,0.0,0.0,0.0,0.0,0.0,0.0,0.0,0.0,0.0,0.0,0.0,0.0,0.0,0.0,0.0,0.0,0.0,0.0,0.0,0.0,-4.1474,-4.6082,-4.9673,-5.0299,-5.1746,-5.1847,-4.9307,-4.7534,-4.6753,-4.7305,-4.98,-5.2358,-5.4549,-5.6739,-5.8356,-5.9594,-5.9621,-5.8994,-5.786,-5.786,-5.7332,-5.6269,-5.7332,-5.8438,-5.9631,-6.0837,-6.2962,-6.5859,-6.3464,-6.3482,-6.5203,-6.4569,-6.3936,-6.3313,-6.3239,-6.3139,-6.3109,-6.3079,-6.3079,-6.3079,0.0,0.0,0.0,0.0,0.0,-2.8588,-3.0208,-3.0091,-3.0594,-3.2838,-3.489,-3.7557,-4.1186,-4.4981,-4.8054,-5.0218,-4.7763,-4.5792,-4.5066,-4.0844,-3.8739,-3.9307,-4.0145,-4.169,-4.4149,-4.496,-4.6484,-4.8912,-5.0042,-5.1096,-5.2126,-5.2904,-5.3356,-5.3507,-5.3934,-5.4034,-5.3884,-5.3733,-5.2804,-5.1071,-4.6853,-4.4421,-4.3059,0.0,0.0,0.0,0.0,0.0,0.0,0.0,0.0,0.0,0.0,0.0,0.0,0.0,0.0,0.0,0.0,0.0,0.0,0.0,0.0,0.0,0.0,0.0,0.0,0.0,0.0,0.0,0.0,0.0,0.0,0.0,0.0,-4.4915,-4.5574,-4.9374,-5.2634,-5.3954,-5.4712,-5.4786,-5.3744,-5.249,-5.1724,-5.1875,-5.3695,-5.5442,-5.6946,-5.7937,-5.8849,-5.9568,-5.9595,-5.9068,-5.7887,-5.7887,-5.7693,-5.7424,-5.7693,-5.8065,-5.8493,-6.0132,-6.1326,-6.2188,-6.2837,-6.3335,-6.3963,-6.4576,-6.4469,-6.3878,-6.4304,-6.4186,-6.3677,-6.3228,-6.3079,-6.3079,0.0,0.0,0.0,0.0,0.0,-2.8229,-2.9556,-2.9737,-3.0318,-3.1839,-3.5383,-3.8622,-4.0883,-4.5402,-4.8946,-5.0443,-4.8496,-4.6505,-4.4891,-4.1004,-3.9395,-4.0762,-4.1749,-4.3553,-4.6142,-4.6863,-4.8335,-5.0645,-5.1548,-5.2377,-5.3155,-5.4009,-5.4536,-5.4762,-5.5089,-5.5265,-5.5265,-5.5265,-5.5064,-5.4511,-5.1624,-4.8987,-4.6552,-4.4192,-4.3229,-4.2751,-4.0259,-3.9959,-4.0386,-3.8006,0.0,0.0,0.0,0.0,0.0,0.0,0.0,0.0,0.0,0.0,0.0,0.0,0.0,0.0,0.0,0.0,0.0,0.0,0.0,0.0,0.0,0.0,0.0,0.0,-4.5838,-4.819,-5.0837,-5.2893,-5.4565,-5.5591,-5.6087,-5.6198,-5.6079,-5.5124,-5.4511,-5.4737,-5.5666,-5.658,-5.7435,-5.7888,-5.8327,-5.8895,-5.9153,-5.8871,-5.8252,-5.8453,-5.8453,-5.8252,-5.8252,-5.8252,-5.8227,-5.9353,-6.0319,0.0,-6.2131,-6.2567,-6.2655,-6.3827,-6.3651,0.0,0.0,0.0,0.0,0.0,-6.3079,-6.3079,0.0,0.0,0.0,-2.7241,-2.7805,-2.8452,-2.9001,-2.9616,-3.0006,-2.9947,-3.4729,-3.8401,-3.9013,-4.4257,-4.8058,-4.8706,-4.8143,-4.6364,-4.3436,-4.1105,-4.0719,-4.2631,-4.4128,-4.5773,-4.7481,-4.9113,-5.077,-5.2377,-5.2929,-5.3733,-5.4762,-5.5315,-5.5867,-5.6394,-5.647,-5.652,-5.657,-5.657,-5.657,-5.657,-5.657,-5.4813,-5.1875,-4.8837,-4.7782,-4.7556,-4.492,-4.2886,-4.1185,-3.9685,0.0,0.0,0.0,0.0,0.0,0.0,0.0,0.0,0.0,0.0,0.0,0.0,0.0,0.0,0.0,0.0,0.0,0.0,0.0,0.0,0.0,0.0,0.0,0.0,-4.8661,-5.1033,-5.5652,-5.6022,-5.581,-5.6019,-5.626,-5.663,-5.6935,-5.6289,-5.5942,-5.6369,-5.662,-5.6897,-5.7223,0.0,0.0,0.0,0.0,-5.9006,-5.9006,-5.9458,-5.9458,-5.9006,-5.9006,-5.8956,-5.8905,-5.8956,-6.0049,-6.2089,-6.1573,-6.1311,-6.1422,-6.2676,-6.2432,-6.1283,-6.4352,-6.4903,-6.4036,-6.3145,-6.2993,0.0,0.0,0.0,0.0,-2.6825,-2.721,-2.7971,-2.9269,-2.9551,-2.9898,-3.0639,-3.4686,-3.7374,-3.706,-4.1384,-4.5309,-4.7874,-4.5752,-4.3995,-4.3201,-4.1821,-4.2167,-4.4738,-4.6396,-4.8058,-4.9741,-5.1423,-5.2879,-5.4084,-5.4637,-5.5239,-5.5917,-5.647,-5.7022,-5.76,-5.8001,-5.8453,-5.8855,-5.8855,-5.8855,-5.8855,-5.8855,-5.642,-5.2653,-5.1548,-4.9791,-4.7657,-4.5824,-4.6024,-4.6627,-4.326,-4.2865,-4.3093,-3.9677,-3.7376,0.0,0.0,0.0,0.0,0.0,0.0,0.0,0.0,0.0,0.0,0.0,0.0,0.0,0.0,0.0,0.0,0.0,0.0,0.0,-4.8837,-5.2081,-5.4403,-5.4692,-5.5965,-5.6742,-5.6345,-5.7059,-5.7286,-5.6514,-5.7321,-5.7901,-5.76,-5.9207,-5.9684,-5.8453,-5.9659,0.0,-5.9859,-6.0412,-6.0713,-6.0713,-6.0814,-6.0814,-6.0713,0.0,0.0,-6.0035,-6.0487,-6.0418,-6.0125,-6.0936,-6.0759,-6.0075,-6.2325,-6.3323,-6.3383,-6.2688,-6.3331,-6.4487,-6.2399,-6.2232,-6.3079,0.0,0.0,0.0,-2.6691,-2.7019,-2.7621,-2.8528,-2.9145,-2.9894,-3.1011,-3.4182,-3.6495,-3.6923,-3.9896,-4.2595,-4.4469,-4.3342,-4.2806,-4.3479,-4.3466,-4.4699,-4.7405,-4.9138,-5.0795,-5.2452,-5.3582,-5.4687,-5.5792,-5.6369,-5.7047,-5.7876,-5.8428,-5.8981,-5.9558,-5.9809,-6.0085,-6.0337,-6.0337,-6.0337,-6.0337,-6.0337,-5.8855,-5.652,-5.5415,-5.3959,-5.2251,-5.0619,-5.0017,-4.959,-4.6803,-4.5522,-4.4568,-4.1806,-3.95,-3.7741,0.0,0.0,0.0,0.0,0.0,0.0,0.0,0.0,0.0,0.0,0.0,0.0,0.0,0.0,-4.1254,-4.3076,0.0,-4.8553,-5.1005,-5.3148,-5.4677,-5.5578,-5.6461,-5.6701,-5.5993,-5.7009,-5.7823,-5.7399,-5.8704,-5.9508,-5.9533,-6.0563,-6.0814,-5.9985,-6.0738,-6.104,-6.0763,-6.1291,-6.1466,-6.119,-6.1466,-6.1466,-6.119,-6.119,-6.104,-6.0763,-6.104,-6.0713,-5.9935,-6.0512,-6.0437,-5.9935,-6.1223,-6.228,-6.3091,-6.0959,-6.1357,-6.306,-6.1767,-6.1623,-6.2322,0.0,0.0,0.0,-2.6691,-2.6954,-2.736,-2.7944,-2.8801,-2.9785,-3.0988,-3.3433,-3.5482,-3.6411,-3.8397,-3.9919,-4.0738,-4.1813,-4.2906,-4.4201,-4.5529,-4.7393,-5.0067,-5.1749,-5.3306,-5.4863,-5.5541,-5.642,-5.7524,-5.8077,-5.888,-5.9834,-6.0286,-6.0788,-6.1341,-6.1341,-6.1391,-6.1492,-6.1492,-6.1492,-6.1492,-6.1492,-6.1215,-6.0663,-5.9232,-5.8077,-5.6997,-5.544,-5.3331,-5.1071,-4.9715,-4.7481,-4.502,-4.3689,-4.2057,-4.0408,-3.8891,-3.7779,0.0,0.0,0.0,0.0,0.0,0.0,0.0,0.0,0.0,-3.7636,-3.9798,-4.1489,-4.3324,-4.5744,-4.8055,-5.0399,-5.2897,-5.3814,-5.4944,-5.7033,-5.7167,-5.6947,-5.6269,-5.7474,-5.8504,-5.883,-5.996,-6.0788,-6.1165,-6.1391,-6.1416,-6.119,-6.1391,-6.1441,-6.1341,-6.1868,-6.1943,-6.1517,-6.1943,-6.1943,-6.1492,-6.1492,-6.1441,-6.1341,-6.1441,-6.114,-6.0487,-6.0487,-6.0537,-6.0638,-6.0537,-6.1043,-6.1796,-5.9643,-5.9662,-6.0974,-6.1244,-6.1432,-6.1639,0.0,0.0,0.0,0.0,0.0,-2.7233,-2.8655,-2.8996,-2.9387,-3.0294,-3.2826,-3.4151,-3.3157,-3.5355,-3.7463,-3.8692,-4.2719,-4.5393,-4.5983,-4.7256,-4.9238,-5.2352,-5.3658,-5.4838,-5.6018,-5.7072,-5.8152,-5.9232,-5.9784,-6.0362,-6.0989,-6.1065,-6.1391,-6.1918,-6.1918,-6.2195,-6.2647,-6.2647,-6.2647,-6.2647,-6.2647,-6.2596,-6.2471,-6.1793,-5.9985,-5.765,-5.6445,-5.3984,-5.1247,-5.1071,-4.9464,-4.7506,-4.733,-4.5799,-4.3639,-4.1537,-3.9171,-3.6861,-3.5626,-3.4445,-3.382,-3.4815,-3.4466,-3.4638,0.0,0.0,-4.1202,-4.2942,-4.5848,-4.8246,-4.8682,-5.1659,-5.408,-5.3968,-5.5945,-5.7546,-5.7841,-5.7825,-5.8102,-5.893,-5.9633,-5.9885,-5.9458,-6.0864,-6.1642,-6.1215,-6.2094,-6.222,-6.124,-6.2119,-6.2421,-6.1943,-6.2446,-6.2697,-6.2647,-6.2697,-6.2697,-6.2647,-6.2647,-6.2395,-6.1943,-6.2421,-6.2069,-6.109,-6.109,-6.1366,-6.1768,-6.1291,-6.0896,-6.0473,-5.9763,-5.9312,-5.9229,-6.0753,-6.1678,-6.2332,0.0,0.0,0.0,0.0,0.0,-2.6894,-2.7537,-2.8044,-2.8749,-3.0001,-3.1506,-3.2635,-3.2999,-3.4354,-3.5696,-3.6735,-4.0002,-4.3218,-4.5827,-4.8311,-5.135,-5.5022,-5.639,-5.7456,-5.8077,-5.8905,-5.9859,-6.0964,-6.1517,-6.1893,-6.2144,-6.2496,-6.2772,-6.2998,-6.2998,-6.3274,-6.3776,-6.3776,-6.3601,-6.335,-6.3651,-6.34,-6.2722,-6.1868,-5.9809,-5.7198,-5.5767,-5.3557,0.0,-4.9414,-4.8435,-4.7857,-4.7556,-4.615,-4.4317,-4.276,-4.0099,-3.7207,-3.5086,-3.4831,0.0,0.0,-3.658,-3.8252,-4.0706,-4.2341,-4.3738,-4.5362,-4.7674,-4.9767,-5.1116,-5.3192,-5.4982,0.0,-5.6954,-5.8136,-5.8781,-5.9106,-5.9232,-5.9056,-5.9809,-6.0362,-6.0462,-6.1692,-6.2395,-6.2169,-6.2571,-6.2621,-6.2169,-6.2571,-6.2722,-6.2496,-6.2697,-6.2822,-6.2822,-6.2822,-6.2822,-6.2822,-6.2822,-6.2697,-6.2496,-6.2722,-6.2395,-6.1667,-6.1667,-6.1617,-6.1542,-6.1617,-6.114,-6.0286,-6.006,-5.9458,-5.8807,-5.9589,-6.0401,-6.1357,0.0,0.0,0.0,0.0,0.0,-2.6759,-2.6962,-2.7469,-2.8347,-2.9905,-3.0716,-3.1715,-3.3247,-3.4203,-3.4891,-3.5262,-3.8109,-4.1321,-4.4732,-4.8403,-5.1989,-5.5551,-5.7466,-5.8823,-5.9207,-6.0111,-6.119,-6.2471,-6.2873,-6.3149,-6.3299,-6.3701,-6.3902,-6.3902,-6.3902,-6.4128,-6.4454,-6.4454,-6.4254,-6.3927,-6.4153,-6.3601,-6.2421,-6.0864,-5.8453,-5.5691,-5.4009,-5.1599,-4.8887,-4.6728,-4.5924,-4.5899,-4.615,-4.5372,-4.4141,-4.2886,-4.0174,-3.7161,-3.5303,0.0,0.0,-3.7086,-3.9295,-4.1932,-4.389,-4.5321,-4.6702,-4.8385,-4.9916,-5.1448,-5.308,-5.4285,0.0,-5.7022,-5.7876,-5.878,-6.001,-6.001,-5.9583,-5.8805,-5.9006,-5.9408,-5.9985,-6.1466,-6.2496,-6.2797,-6.2822,-6.2822,-6.2822,-6.2822,-6.2822,-6.2822,-6.2822,-6.2898,-6.3073,-6.3073,-6.3073,-6.3073,-6.3073,-6.2973,-6.2822,-6.2822,-6.2521,-6.2019,-6.2169,-6.1918,-6.1441,-6.1994,-6.1567,-6.0563,-6.0563,-5.9885,-5.8907,-5.88,-5.9728,-6.1121,0.0,0.0,0.0,0.0,0.0,-2.6928,-2.7637,-2.7772,-2.8347,-2.9905,-3.0751,-3.1759,-3.3246,-3.4655,-3.5304,-3.4561,-3.8341,-4.1367,-4.2802,-4.7336,-5.0671,-5.2376,-5.5861,-5.8083,-5.8654,-6.0311,-6.1969,-6.3651,-6.3651,-6.3927,-6.4404,-6.4429,-6.4454,-6.4454,-6.4454,-6.4454,-6.4454,-6.4454,-6.4454,-6.4404,-6.3927,-6.3048,-6.1743,-5.9031,-5.5942,-5.2829,-5.1147,-4.7732,-4.394,-4.3313,-4.2057,-4.1103,-4.3237,-4.3865,-4.3514,-4.1856,-3.9019,-3.6508,-3.696,0.0,-3.8467,-4.0626,-4.2434,-4.4418,-4.7129,-4.9038,-5.072,-5.2402,-5.3632,-5.4436,-5.4511,-5.5415,-5.6545,-5.77,-5.8755,-6.0035,-6.1692,-6.0085,-5.873,-5.873,-5.7298,-5.6545,0.0,-5.9633,-6.1667,-6.2747,-6.2822,-6.2822,-6.2822,-6.2822,-6.2822,-6.2822,-6.2822,-6.3099,-6.3651,-6.3676,-6.3676,-6.3676,-6.3676,-6.3375,-6.2822,-6.2822,-6.2521,-6.2044,-6.2571,-6.2496,-6.2019,-6.2571,-6.2144,-6.1165,-6.1165,-6.0462,-5.9408,-5.8855,-6.0315,-6.2609,0.0,0.0,0.0,0.0,0.0,0.0,-2.7029,-2.7063,-2.7435,-2.845,-2.9702,0.0,0.0,0.0,0.0,0.0,-3.6637,-3.9353,-4.2485,-4.6131,-4.9474,-5.229,-5.5771,-5.7807,-5.8362,-5.9819,-6.124,-6.2571,-6.3676,-6.4128,-6.3977,-6.468,-6.5007,-6.5007,-6.5007,-6.5208,-6.5559,-6.5559,-6.5132,-6.4379,-6.3475,-6.222,-6.0588,-5.7826,-5.3808,-4.9264,0.0,-4.3815,-4.1304,-3.927,-3.8693,-3.8969,-3.9722,-4.0224,-4.0199,-3.8517,-3.8542,-3.8994,-3.8442,0.0,-4.2836,-4.4719,-4.6979,-4.9389,-5.1774,-5.3331,-5.421,-5.4059,-5.4009,-5.3884,-5.3532,-5.4059,-5.529,-5.7524,-5.8805,-6.0211,-6.227,-6.1592,-6.006,-5.7876,-5.7449,0.0,0.0,0.0,0.0,-6.1592,-6.1743,-6.2044,-6.2797,-6.2822,-6.2998,-6.34,-6.34,-6.3651,-6.4203,-6.3877,-6.3701,-6.3676,-6.3299,-6.3023,-6.2822,-6.2822,-6.2722,-6.2571,-6.2747,-6.2521,-6.2019,-6.2195,-6.1617,-6.0613,-6.0613,-6.0161,-5.9716,-6.158,-6.2567,-6.2921,0.0,0.0,0.0,0.0,0.0,0.0,0.0,0.0,0.0,0.0,0.0,0.0,0.0,0.0,0.0,0.0,0.0,-3.7524,-4.0528,-4.3812,-4.662,-4.8909,-5.242,-5.4266,-5.4549,-5.5776,-5.7283,-5.9034,-6.0267,-6.1165,-6.1642,-6.2923,-6.3626,-6.3827,-6.4228,-6.4731,-6.5233,-6.5032,-6.4304,-6.3124,-6.1014,-5.9056,-5.6972,-5.3206,-4.9063,0.0,-4.153,-3.9396,-3.7889,-3.6081,-3.5956,-3.6609,-3.701,-3.7513,-3.7889,-3.7387,-3.8818,-4.0651,-4.1354,-4.4066,-4.7154,-4.9012,-5.1272,-5.3457,-5.5089,-5.5842,-5.5892,-5.4787,-5.3808,-5.2854,-5.19,-5.1674,-5.2628,-5.5641,-5.6846,-5.8478,-6.1517,-6.1115,-5.9809,-5.7876,-5.7424,0.0,0.0,0.0,0.0,-6.0412,-6.114,-6.1793,-6.2496,-6.2923,-6.3299,-6.3676,-6.3701,-6.3952,-6.4454,-6.4128,-6.3977,-6.3952,-6.3199,-6.2822,-6.2822,-6.2822,-6.2722,-6.2546,-6.2747,-6.2395,-6.1718,-6.1918,-6.1341,-6.0311,-6.0311,-6.0426,-6.076,-6.279,-6.3433,-6.3391,0.0,0.0,0.0,0.0,0.0,0.0,0.0,0.0,0.0,0.0,0.0,0.0,0.0,0.0,0.0,0.0,0.0,0.0,-3.7229,-4.0528,-4.2527,-4.2731,-4.625,-4.7985,-4.7595,-4.8732,-5.0721,-5.3374,-5.4072,-5.5458,-5.7474,-5.9056,-6.0111,-6.0713,-6.1768,-6.2546,-6.3073,-6.2496,-6.1642,-6.0337,-5.6495,-5.3708,-5.1247,-4.5824,-4.2384,-4.0023,-3.681,-3.4901,-3.3847,-3.3847,-3.3897,0.0,-3.5203,-3.5956,-3.6784,-3.8517,-3.9923,-4.1731,-4.5522,-4.8611,-5.1272,-5.3432,-5.5164,-5.647,-5.6972,-5.662,-5.5867,-5.4637,-5.3005,-5.1297,0.0,0.0,-4.8912,-5.2327,-5.3457,-5.5465,-5.9859,-5.9156,-5.8353,0.0,0.0,0.0,0.0,0.0,0.0,-5.9332,0.0,-6.1943,-6.2094,-6.3099,-6.3726,-6.3776,-6.3776,-6.4028,-6.4555,-6.453,-6.4479,-6.4404,-6.3375,-6.2847,-6.2822,-6.2822,-6.2546,-6.2069,-6.2596,-6.2195,-6.1215,-6.1743,-6.1291,-6.0286,-6.0418,-6.1121,-6.2264,-6.2535,-6.293,-6.3665,0.0,0.0,0.0,0.0,0.0,0.0,0.0,0.0,0.0,0.0,0.0,0.0,0.0,0.0,0.0,0.0,0.0,0.0,-3.5961,-3.8701,-4.0845,-4.2039,-4.3918,-4.557,-4.6814,-4.7264,-4.7819,-4.8651,-4.9992,-5.0869,-5.1122,-5.2377,-5.3256,-5.3808,-5.411,-5.4536,-5.5013,-5.4461,-5.4059,-5.3532,-5.0469,-4.8912,-4.8033,-4.4518,-4.1555,-3.912,-3.7839,-3.5604,-3.3294,0.0,0.0,0.0,0.0,-3.6483,-3.809,-4.0576,-4.3564,-4.6602,-4.9289,-5.2628,-5.5691,-5.7097,-5.7775,-5.8001,-5.775,-5.6922,-5.544,-5.2678,-4.9816,-4.728,0.0,0.0,0.0,-5.1649,-5.4863,0.0,-6.227,-6.2471,0.0,0.0,0.0,-5.9106,-5.7022,-5.8303,0.0,0.0,-5.9885,-6.104,-6.3149,-6.3525,-6.4053,-6.4856,-6.4881,-6.5132,-6.5685,-6.5283,-6.468,-6.3877,-6.3601,-6.3249,-6.2822,-6.2822,-6.2747,-6.2621,-6.2772,-6.2195,-6.119,-6.1341,-6.0713,-5.9864,-6.1322,-6.1218,-6.066,-6.3511,-6.319,-6.1737,0.0,0.0,0.0,0.0,0.0,0.0,0.0,0.0,0.0,0.0,0.0,0.0,0.0,0.0,0.0,0.0,0.0,0.0,0.0,-3.6619,-3.815,-3.9028,-4.0013,-4.1055,-4.2108,-4.2273,-4.2863,-4.3883,-4.4387,-4.5055,-4.5821,-4.6743,-4.7456,-4.8033,-4.9012,-4.9766,-5.0243,-4.9941,-4.954,0.0,0.0,-4.394,-4.3212,-4.0425,-3.8241,-3.6634,-3.6307,-3.5002,0.0,0.0,0.0,-3.6358,-3.7387,-3.9371,-4.1781,-4.4317,0.0,-5.0343,-5.308,-5.5917,-5.8378,-5.9508,-5.9433,-5.8604,-5.6846,-5.539,-5.3181,-4.8887,-4.5924,0.0,0.0,0.0,0.0,0.0,0.0,0.0,-6.1592,-6.2647,-6.2672,0.0,-6.2094,0.0,-5.9759,-6.0688,-6.1391,0.0,-6.109,-6.1642,-6.3224,-6.4002,-6.468,-6.5283,-6.5283,-6.5434,-6.576,-6.5208,-6.463,-6.4028,-6.3802,-6.34,-6.2822,-6.2822,-6.2822,-6.2822,0.0,-6.2195,-6.119,-6.119,-6.0512,-5.9637,-6.066,-6.0938,-6.1089,-6.3219,-6.3208,-6.2567,0.0,0.0,0.0,0.0,0.0,0.0,0.0,0.0,0.0,0.0,-2.6826,-2.6928,0.0,0.0,0.0,0.0,0.0,0.0,0.0,0.0,-3.5652,-3.5778,-3.6282,-3.6552,-3.6658,-3.6684,-3.763,-3.9476,-3.8532,-3.9137,-4.1051,-4.1644,-4.229,-4.2975,-4.4954,-4.6146,-4.6704,-4.6491,-4.5961,-4.48,-4.1342,-3.9272,-3.804,0.0,-3.4337,-3.3897,-3.3822,-3.3746,0.0,0.0,-3.7939,-3.8793,-4.0676,-4.3463,-4.6502,-4.8862,-5.1071,-5.3457,-5.6696,-5.8805,-6.0286,-6.1266,-6.0563,-5.8704,-5.5239,-5.2955,-4.9992,-4.4493,0.0,-4.0224,-3.8718,0.0,-4.1831,-4.6476,0.0,-5.4813,-5.9935,-6.1567,-6.2621,-6.3676,-6.3852,-6.3676,-6.3099,-6.3099,-6.3324,-6.3751,-6.34,-6.3149,-6.3149,-6.4505,-6.5333,-6.5383,-6.5409,-6.5409,-6.5409,-6.4856,-6.453,-6.4454,-6.3952,-6.34,-6.2822,-6.2822,-6.2822,-6.2822,0.0,0.0,-6.1291,-6.1291,-6.0663,-5.9709,-6.0019,-6.0992,-6.222,-6.2369,-6.2924,-6.3739,0.0,0.0,0.0,0.0,0.0,0.0,0.0,0.0,0.0,0.0,-2.7451,-2.6759,0.0,0.0,0.0,0.0,0.0,0.0,0.0,0.0,0.0,-3.6565,-3.6654,-3.6947,-3.759,-3.6935,-3.6421,-3.6052,0.0,-3.5579,-3.5627,-3.6196,-3.7057,-3.8108,-3.8539,-3.9294,-4.0226,-3.9318,-3.8834,-3.8574,-3.7495,-3.6379,-3.537,-3.4865,0.0,0.0,-3.3395,0.0,0.0,-3.7739,-3.9923,-4.1304,-4.4342,-4.6954,-4.949,-5.2628,-5.4813,-5.6796,-5.9684,-6.1692,-6.3023,-6.3199,-6.1692,-5.9056,-5.4813,-5.1147,0.0,0.0,-3.9019,-3.6985,-3.6257,-3.7789,0.0,-4.6828,0.0,0.0,0.0,0.0,-6.3626,0.0,0.0,0.0,0.0,0.0,0.0,0.0,0.0,0.0,-6.4856,-6.5132,-6.5484,-6.5961,-6.5961,-6.5961,-6.5961,-6.5434,-6.4931,-6.4454,-6.3952,-6.34,-6.2822,-6.2822,-6.2822,-6.2822,0.0,0.0,-6.1868,-6.1868,-6.1466,-6.1047,-6.2638,-6.22,-6.0914,-6.2522,-6.1594,-5.999,0.0,0.0,0.0,0.0,0.0,0.0,0.0,-2.8461,-2.8976,-3.0457,-3.0293,-2.9629,-2.8522,-2.8843,-2.9197,0.0,0.0,0.0,0.0,0.0,0.0,0.0,0.0,0.0,0.0,0.0,0.0,0.0,0.0,0.0,0.0,0.0,0.0,0.0,-3.6081,-3.6851,-3.7346,-3.747,-3.7569,-3.7515,-3.6922,-3.6427,-3.5976,0.0,0.0,0.0,0.0,0.0,0.0,0.0,-4.0325,-4.2886,-4.6778,-5.0117,-5.303,-5.5214,-5.7449,-5.9608,-6.1517,-6.3048,-6.4028,-6.3751,-6.1366,-5.7675,-5.2352,0.0,0.0,0.0,-3.6006,-3.5002,-3.4726,-3.6734,0.0,0.0,0.0,0.0,0.0,0.0,0.0,0.0,0.0,0.0,0.0,0.0,0.0,0.0,0.0,0.0,-6.5308,-6.5559,-6.5835,-6.6112,-6.6112,-6.6112,-6.6112,-6.5835,-6.5434,-6.4881,-6.4354,-6.3802,-6.3274,-6.2973,-6.2822,-6.2822,-6.2822,0.0,-6.1994,-6.1994,-6.1667,-6.1324,-6.222,-6.155,-6.0468,-6.1351,-6.0532,-5.9413,0.0,0.0,0.0,0.0,0.0,0.0,-2.9513,-2.9905,-3.0655,-3.2692,-3.3182,-3.2782,-3.1148,-3.0272,-2.984,0.0,0.0,0.0,0.0,0.0,0.0,0.0,0.0,0.0,0.0,0.0,0.0,0.0,0.0,0.0,0.0,0.0,0.0,0.0,0.0,0.0,0.0,-3.7529,-3.7839,0.0,0.0,0.0,0.0,0.0,0.0,0.0,0.0,0.0,0.0,0.0,-3.9676,-4.2459,-4.6677,-5.1247,-5.5265,-5.6495,-5.883,-6.1316,-6.2772,-6.3902,-6.453,-6.4002,-6.0763,-5.6143,-5.0142,-4.5397,0.0,0.0,-3.352,-3.3395,-3.352,-3.5504,-3.8015,0.0,0.0,0.0,0.0,0.0,0.0,0.0,0.0,0.0,0.0,0.0,0.0,0.0,0.0,0.0,0.0,-6.5886,-6.6112,-6.6112,-6.6112,-6.6112,-6.6112,-6.5986,-6.571,-6.5283,-6.463,-6.4078,-6.3676,-6.3099,-6.2822,-6.2822,-6.2822,0.0,0.0,-6.2169,-6.1918,-6.1542,-6.1542,-6.1115,-6.0512,-6.0512,-6.0085,-5.9792,0.0,0.0,0.0,0.0,0.0,0.0,-2.8681,-2.9605,-3.1281,-3.4589,-3.4638,-3.4273,-3.4006,-3.2684,-3.1155,0.0,0.0,0.0,0.0,0.0,0.0,0.0,0.0,0.0,0.0,0.0,0.0,0.0,0.0,0.0,0.0,0.0,0.0,0.0,0.0,0.0,0.0,0.0,0.0,0.0,0.0,0.0,0.0,0.0,0.0,0.0,0.0,0.0,0.0,0.0,0.0,-3.8316,-4.1756,-4.7908,-5.4185,-5.5817,0.0,0.0,-6.3601,-6.4756,-6.5082,-6.453,-6.0713,-5.5641,-5.0042,0.0,0.0,-3.4098,-3.234,-3.1763,-3.2265,-3.342,-3.5655,0.0,-4.2057,-4.5723,0.0,0.0,0.0,0.0,0.0,0.0,0.0,0.0,0.0,0.0,0.0,0.0,0.0,-6.6086,-6.6112,-6.6112,-6.6112,-6.6112,-6.6112,-6.5609,-6.5333,-6.5283,-6.4254,-6.3726,-6.3676,-6.3099,-6.2822,-6.2822,0.0,0.0,0.0,-6.2747,-6.2722,-6.2672,-6.2672,-6.2019,-6.1115,-6.1115,-6.0412,-5.9508,0.0,0.0,0.0,0.0,0.0,0.0,-2.9895,-3.0182,-3.152,-3.5514,-3.5827,-3.5559,-3.512,-3.412,-3.2336,-2.9544,-3.1506,0.0,0.0,0.0,0.0,0.0,0.0,0.0,0.0,0.0,0.0,0.0,0.0,0.0,0.0,0.0,0.0,0.0,0.0,0.0,0.0,0.0,0.0,0.0,0.0,0.0,0.0,0.0,0.0,0.0,0.0,0.0,0.0,0.0,0.0,0.0,-3.6647,-4.0877,0.0,0.0,-5.539,-5.9031,-6.2144,-6.4354,-6.5584,-6.468,-5.996,-5.426,-4.9389,0.0,-3.7111,-3.3345,-3.1938,-3.1562,-3.2114,-3.2591,-3.3796,-3.6584,-3.7036,-3.9421,0.0,0.0,0.0,0.0,0.0,0.0,0.0,0.0,0.0,0.0,0.0,0.0,0.0,-6.6112,-6.6112,-6.6112,-6.6112,-6.6112,-6.6112,-6.5886,-6.5609,-6.5283,-6.453,-6.4002,-6.3676,-6.3099,-6.2822,-6.2822,0.0,0.0,0.0,-6.2822,-6.2822,-6.2797,-6.2471,-6.1868,-6.114,-6.0788,-6.0161,-5.9483,0.0,0.0,0.0,0.0,0.0,-2.7636,-3.0409,-3.0583,-3.1855,-3.5943,-3.6471,-3.643,-3.6179,-3.4729,-3.29,-3.0576,-3.1681,0.0,0.0,0.0,0.0,0.0,0.0,0.0,0.0,0.0,-3.7182,-3.7502,-3.666,0.0,0.0,0.0,0.0,0.0,0.0,0.0,0.0,0.0,0.0,0.0,0.0,0.0,0.0,0.0,0.0,0.0,0.0,0.0,0.0,0.0,0.0,0.0,0.0,0.0,0.0,0.0,-5.1825,-5.6545,-5.9885,-6.3048,-6.5183,-6.4228,-5.8981,-5.2955,0.0,-4.2007,-3.5805,-3.2616,-3.1411,-3.1135,-3.1838,-3.1964,-3.2516,-3.4198,-3.4098,-3.5906,-4.1882,0.0,0.0,0.0,0.0,0.0,0.0,0.0,0.0,0.0,0.0,0.0,0.0,-6.6112,-6.6112,-6.6112,-6.6112,-6.6036,-6.586,-6.6036,-6.576,-6.5032,-6.4655,-6.4203,-6.3676,-6.3099,-6.2822,-6.2822,0.0,0.0,0.0,-6.2822,-6.2822,-6.2797,-6.2395,-6.1818,-6.114,-6.0713,-6.0111,-5.9483,0.0,0.0,0.0,0.0,0.0,-2.7461,-2.9648,-3.0637,-3.2353,-3.5922,-3.6485,-3.6778,-3.7559,-3.4607,-3.2607,-3.2756,-3.2628,0.0,0.0,0.0,0.0,0.0,0.0,0.0,0.0,0.0,-3.747,-3.671,-3.5921,-3.5519,-3.5519,0.0,0.0,0.0,0.0,0.0,0.0,0.0,0.0,0.0,0.0,0.0,0.0,0.0,0.0,0.0,0.0,0.0,0.0,0.0,0.0,0.0,0.0,-3.2143,-3.3721,0.0,-4.7757,-5.3683,-5.7047,-6.0763,-6.3576,-6.2998,-5.7851,-5.1925,0.0,-4.1128,-3.4776,-3.1964,-3.0557,-3.0131,-3.121,-3.1411,-3.1938,-3.3646,-3.4826,-3.7061,-4.153,0.0,0.0,0.0,0.0,0.0,0.0,0.0,0.0,0.0,0.0,0.0,0.0,0.0,-6.6112,-6.6112,-6.6112,-6.586,-6.5308,-6.5835,-6.5559,-6.4479,-6.4454,-6.4203,-6.3676,-6.3099,-6.2822,0.0,0.0,0.0,0.0,-6.2822,-6.2822,-6.2822,-6.2822,-6.2144,-6.119,-6.1165,-6.0462,-5.9483,0.0,0.0,0.0,0.0,0.0,0.0,-2.7833,-2.7897,-2.887,-3.1959,-3.2057,-3.2556,-3.4637,-3.3478,-3.2782,-3.3277,-3.2424,0.0,0.0,0.0,0.0,0.0,0.0,0.0,0.0,-3.727,-3.7214,-3.747,-3.7095,-3.6462,-3.5519,-3.5968,-3.5938,0.0,0.0,0.0,0.0,0.0,0.0,0.0,0.0,0.0,0.0,0.0,0.0,0.0,0.0,0.0,0.0,0.0,0.0,0.0,0.0,0.0,0.0,-3.5745,-4.1101,-4.6778,-4.9741,-5.3105,-5.5541,-5.4587,-5.077,-4.6527,-4.379,-3.8642,-3.3847,-3.1813,-3.0532,-3.0005,-3.0733,-3.116,-3.219,-3.4625,-3.5629,-3.7136,-4.0074,0.0,0.0,0.0,0.0,0.0,0.0,0.0,0.0,0.0,0.0,0.0,0.0,0.0,-6.5735,-6.6112,-6.6112,-6.6036,-6.586,-6.566,-6.5183,-6.4454,-6.4103,-6.3651,-6.3099,-6.2923,0.0,0.0,0.0,0.0,0.0,-6.2822,-6.2822,-6.2797,-6.2421,-6.1818,-6.114,-6.0738,-6.0136,-5.9483,0.0,0.0,0.0,0.0,0.0,0.0,-2.6986,-2.6814,-2.7347,-2.949,-2.9446,-3.0268,-3.2965,-3.1921,-3.1852,-3.3795,-3.2501,0.0,0.0,0.0,0.0,0.0,0.0,0.0,-3.7796,-3.7086,-3.7181,-3.8089,-3.7932,-3.7582,-3.6985,-3.7404,-3.7105,-3.6207,-3.5968,0.0,0.0,0.0,0.0,0.0,0.0,0.0,-3.5519,0.0,0.0,0.0,0.0,0.0,0.0,0.0,0.0,0.0,0.0,0.0,0.0,0.0,-3.584,-3.9798,0.0,-4.738,-4.9791,-4.9289,-4.6401,-4.3112,-4.0902,-3.686,-3.3119,-3.1436,-3.0407,-3.003,-3.0758,-3.116,-3.2089,-3.4274,-3.5253,-3.6584,-3.9044,0.0,0.0,0.0,0.0,0.0,0.0,0.0,0.0,0.0,0.0,0.0,0.0,0.0,-6.5534,-6.6086,-6.5911,-6.571,-6.5484,-6.5358,-6.4806,-6.3852,-6.3751,-6.34,-6.2822,-6.2822,0.0,0.0,0.0,0.0,0.0,-6.2822,-6.2822,-6.2797,-6.2446,-6.1843,-6.114,-6.0788,-6.0161,-5.9483,0.0,0.0,0.0,0.0,0.0,0.0,0.0,-2.6985,-2.7399,-2.8248,-2.8464,-2.9538,-3.2257,-3.0287,-3.0351,-3.4162,-3.274,0.0,0.0,0.0,0.0,0.0,0.0,0.0,-3.7764,-3.7086,-3.7277,-3.8451,-3.8421,-3.862,-3.9116,-3.9337,-3.868,-3.7237,-3.6806,-3.6178,0.0,0.0,0.0,0.0,0.0,-3.5519,0.0,0.0,0.0,0.0,0.0,0.0,0.0,0.0,0.0,0.0,0.0,0.0,0.0,0.0,0.0,0.0,0.0,-4.2961,-4.5547,-4.6024,-4.3815,-4.0953,-3.8868,-3.5579,0.0,0.0,0.0,0.0,-3.1185,-3.1386,-3.1788,-3.3043,-3.4173,-3.5855,-3.8592,0.0,0.0,0.0,0.0,0.0,0.0,0.0,0.0,0.0,0.0,0.0,0.0,0.0,-6.5534,-6.6036,-6.5509,-6.5007,-6.453,-6.4957,-6.4404,-6.2898,-6.34,-6.335,-6.2822,-6.2822,0.0,0.0,0.0,0.0,0.0,-6.2822,-6.2822,-6.2822,-6.2822,-6.2144,-6.119,-6.119,-6.0462,-5.9483,0.0,0.0,0.0,0.0,0.0,0.0,0.0,0.0,0.0,0.0,-2.7427,-2.8372,-3.0037,-3.0491,-3.0951,0.0,0.0,0.0,0.0,0.0,0.0,0.0,0.0,0.0,-3.6972,-3.7342,-3.7358,-3.7093,-3.794,-3.776,-3.6649,-3.9076,-3.8736,-3.6157,-3.6882,-3.6567,0.0,0.0,0.0,0.0,-3.5519,-3.5519,0.0,0.0,0.0,0.0,-3.5519,-3.5519,0.0,0.0,0.0,0.0,0.0,0.0,0.0,0.0,-3.1438,-3.0758,-3.2616,0.0,-3.6734,-3.6458,-3.578,-3.4951,0.0,0.0,0.0,0.0,0.0,0.0,0.0,-3.1386,-3.2164,-3.4575,-3.5881,-3.7437,-3.9798,0.0,0.0,0.0,0.0,0.0,0.0,0.0,0.0,0.0,0.0,0.0,0.0,0.0,-6.5358,-6.5484,-6.4957,-6.4806,-6.5082,-6.4404,-6.3877,-6.3475,-6.3174,-6.2948,-6.2822,-6.2822,0.0,0.0,0.0,0.0,-6.2822,-6.2822,-6.2822,-6.2822,-6.2822,-6.2144,-6.119,-6.119,-6.0462,-5.9483,0.0,0.0,0.0,0.0,0.0,0.0,0.0,0.0,0.0,0.0,-2.6505,-2.7333,-2.8031,-2.9261,-3.017,0.0,0.0,0.0,0.0,0.0,0.0,0.0,0.0,-3.6105,-3.6713,-3.6443,-3.6692,-3.7497,-3.872,-3.8826,-3.7978,-3.974,-3.8957,-3.5902,-3.588,-3.5688,-3.5519,-3.5519,-3.5519,-3.5519,-3.5519,0.0,0.0,0.0,0.0,0.0,-3.5519,-3.5519,0.0,-3.5001,-3.4177,-3.3463,0.0,0.0,0.0,0.0,-3.0921,-2.9854,-3.0156,-3.1461,-3.2742,-3.2692,-3.2692,-3.2541,-3.1964,0.0,0.0,0.0,0.0,0.0,0.0,0.0,0.0,-3.4751,-3.6081,0.0,0.0,0.0,0.0,0.0,0.0,0.0,0.0,0.0,0.0,0.0,0.0,0.0,0.0,0.0,-6.5032,-6.5283,-6.4254,-6.3977,-6.4555,-6.3977,-6.355,-6.3299,-6.2973,-6.2822,-6.2822,-6.2822,0.0,0.0,0.0,0.0,-6.2822,-6.2822,-6.2822,-6.2822,-6.2822,-6.2144,-6.119,-6.119,-6.0462,-5.9483,0.0,0.0,0.0,0.0,0.0,0.0,0.0,0.0,0.0,0.0,0.0,0.0,0.0,0.0,0.0,0.0,0.0,0.0,0.0,0.0,0.0,0.0,-3.4545,-3.4929,-3.6443,-3.5295,-3.5821,-3.8138,-3.9647,-4.0377,-4.0297,-4.0949,-3.9544,-3.6476,-3.4967,-3.4718,-3.5519,-3.5519,-3.5519,-3.5519,-3.5519,0.0,0.0,0.0,0.0,0.0,0.0,0.0,0.0,-3.4312,-3.3325,-3.2379,-3.2522,0.0,0.0,0.0,0.0,0.0,-3.0005,-3.0758,-3.1562,-3.1788,-3.1838,-3.1712,-3.126,0.0,0.0,0.0,0.0,0.0,0.0,0.0,0.0,0.0,0.0,0.0,0.0,0.0,0.0,0.0,0.0,0.0,0.0,0.0,0.0,0.0,0.0,0.0,0.0,0.0,0.0,-6.5157,-6.3802,-6.3224,-6.355,-6.355,-6.3324,-6.2822,-6.2822,-6.2822,-6.2822,-6.2822,-6.2822,0.0,0.0,0.0,-6.2822,-6.2822,-6.2772,-6.2697,-6.2697,-6.2019,-6.104,-6.104,-6.0387,-5.9483,0.0,0.0,0.0,0.0,0.0,0.0,0.0,0.0,0.0,0.0,0.0,0.0,0.0,0.0,0.0,0.0,0.0,0.0,0.0,0.0,0.0,-3.2034,-3.2594,-3.3519,-3.4836,-3.5236,-3.5584,-3.5984,-3.8942,-3.9934,-3.9032,-4.1705,-4.1277,-3.804,-3.6225,-3.5427,-3.5519,-3.5519,-3.5519,-3.5519,0.0,0.0,0.0,0.0,0.0,0.0,0.0,0.0,0.0,-3.4013,-3.2876,-3.1536,-3.2307,0.0,0.0,0.0,0.0,0.0,-3.0909,-3.1612,-3.1788,-3.0482,-3.0156,-3.0156,0.0,0.0,0.0,0.0,0.0,0.0,0.0,0.0,0.0,0.0,0.0,0.0,0.0,0.0,0.0,0.0,0.0,0.0,0.0,0.0,0.0,0.0,0.0,0.0,0.0,0.0,0.0,-6.463,-6.4354,-6.3802,-6.2973,-6.2948,-6.2923,-6.2822,-6.2822,-6.2822,-6.2822,-6.2822,-6.2822,0.0,0.0,-6.2822,-6.2822,-6.2822,-6.2546,-6.2119,-6.2119,-6.1441,-6.0462,-6.0462,-6.0035,-5.9483,0.0,0.0,0.0,0.0,0.0,0.0,0.0,0.0,0.0,0.0,0.0,0.0,0.0,0.0,0.0,0.0,0.0,0.0,0.0,0.0,-3.0505,-3.093,-3.128,-3.2083,-3.347,-3.4789,-3.6058,-3.7075,-4.0397,-4.1418,-4.0181,-3.9142,-3.7849,-3.625,-3.4715,-3.4282,-3.4773,-3.5294,-3.5519,-3.5519,0.0,0.0,0.0,0.0,0.0,0.0,0.0,0.0,0.0,0.0,-3.2307,-3.1193,-3.1119,0.0,0.0,0.0,0.0,0.0,-3.0382,-3.0708,-3.0859,-3.0708,-3.111,-3.1411,0.0,0.0,0.0,0.0,0.0,0.0,0.0,0.0,0.0,0.0,0.0,0.0,0.0,0.0,0.0,0.0,0.0,0.0,0.0,0.0,0.0,0.0,0.0,0.0,0.0,0.0,0.0,0.0,-6.3877,-6.335,-6.2847,-6.2822,-6.2822,-6.2822,-6.2822,-6.2822,-6.2822,-6.2822,-6.2822,-6.2822,0.0,-6.2822,-6.2822,-6.2822,-6.2496,-6.1994,-6.1994,-6.1316,-6.0286,-5.9985,-5.9709,-5.9483,0.0,0.0,0.0,0.0,0.0,0.0,0.0,0.0,0.0,0.0,0.0,0.0,0.0,0.0,0.0,0.0,0.0,0.0,0.0,-2.8996,-2.9498,-3.0226,-3.0398,-3.1464,-3.3495,-3.5118,-3.6985,-3.908,-4.209,-4.2998,-4.1801,-3.7573,-3.5249,-3.48,-3.3284,-3.3155,-3.4013,-3.4839,-3.5294,-3.5519,0.0,0.0,0.0,0.0,0.0,0.0,0.0,0.0,0.0,0.0,0.0,0.0,0.0,0.0,0.0,-2.9804,-2.9804,-2.9854,-3.0105,-3.0156,-3.0407,-3.1336,0.0,0.0,0.0,0.0,0.0,0.0,0.0,0.0,0.0,0.0,0.0,0.0,0.0,0.0,0.0,0.0,0.0,0.0,0.0,0.0,0.0,0.0,0.0,0.0,0.0,0.0,0.0,0.0,0.0,0.0,-6.3475,-6.2973,-6.2822,-6.2822,-6.2822,-6.2822,-6.2822,-6.2822,-6.2822,-6.2822,-6.2822,-6.2822,-6.2822,-6.2747,-6.2647,-6.2647,-6.222,-6.1617,-6.1617,-6.1014,-6.006,-5.9659,-5.9483,-5.9483,0.0,0.0,0.0,0.0,0.0,0.0,0.0,0.0,0.0,0.0,0.0,0.0,0.0,0.0,0.0,0.0,0.0,0.0,0.0,-2.8857,-2.8852,-2.9558,-3.0159,-3.2258,-3.6124,-3.6866,-3.8542,-4.1175,-4.3135,-4.3686,-4.299,-3.9585,-3.7279,-3.5922,-3.3752,-3.3199,-3.4013,-3.4109,-3.461,-3.5519,-3.5519,0.0,0.0,0.0,0.0,0.0,0.0,0.0,0.0,0.0,0.0,0.0,0.0,0.0,-2.9804,-2.9804,-2.9804,-3.0005,-3.1009,-3.126,-3.1411,-3.2014,0.0,0.0,0.0,0.0,0.0,0.0,0.0,0.0,0.0,0.0,0.0,0.0,0.0,0.0,0.0,0.0,0.0,0.0,0.0,0.0,0.0,0.0,0.0,0.0,0.0,0.0,0.0,0.0,0.0,0.0,0.0,-6.3375,-6.2847,-6.2822,-6.2822,-6.2822,-6.2822,-6.2822,-6.2822,-6.2822,-6.2822,-6.2822,-6.2822,-6.2546,-6.2069,-6.2069,-6.1416,-6.0437,-6.0437,-6.0085,-5.9558,-5.9508,-5.9483,-5.9483,0.0,0.0,0.0,0.0,0.0,0.0,0.0,0.0,0.0,0.0,0.0,-2.5106,-2.5345,0.0,0.0,0.0,0.0,0.0,-2.8288,-2.8415,-2.8996,-3.0061,-3.0333,-3.2377,-3.6387,-3.7913,-4.0157,-4.321,-4.4281,-4.4343,-4.3254,-3.867,-3.5955,-3.4689,-3.2645,-3.1937,-3.2307,-3.3533,-3.4245,-3.461,-3.5264,-3.5519,0.0,0.0,0.0,0.0,0.0,0.0,0.0,0.0,-3.1341,-2.9804,-2.9804,-2.9804,-2.9804,-2.9804,-2.9804,-2.988,-3.0281,-3.0884,-3.1512,-3.2064,0.0,0.0,0.0,0.0,0.0,0.0,0.0,0.0,0.0,0.0,0.0,0.0,0.0,0.0,0.0,0.0,0.0,0.0,0.0,0.0,0.0,0.0,0.0,0.0,0.0,0.0,0.0,0.0,0.0,0.0,0.0,-6.3048,-6.2822,-6.2822,-6.2822,-6.2822,-6.2822,-6.2822,-6.2822,-6.2471,-6.232,-6.2295,-6.1943,-6.1692,-6.1492,-6.1492,-6.104,-6.0286,-5.9935,-5.9684,-5.9483,-5.9483,-5.9483,-5.9483,0.0,0.0,0.0,0.0,0.0,0.0,0.0,0.0,-2.361,0.0,0.0,0.0,0.0,-2.5046,0.0,0.0,0.0,0.0,-2.758,-2.8008,-2.8799,-3.0133,-3.0402,-3.2287,-3.6088,-3.8093,-4.0816,-4.4317,-4.4769,-4.404,-4.1852,-3.7591,-3.5077,-3.4048,-3.2114,-3.1548,-3.2061,-3.299,-3.3424,-3.3602,-3.4341,-3.4543,0.0,0.0,0.0,0.0,0.0,0.0,0.0,0.0,-3.1119,-2.9804,-2.9804,-2.9804,-2.9804,-2.9804,-2.9654,-2.9553,-2.9754,-3.0331,-3.111,-3.1989,0.0,0.0,0.0,0.0,0.0,0.0,0.0,0.0,0.0,0.0,0.0,0.0,0.0,0.0,0.0,0.0,0.0,0.0,0.0,0.0,0.0,0.0,0.0,0.0,0.0,0.0,0.0,0.0,0.0,0.0,0.0,0.0,-6.2822,-6.2822,-6.2747,-6.2571,-6.2571,-6.2571,-6.2546,-6.1994,-6.1743,-6.1718,-6.1341,-6.109,-6.0914,-6.0914,-6.0563,-6.001,-5.9633,-5.9483,-5.9483,-5.9483,-5.9483,-5.9483,0.0,0.0,0.0,0.0,0.0,0.0,0.0,0.0,-2.361,-2.361,-2.361,0.0,0.0,0.0,0.0,0.0,0.0,0.0,-2.758,-2.761,-2.824,-2.9535,-3.0163,-3.2048,-3.54,-3.7375,-4.0337,-4.4317,-4.4407,-4.2521,-3.8793,-3.6584,-3.5228,-3.46,-3.239,-3.226,-3.3566,-3.2462,-3.2219,-3.2593,-3.2593,-3.2593,-3.2664,0.0,0.0,0.0,0.0,0.0,0.0,0.0,-3.0545,-2.9804,-2.9804,-2.9804,-2.9804,-2.9804,-2.9377,-2.9076,-2.9628,-2.9804,-3.0206,0.0,0.0,0.0,0.0,0.0,0.0,0.0,0.0,0.0,0.0,0.0,0.0,0.0,0.0,0.0,0.0,0.0,0.0,0.0,0.0,0.0,0.0,0.0,0.0,0.0,0.0,0.0,0.0,0.0,0.0,0.0,0.0,0.0,-6.2822,-6.2822,-6.2546,-6.1994,-6.1994,-6.1994,-6.1969,-6.1441,-6.1165,-6.1165,-6.1165,-6.0839,-6.0311,-6.0311,-5.9985,-5.9483,-5.9483,-5.9483,-5.9483,-5.9483,-5.9483,-5.9483,0.0,0.0,0.0,0.0,0.0,0.0,0.0,0.0,-2.4148,-2.367,-2.4029,0.0,0.0,0.0,0.0,0.0,0.0,0.0,-2.758,-2.761,-2.824,-2.9535,-2.9744,-3.0971,-3.3365,-3.6237,-3.9387,-4.2707,-4.2744,-4.092,-3.7557,-3.5796,-3.4248,-3.2943,-3.2692,-3.218,-3.1516,-3.1837,-3.1845,-3.1683,-3.2307,-3.2593,-3.2593,0.0,0.0,0.0,0.0,0.0,0.0,0.0,0.0,0.0,-2.9804,-3.0055,-3.0306,-2.9905,-2.9955,-3.008,-2.9854,0.0,0.0,0.0,0.0,0.0,0.0,0.0,0.0,0.0,0.0,0.0,0.0,0.0,0.0,0.0,0.0,0.0,0.0,0.0,0.0,0.0,0.0,0.0,0.0,0.0,0.0,0.0,0.0,0.0,0.0,0.0,0.0,0.0,0.0,0.0,-6.1667,-6.1667,-6.1592,-6.1416,-6.1014,-6.104,-6.1416,-6.0839,-6.0588,-6.0563,-6.0161,-5.9885,-5.9734,-5.9734,-5.9633,-5.9458,-5.9081,-5.8956,-5.8905,-5.8504,-5.8378,-5.8378,0.0,0.0,0.0,0.0,0.0,0.0,-2.4204,-2.4654,-2.4866,-2.4448,-2.4747,-2.4866,0.0,0.0,0.0,-2.5944,-2.6363,0.0,-2.758,-2.761,-2.824,-2.9535,-2.9804,-3.1001,-3.3245,-3.5998,-3.7937,-3.9102,-4.0347,-3.9133,-3.566,-3.562,-3.473,-3.3244,-3.4022,-3.3596,-3.2215,-3.2367,-3.1889,-3.1033,-3.1611,-3.1835,-3.1809,0.0,0.0,0.0,0.0,0.0,0.0,0.0,0.0,0.0,-2.9804,-3.003,-3.0231,-2.988,-2.9854,-2.993,-2.9829,0.0,0.0,0.0,0.0,0.0,0.0,0.0,0.0,0.0,0.0,0.0,0.0,0.0,0.0,0.0,0.0,0.0,0.0,0.0,0.0,0.0,0.0,0.0,0.0,0.0,0.0,0.0,0.0,0.0,0.0,0.0,0.0,0.0,0.0,0.0,-6.119,-6.119,-6.1065,-6.0839,-6.0487,-6.0387,-6.0487,-6.0161,-5.9985,-5.996,-5.9633,-5.9382,-5.9182,-5.9182,-5.9056,-5.883,-5.936,-5.8958,-5.8505,-5.885,-5.845,-5.7901,0.0,0.0,-2.4267,-2.4009,0.0,0.0,-2.3952,-2.4911,-2.5674,-2.5615,-2.5644,-2.5674,0.0,0.0,0.0,-2.6542,-2.6632,-2.6931,-2.758,-2.761,-2.824,-2.9535,-3.0283,-3.1809,-3.4233,-3.6118,-3.6148,-3.4292,-3.7564,-3.7191,-3.3542,-3.5851,-3.607,-3.4625,-3.583,-3.568,-3.45,-3.3395,-3.1989,-3.0532,-3.0532,-3.0532,-3.0561,-3.0953,0.0,0.0,0.0,0.0,0.0,0.0,0.0,0.0,-2.9779,-2.9829,-2.9854,-2.9804,-2.9453,-2.9227,0.0,0.0,0.0,0.0,0.0,0.0,0.0,0.0,0.0,0.0,0.0,0.0,0.0,0.0,0.0,0.0,0.0,0.0,0.0,0.0,0.0,0.0,0.0,0.0,0.0,0.0,0.0,0.0,0.0,0.0,0.0,0.0,0.0,0.0,0.0,0.0,-6.0964,-6.1014,-6.0738,0.0,-6.0161,-5.991,-5.9433,-5.9483,-5.9458,-5.9408,-5.9382,-5.9081,-5.8654,-5.8654,-5.8505,-5.8301,-5.9919,-5.9627,-5.8498,-6.0132,-5.9523,-5.7949,0.0,0.0,-2.361,-2.5558,0.0,0.0,-2.5056,-2.5855,-2.6183,-2.5674,-2.6063,-2.6183,-2.5674,-2.6063,0.0,-2.6572,-2.7051,-2.746,-2.761,-2.761,-2.824,-2.9535,-3.118,-3.2347,-3.2916,-3.3873,-3.3873,-3.2946,-3.5496,-3.5164,-3.2136,-3.4918,-3.527,-3.352,-3.5479,-3.5278,-3.3345,-3.224,-3.106,-2.998,-2.998,-2.998,-2.9955,-3.0036,-2.9707,0.0,0.0,0.0,0.0,0.0,0.0,0.0,-2.9654,-3.008,-3.0357,-2.9905,-3.0005,-3.0457,0.0,0.0,0.0,0.0,0.0,0.0,0.0,0.0,0.0,0.0,0.0,0.0,0.0,0.0,0.0,0.0,0.0,0.0,0.0,0.0,0.0,0.0,0.0,0.0,0.0,0.0,0.0,0.0,0.0,0.0,0.0,0.0,0.0,0.0,0.0,-6.0111,-5.9257,-5.9659,-5.9583,0.0,-5.9056,-5.9006,-5.8905,-5.9307,-5.9282,-5.8855,-5.8428,-5.8177,-5.8077,-5.8077,-5.885,-6.0091,-5.9883,-6.0501,-6.143,-6.1356,-5.9931,-5.8157,0.0,0.0,0.0,0.0,0.0,0.0,0.0,0.0,-2.6046,-2.6029,-2.6344,-2.6553,-2.6523,-2.6871,0.0,0.0,-2.743,-2.761,-2.761,-2.761,-2.8308,-2.9953,-3.1629,-3.2647,-3.2976,-3.3335,-3.3185,-3.2527,-3.4056,-3.3984,-3.237,-3.4869,-3.5257,-3.3802,-3.5628,-3.5127,-3.3043,-3.2441,-3.1411,-3.0181,-3.0181,-3.0181,-3.0156,-2.9905,-2.9277,-2.8524,-2.8524,0.0,0.0,0.0,0.0,0.0,0.0,0.0,-3.0156,-2.988,-3.0005,-3.0407,0.0,0.0,0.0,0.0,0.0,0.0,0.0,0.0,0.0,0.0,0.0,0.0,0.0,0.0,0.0,0.0,0.0,0.0,0.0,0.0,0.0,0.0,0.0,0.0,0.0,0.0,0.0,0.0,0.0,0.0,0.0,0.0,0.0,0.0,-5.9307,-5.888,-5.8328,-5.8604,-5.8604,-5.8328,-5.8328,-5.8177,-5.7926,-5.8478,-5.8579,-5.8303,-5.8027,-5.775,-5.7474,-5.7474,-5.7892,-5.8559,-6.0021,-6.0723,-6.0945,-6.2403,-6.1342,-5.9291,0.0,0.0,0.0,0.0,0.0,0.0,0.0,0.0,0.0,-2.639,-2.6611,-2.6905,-2.7539,-2.773,-2.7739,0.0,0.0,0.0,-2.779,-2.7739,-2.8577,-3.0432,-3.1689,-3.2706,-3.3484,-3.3484,-3.3215,-3.2677,-3.3335,-3.3583,-3.3427,-3.5093,-3.5332,-3.4376,-3.5556,-3.4951,-3.3068,-3.2867,-3.1938,-3.0608,-3.0507,-3.0482,-3.0432,-2.9955,-2.9151,-2.8247,-2.8247,-2.8197,-2.8197,-2.875,0.0,0.0,0.0,0.0,-2.9804,-2.9804,-2.9804,-2.9955,0.0,0.0,0.0,0.0,0.0,0.0,0.0,0.0,0.0,0.0,0.0,0.0,0.0,0.0,0.0,0.0,0.0,0.0,0.0,0.0,0.0,0.0,0.0,0.0,0.0,0.0,0.0,0.0,0.0,0.0,0.0,0.0,-5.8981,-5.8453,-5.8001,-5.765,-5.7474,-5.765,-5.77,-5.76,-5.76,-5.7298,-5.6771,-5.7148,-5.7374,-5.7449,-5.7374,-5.7047,-5.662,-5.6721,-5.6566,-5.6759,-6.0183,-6.0811,-5.9967,-6.3277,-6.2979,-6.0802,0.0,0.0,0.0,0.0,0.0,0.0,0.0,0.0,0.0,0.0,-2.6985,-2.7453,-2.7569,-2.8098,-2.8457,-2.8457,-2.7919,-2.7829,-2.8427,0.0,0.0,-3.0432,-3.124,-3.2228,-3.3455,-3.3484,-3.3455,-3.3365,-3.4023,-3.4404,-3.4552,-3.5481,-3.5197,-3.3855,-3.459,-3.4248,-3.3018,-3.2039,-3.1235,-3.0583,-3.0105,-2.9905,-2.9905,-2.9829,-2.9377,-2.8825,-2.8825,-2.8499,-2.8197,-2.875,-2.8976,0.0,0.0,0.0,-2.9804,-2.9804,-2.9804,0.0,0.0,0.0,0.0,0.0,0.0,0.0,0.0,0.0,0.0,0.0,0.0,0.0,0.0,0.0,0.0,0.0,0.0,0.0,0.0,0.0,0.0,0.0,0.0,0.0,0.0,0.0,0.0,0.0,0.0,0.0,0.0,-5.8152,-5.7851,-5.7273,-5.7198,-5.6696,-5.5742,-5.6671,-5.6922,-5.6445,-5.6445,-5.6143,-5.5591,-5.5189,-5.5265,-5.5691,-5.5214,-5.4963,-5.4938,-5.5415,-5.6213,-5.7393,-6.0402,-6.1753,-6.232,-6.4858,-6.393,-6.1404,0.0,0.0,0.0,0.0,0.0,0.0,0.0,0.0,0.0,0.0,0.0,-2.6972,-2.7919,-2.8261,-2.8483,-2.8584,-2.8338,-2.8128,-2.8038,-2.8038,-2.8607,-2.9924,-3.0612,-3.1749,-3.3455,-3.3484,-3.3664,-3.4053,-3.4322,-3.4581,-3.4711,-3.5537,-3.5413,-3.4559,-3.4336,-3.3822,-3.2993,-3.1863,-3.1085,-3.0557,-3.0005,-2.9804,-2.9804,-2.9804,-2.9428,-2.8976,-2.9302,-2.9051,-2.8649,-2.9227,-2.9402,-2.9453,-2.9704,0.0,0.0,0.0,0.0,0.0,0.0,0.0,0.0,0.0,0.0,0.0,0.0,0.0,0.0,0.0,0.0,0.0,0.0,0.0,0.0,0.0,0.0,0.0,0.0,0.0,0.0,0.0,0.0,0.0,0.0,0.0,0.0,0.0,0.0,0.0,-5.7424,-5.6821,-5.6369,-5.6118,-5.5817,-5.5415,-5.4938,-5.5415,-5.5541,-5.529,-5.529,-5.4988,-5.4436,-5.4185,-5.4386,-5.4913,-5.4662,-5.4561,-5.4587,-5.4838,-5.5842,-5.7376,-5.9718,-6.1312,-6.2592,-6.4692,-6.4337,-6.291,0.0,0.0,0.0,0.0,0.0,0.0,0.0,0.0,0.0,0.0,0.0,-2.6459,-2.7824,0.0,0.0,0.0,-2.8412,-2.8128,-2.764,-2.761,-2.824,-2.9535,-3.0013,-3.127,-3.3455,-3.3484,-3.3903,-3.4741,-3.4741,-3.4949,-3.5187,-3.5825,-3.6163,-3.6159,-3.506,-3.4073,-3.3244,-3.239,-3.1813,-3.1361,-3.0382,-3.0005,-2.998,-2.9854,-2.9528,-2.9227,-2.9804,-2.9729,-2.9453,-3.0005,-3.0105,-3.0005,-3.0005,-2.9905,0.0,0.0,0.0,0.0,0.0,0.0,0.0,0.0,0.0,0.0,0.0,0.0,0.0,0.0,0.0,0.0,0.0,0.0,0.0,0.0,0.0,0.0,0.0,0.0,0.0,0.0,0.0,0.0,0.0,0.0,0.0,0.0,0.0,0.0,-5.642,-5.5616,-5.5114,-5.4963,-5.4561,-5.4285,-5.416,-5.4285,-5.4411,-5.4561,-5.4411,-5.411,-5.3708,-5.3948,-5.4377,-5.4784,-5.4784,-5.4784,-5.481,-5.5468,-5.6353,-5.7571,-5.969,-6.1048,-6.2072,-6.4069,-6.4336,-6.3767,0.0,0.0,0.0,0.0,0.0,0.0,0.0,0.0,0.0,0.0,0.0,-2.6363,-2.6973,-2.7371,-2.7734,-2.8281,-2.7918,-2.767,-2.761,-2.761,-2.824,-2.9535,-2.9624,0.0,-3.3425,-3.3484,-3.4143,-3.5459,-3.5459,-3.5851,-3.6606,-3.6607,-3.7414,-3.8642,-3.7031,-3.5353,-3.3847,-3.3796,-3.3746,-3.3545,-3.1411,-3.0583,-3.0507,-2.998,-2.9779,-2.9829,-3.0382,-3.0557,-3.0608,-3.1135,-3.0984,-3.0583,-3.0583,-3.0206,-2.9804,0.0,0.0,0.0,0.0,0.0,0.0,0.0,0.0,0.0,0.0,0.0,0.0,0.0,0.0,0.0,0.0,0.0,0.0,0.0,0.0,0.0,0.0,0.0,0.0,0.0,0.0,0.0,0.0,0.0,0.0,0.0,0.0,0.0,-5.4712,-5.4637,-5.4361,-5.3808,-5.3758,-5.3507,-5.3005,-5.3507,-5.4009,-5.4561,-5.4009,-5.3733,-5.3683,-5.4827,-5.5366,-5.5393,-5.5393,-5.5393,-5.5551,-5.7662,-5.8356,-5.8198,-6.1046,-6.1537,-6.0894,-6.318,-6.3647,-6.3139,0.0,0.0,0.0,0.0,0.0,0.0,0.0,0.0,0.0,0.0,0.0,0.0,0.0,-2.7552,-2.7769,-2.8088,-2.8082,-2.8106,-2.8248,-2.7771,-2.7886,-2.8706,-2.834,-2.9288,-3.2006,-3.2474,-3.3402,-3.4831,-3.528,-3.5703,-3.6023,-3.6105,-3.6507,-3.7088,-3.659,-3.6056,-3.5403,-3.3972,-3.3144,-3.2692,-3.121,-3.0608,-3.0557,-3.0005,-2.9804,0.0,0.0,0.0,0.0,-3.0834,-3.0984,-3.111,-3.111,-3.0758,-3.0256,-2.9905,-2.9804,-3.0206,0.0,0.0,0.0,0.0,0.0,0.0,0.0,0.0,0.0,0.0,0.0,0.0,0.0,0.0,0.0,0.0,0.0,0.0,0.0,0.0,0.0,0.0,0.0,0.0,0.0,0.0,0.0,0.0,0.0,0.0,-5.4009,-5.3708,-5.3406,-5.3206,-5.3206,-5.3105,-5.2929,-5.3105,-5.3306,-5.3507,-5.3306,-5.3206,-5.3206,-5.4753,-5.5419,-5.5551,-5.7696,-5.8076,-5.7112,-5.7971,-5.8829,-5.9655,-6.0754,-6.1546,-6.2321,-6.3056,-6.3258,-6.3079,0.0,0.0,0.0,-2.5661,0.0,-2.5787,-2.6433,-2.6533,-2.6533,-2.6533,0.0,0.0,0.0,0.0,-2.7227,-2.7632,-2.7785,-2.7912,-2.8068,-2.7567,-2.757,-2.8193,-2.775,-2.8502,-3.0757,-3.1731,-3.278,-3.4061,-3.5031,-3.5633,-3.5968,-3.5731,-3.5925,-3.6358,-3.5989,-3.6132,-3.6558,0.0,0.0,-3.3445,-3.1612,-3.121,-3.1662,-3.111,0.0,0.0,0.0,0.0,0.0,-3.0696,-3.0909,-3.1329,-3.1174,-3.0959,-3.0809,-3.0432,-3.0206,-3.0331,-3.1587,0.0,0.0,0.0,0.0,0.0,0.0,0.0,0.0,0.0,0.0,0.0,0.0,0.0,0.0,0.0,0.0,0.0,0.0,0.0,0.0,0.0,0.0,0.0,0.0,0.0,0.0,0.0,0.0,0.0,-5.3457,-5.3105,-5.2929,-5.2929,-5.2929,-5.2929,-5.2929,-5.2929,-5.2929,-5.2929,-5.2929,-5.2929,-5.2929,-5.4675,-5.5683,-5.644,-5.9228,-5.9872,-5.8856,-5.9503,-6.0387,-6.1377,-6.1377,-6.2028,-6.3079,-6.3079,-6.3079,-6.3079,-2.546,-2.4732,-2.4531,-2.6231,-2.5988,-2.5812,-2.6389,-2.6533,-2.6533,-2.6559,0.0,0.0,0.0,0.0,0.0,-2.7023,-2.7083,-2.7083,-2.7056,-2.7056,-2.733,-2.7996,-2.7961,-2.8573,-2.9951,-3.1375,-3.2457,-3.3223,-3.4741,-3.581,-3.6379,-3.5502,-3.5683,-3.6865,-3.5353,-3.5579,-3.7061,0.0,-3.6307,-3.6031,0.0,-3.2441,-3.3847,0.0,0.0,0.0,-3.3696,-3.3571,0.0,-3.1048,-3.0882,-3.134,-3.0663,-3.081,-3.1436,-3.1411,-3.1035,-3.0758,0.0,0.0,0.0,0.0,0.0,0.0,0.0,0.0,0.0,0.0,0.0,0.0,0.0,0.0,0.0,0.0,0.0,0.0,0.0,0.0,0.0,0.0,0.0,0.0,0.0,0.0,0.0,0.0,0.0,-5.3457,-5.2955,-5.2929,-5.2929,-5.2904,-5.2904,-5.2904,-5.2904,-5.2904,-5.2904,-5.2929,-5.2929,-5.2929,-5.2929,-5.4675,-5.6337,-5.8131,-5.9749,-6.048,-6.075,-6.2409,-6.3079,-6.3079,-6.3079,-6.3079,-6.3079,-6.3079,-6.3079,-6.3079,-2.4481,-2.4531,-2.4858,-2.5686,-2.6038,-2.6414,-2.6967,-2.6716,-2.6741,0.0,0.0,0.0,-2.7595,-2.7582,-2.7842,-2.8678,-2.8745,-2.8825,-2.8912,-2.8406,-2.8186,-2.8306,-2.7404,-2.7785,-2.9533,-2.9969,-3.1169,-3.312,-3.4022,-3.4506,-3.4679,-3.4102,-3.4167,-3.4616,-3.4234,-3.4374,-3.4801,-3.465,0.0,0.0,-3.3294,-3.337,0.0,0.0,0.0,0.0,0.0,-3.4299,0.0,0.0,-3.2476,-3.2683,-3.1294,-3.0978,-3.1172,-3.1365,-3.1286,-3.121,-3.1361,0.0,0.0,0.0,0.0,0.0,0.0,0.0,0.0,0.0,0.0,0.0,0.0,0.0,0.0,0.0,0.0,0.0,0.0,0.0,0.0,0.0,0.0,0.0,0.0,0.0,0.0,0.0,-5.3356,-5.308,-5.2929,-5.2929,-5.2754,-5.2352,-5.2327,-5.2327,-5.2327,-5.2327,-5.2528,-5.2929,-5.2929,-5.2929,-5.2929,-5.4675,-5.6337,-5.8131,-5.9749,-6.1258,-6.2438,-6.2933,-6.3079,-6.3079,-6.3079,-6.3079,-6.3079,-6.3079,-6.3079,-6.3079,-2.5034,-2.5084,-2.531,-2.5862,-2.6414,-2.6917,-2.7243,-2.7193,-2.7369,0.0,0.0,0.0,-2.8072,-2.8097,-2.8315,-2.8769,-2.8841,-2.8898,-2.9045,-2.8604,-2.835,-2.828,-2.7576,-2.7703,-2.8841,-2.9502,-3.0546,-3.1972,-3.3317,-3.3808,-3.3394,-3.3167,-3.2915,-3.2672,-3.2612,-3.2641,-3.2867,0.0,0.0,0.0,-3.3771,0.0,0.0,-3.5303,-3.5328,0.0,0.0,0.0,-3.5405,-3.2328,-3.1951,0.0,0.0,0.0,-3.2576,-3.2685,-3.2616,-3.2441,-3.2441,-3.2265,-3.2265,0.0,0.0,0.0,-3.4374,-3.5981,0.0,0.0,0.0,0.0,0.0,0.0,0.0,0.0,0.0,0.0,0.0,0.0,0.0,0.0,0.0,0.0,0.0,0.0,0.0,0.0,-5.3105,-5.2929,-5.2929,-5.2703,-5.2427,-5.2126,-5.1875,-5.1749,-5.1749,-5.1749,-5.1925,-5.2251,-5.2477,-5.2578,-5.2603,-5.3817,-5.5314,-5.6956,-5.8731,-6.0387,-6.2028,-6.2817,-6.3079,-6.3079,-6.3079,-6.3079,-6.3079,-6.3079,-6.3079,-6.3079,0.0,-2.5912,-2.5762,-2.6332,-2.6866,-2.7318,-2.7444,-2.7821,-2.8172,0.0,-2.8373,-2.8373,-2.8373,-2.8373,-2.8398,-2.8473,-2.8373,-2.8348,-2.8473,-2.8348,-2.8323,-2.8373,-2.8273,-2.8222,-2.8298,-2.9559,-3.0329,-3.0527,-3.2626,-3.3227,-3.2451,-3.2533,-3.2055,-3.1101,-3.0877,-3.1009,-3.1436,0.0,0.0,-3.4424,-3.4173,-3.5353,0.0,0.0,-3.814,0.0,-3.6783,-3.6526,-3.6121,-3.1495,-3.052,0.0,0.0,0.0,-3.4139,-3.4512,-3.423,-3.3895,-3.4073,-3.3721,-3.3671,-3.5027,0.0,0.0,-3.4851,-3.47,-3.4726,0.0,0.0,0.0,0.0,0.0,0.0,0.0,0.0,0.0,0.0,0.0,0.0,0.0,0.0,0.0,0.0,0.0,-5.2929,-5.2929,-5.2879,-5.2829,-5.2829,-5.2302,-5.1975,-5.1925,-5.1448,-5.1197,-5.1197,-5.1197,-5.1222,-5.1297,-5.185,-5.2101,-5.2126,-5.2678,-5.392,-5.5814,-5.7369,-5.9008,-6.087,-6.2438,-6.3079,-6.3079,-6.3079,-6.3079,-6.3079,-6.3079,-6.3079,-6.3079,-2.5209,-2.5385,-2.5636,-2.5737,-2.6615,-2.757,-2.8473,-2.8323,-2.8599,-2.9955,-3.0131,-3.0131,-3.0131,-3.0131,-3.0306,-3.0708,-2.9955,-2.9829,-3.0683,-2.9955,-2.9654,-3.0105,-2.9252,-2.8976,-2.9453,-2.9252,-2.9776,-3.1008,-3.1556,-3.1683,-3.1462,-3.1942,-3.1601,-3.0773,-3.1543,-3.1712,-3.1461,0.0,0.0,-3.2842,-3.455,0.0,-3.7914,-3.8492,-3.8969,-3.9421,-3.9536,-3.9929,-3.975,0.0,-3.2317,-3.0045,0.0,0.0,0.0,-3.3523,-3.3983,-3.3857,-3.4927,0.0,0.0,0.0,0.0,0.0,-3.3771,-3.4776,-3.6031,0.0,0.0,0.0,0.0,0.0,0.0,0.0,0.0,0.0,0.0,0.0,0.0,0.0,0.0,0.0,0.0,0.0,-5.2929,-5.2929,-5.2528,-5.2277,-5.2277,-5.1749,-5.1222,-5.077,-5.0645,-5.0594,-5.0594,-5.0594,-5.082,-5.1297,-5.185,-5.2101,-5.2126,-5.2678,-5.4567,-5.7496,-5.7878,-5.9777,-6.2672,-6.2933,-6.3079,-6.3079,-6.3079,-6.3079,-6.3079,-6.3079,-6.3079,-6.3079,-2.5737,-2.6063,-2.644,-2.644,-2.7143,-2.7971,-2.88,-2.9176,-2.9654,-3.0507,-3.1085,-3.1411,-3.1411,-3.1662,-3.1838,-3.1813,-3.1562,-3.1411,-3.1386,-3.116,-3.1009,-3.1009,-3.0206,-2.9905,-3.0206,-2.993,-2.9985,-3.0495,-3.1258,-3.1313,-3.0907,-3.1703,-3.1474,-3.0658,-3.1738,-3.1913,-3.1486,0.0,-3.347,-3.3621,-3.5278,0.0,-3.7265,-3.8177,-3.8794,-3.914,-3.8055,-3.7497,-3.676,-3.456,-3.2871,0.0,0.0,-3.1678,-3.2389,0.0,-3.5046,-3.4939,0.0,0.0,0.0,-3.568,0.0,0.0,0.0,-3.4349,0.0,0.0,0.0,0.0,0.0,0.0,0.0,0.0,0.0,0.0,0.0,0.0,0.0,0.0,0.0,0.0,0.0,0.0,-5.18,-5.2076,-5.185,-5.1699,-5.1699,-5.1172,-5.0594,-5.0017,-4.9741,-4.959,-4.959,-4.959,-4.9891,-5.0444,-5.0996,-5.1272,-5.1272,-5.2578,-5.421,-5.5961,-5.7589,-5.9371,-6.141,-6.2195,-6.278,-6.3079,-6.3079,-6.3079,-6.3079,-6.3079,-6.3079,-6.3079,-2.6684,-2.6892,-2.7293,-2.7293,-2.7821,-2.8448,-2.9001,-2.9955,-3.0683,-3.0884,-3.1514,-3.2003,-3.2003,-3.2055,-3.2007,-3.1871,-3.181,-3.1833,-3.1744,-3.1754,-3.1555,-3.1232,-3.1054,-3.0728,-3.0263,-3.0628,-3.0557,-3.0105,-3.1319,-3.1473,-3.0758,-3.1784,-3.1808,-3.1135,-3.1989,-3.2265,-3.2114,0.0,0.0,-3.4675,0.0,-3.6684,-3.6864,-3.7853,-3.8603,-3.8723,-3.6622,-3.4964,-3.3565,-3.3049,0.0,-3.3217,-3.2488,-3.2797,0.0,0.0,0.0,0.0,0.0,0.0,0.0,0.0,0.0,-3.583,0.0,0.0,0.0,0.0,0.0,0.0,0.0,0.0,0.0,0.0,0.0,0.0,0.0,0.0,0.0,0.0,0.0,0.0,0.0,0.0,-4.9967,-5.0745,-5.0494,-5.0469,-5.077,-5.0243,-4.9715,-4.9289,-4.8837,-4.8611,-4.8611,-4.8611,-4.8887,-4.9439,-4.9992,-5.0318,-5.0444,-5.2569,-5.3832,-5.4313,-5.7246,-5.9071,-6.0061,-6.146,-6.248,-6.3079,-6.3079,-6.3079,-6.3079,-6.3079,-6.3079,-6.3079,-2.6766,-2.6892,-2.7293,-2.7293,-2.8147,-2.9026,-2.9603,-3.0206,-3.0959,-3.1913,-3.1577,-3.1304,-3.1304,-2.9648,-2.9126,-3.0755,0.0,0.0,-3.2817,0.0,-3.0302,-3.0711,-3.1536,-3.1125,-2.9162,-3.0523,-3.126,-3.121,-3.1423,-3.1367,-3.1311,-3.2483,-3.2962,-3.2792,-3.2918,-3.3495,0.0,0.0,-3.3947,0.0,-3.6784,-3.7814,0.0,-3.8551,-3.9125,-3.9423,-3.9062,-3.7967,-3.6476,0.0,-3.4289,-3.2804,0.0,-3.1465,0.0,0.0,0.0,0.0,0.0,0.0,0.0,0.0,-3.927,0.0,0.0,0.0,0.0,0.0,0.0,0.0,0.0,0.0,0.0,0.0,0.0,0.0,0.0,0.0,0.0,0.0,0.0,0.0,0.0,0.0,0.0,-4.8937,-4.7707,-4.7506,-4.8987,-4.851,-4.8159,-4.8109,-4.8033,-4.8008,-4.8008,-4.8008,-4.8284,-4.8862,-4.9414,-4.9941,-5.0444,-5.2569,-5.444,-5.5936,-5.7752,-5.9714,-6.1834,-6.1978,-6.248,-6.3079,-6.3079,-6.3079,-6.3079,-6.3079,-6.3079,-6.3079,-2.762,-2.7871,-2.8247,-2.8247,-2.8624,-2.9126,-2.9704,-3.036,-3.143,-3.3433,-3.2531,-3.2291,-3.3573,0.0,0.0,0.0,0.0,0.0,0.0,0.0,-3.0285,-3.0995,-3.0926,-3.0772,-3.0612,-3.1351,-3.1958,-3.2365,-3.2692,-3.2842,-3.2842,-3.3345,-3.3545,-3.3571,-3.3897,0.0,-3.3847,0.0,0.0,0.0,0.0,0.0,0.0,-3.7786,-3.7222,-3.6767,-3.6728,-3.6521,-3.5992,0.0,-3.4286,0.0,0.0,0.0,0.0,0.0,0.0,0.0,0.0,0.0,0.0,0.0,0.0,0.0,0.0,0.0,-3.7814,0.0,0.0,0.0,0.0,0.0,0.0,0.0,0.0,0.0,0.0,0.0,0.0,0.0,0.0,0.0,0.0,0.0,0.0,0.0,0.0,-4.5171,-4.5849,-4.6276,-4.6502,-4.6502,-4.6803,-4.6979,-4.6979,-4.7305,-4.7732,-4.8284,-4.8837,-4.9238,-4.9618,-5.2686,-5.4406,-5.528,-5.7772,-5.9681,-6.0954,-6.1373,-6.1912,-6.254,-6.2929,-6.3079,-6.3079,-6.3079,-6.3079,-6.3079,-2.7773,-2.8349,-2.8925,-2.8925,-2.9051,-2.9453,-3.0331,-3.0919,-3.1955,-3.4244,-3.2892,0.0,-3.4607,-3.3435,0.0,0.0,0.0,-3.1365,0.0,0.0,-3.0229,-3.0285,0.0,0.0,-3.0905,-3.1808,-3.2544,-3.3168,-3.382,-3.4123,-3.4123,-3.4274,-3.4349,-3.4374,-3.4776,-3.46,-3.4098,0.0,0.0,-3.6182,-3.8266,-3.8736,-3.7944,-3.7132,-3.5945,-3.4726,-3.4844,-3.5254,-3.5625,-3.4863,-3.4687,0.0,-3.4277,0.0,0.0,0.0,0.0,0.0,-3.6121,0.0,0.0,0.0,0.0,0.0,0.0,0.0,0.0,0.0,0.0,0.0,0.0,0.0,-3.6759,-3.6609,0.0,0.0,0.0,0.0,0.0,0.0,0.0,0.0,0.0,0.0,0.0,0.0,0.0,0.0,-4.3087,-4.4041,-4.4719,-4.502,-4.5547,-4.5849,-4.5849,-4.6401,-4.6954,-4.7481,-4.8058,-4.841,-4.8661,-5.2433,-5.4138,-5.4373,-5.7605,-5.9488,-6.0146,-6.0835,-6.1493,-6.2151,-6.281,-6.3079,-6.3079,-6.3079,-6.3079,-6.3079,-2.6521,-2.7837,-2.8925,-2.8925,-2.9402,-3.0306,-3.1888,-3.2025,-3.2462,0.0,0.0,0.0,0.0,0.0,0.0,0.0,0.0,-2.9879,-3.1996,0.0,-2.9547,0.0,0.0,0.0,0.0,-3.1536,-3.3291,-3.3291,-3.4262,-3.47,-3.47,-3.5253,-3.5504,-3.5504,-3.5504,-3.5805,-3.6282,-3.691,-3.7136,-3.7287,-3.8994,-3.8214,-3.6072,0.0,-3.6097,-3.4766,-3.5215,0.0,0.0,-3.6113,-3.623,0.0,0.0,0.0,0.0,0.0,0.0,0.0,0.0,0.0,0.0,-3.6263,0.0,0.0,0.0,0.0,-3.9973,0.0,0.0,0.0,0.0,-3.7965,-3.7789,-3.7236,-3.7161,0.0,0.0,0.0,0.0,0.0,0.0,0.0,0.0,0.0,0.0,0.0,0.0,0.0,-4.1279,-4.1957,-4.276,-4.3815,-4.4392,-4.4669,-4.4669,-4.5246,-4.5824,-4.6376,-4.6928,-4.7456,-4.8082,-5.1788,-5.3475,-5.3735,-5.7511,-5.9488,-6.0146,-6.0835,-6.1493,-6.2151,-6.281,-6.3079,-6.3079,-6.3079,-6.3079,-6.3079,-2.6648,-2.7485,-2.8162,-2.7449,0.0,-3.0686,-3.1816,-3.1693,0.0,0.0,0.0,0.0,0.0,0.0,-3.4258,0.0,0.0,-3.2568,-3.3034,-3.1237,0.0,0.0,0.0,-3.0653,0.0,0.0,-3.2635,-3.3458,-3.4402,-3.4848,-3.4945,-3.5685,-3.6081,-3.6081,-3.5705,-3.5655,0.0,0.0,0.0,0.0,0.0,-3.7833,-3.7183,0.0,0.0,-3.4336,-3.4766,-3.5488,0.0,-3.6406,-3.6348,-3.6269,-3.6406,-3.5762,-3.5073,-3.558,-3.5218,0.0,0.0,0.0,-3.7119,-3.5228,0.0,0.0,0.0,0.0,0.0,0.0,0.0,0.0,0.0,-3.8266,-3.7814,-3.7287,-3.7186,-3.6985,0.0,0.0,0.0,0.0,0.0,0.0,0.0,0.0,0.0,0.0,0.0,0.0,0.0,-3.927,-4.0651,-4.2133,-4.3062,-4.3714,-4.4066,-4.4644,-4.5196,-4.5773,-4.6326,-4.6878,-4.7431,-5.0575,-5.2533,-5.3591,-5.6335,-5.8283,-5.9488,-6.0146,-6.0565,-6.0864,-6.2002,-6.2421,-6.248,-6.2929,-6.3079,-6.3079,-2.5421,-2.6263,-2.7158,-2.708,0.0,0.0,0.0,0.0,0.0,0.0,-3.3983,0.0,-3.7637,0.0,-3.6934,0.0,-3.6269,-3.4941,-3.373,-3.2637,0.0,-3.0918,-3.0781,0.0,0.0,0.0,-3.2166,-3.2855,-3.3834,-3.4318,-3.4295,-3.5211,-3.5667,-3.5667,-3.5993,-3.6006,0.0,0.0,-3.7663,0.0,0.0,-3.7368,0.0,0.0,-3.5373,0.0,0.0,-3.5469,-3.6523,-3.6797,-3.6914,-3.6973,-3.7266,-3.6758,-3.6035,-3.5898,-3.584,-3.5781,-3.5469,-3.6211,0.0,0.0,-3.586,0.0,-3.4826,0.0,0.0,0.0,0.0,0.0,0.0,-3.9245,-3.8492,-3.814,-3.7739,-3.7211,0.0,-3.6056,0.0,0.0,0.0,0.0,0.0,0.0,0.0,0.0,0.0,0.0,0.0,0.0,-3.912,-4.0978,-4.2108,-4.2961,-4.3514,-4.4066,-4.4518,-4.4895,-4.5648,-4.62,-4.6577,-4.9317,-5.1438,-5.2982,-5.5424,-5.7342,-5.883,-5.9727,-6.0086,-6.0206,-6.1583,-6.2091,-6.2181,-6.2839,-6.3079,-6.3079,-2.3281,-2.4398,-2.6023,-2.7755,-2.9211,0.0,0.0,0.0,-3.2654,0.0,-3.4659,-3.5703,-3.7812,-3.8066,-3.8418,-3.9238,-3.8535,0.0,-3.4492,-3.5078,0.0,0.0,-3.2305,-3.2324,-3.1074,0.0,0.0,0.0,-3.2463,-3.2953,-3.2931,-3.3953,-3.4409,-3.4433,-3.6356,0.0,-3.6363,-3.8115,-3.8517,-3.7942,-3.7517,-3.6858,-3.5823,-3.4668,0.0,-3.5898,-3.5019,-3.5781,-3.7207,-3.7266,-3.7832,-3.8516,-3.8555,-3.8008,-3.7246,-3.6855,-3.6738,-3.6562,-3.5742,-3.6133,-3.6562,-3.5703,0.0,0.0,0.0,0.0,-4.1328,0.0,0.0,0.0,0.0,0.0,-3.9697,-3.9622,-3.8693,-3.7613,-3.6584,-3.6408,0.0,0.0,0.0,0.0,0.0,0.0,0.0,0.0,0.0,0.0,0.0,0.0,0.0,-4.0375,-4.153,-4.2384,-4.2961,-4.3489,-4.379,-4.384,-4.492,-4.5472,-4.5691,-4.8316,-5.0309,-5.182,-5.4626,-5.6698,-5.8231,-5.9488,-5.9997,-6.0176,-6.1493,-6.2032,-6.2181,-6.2839,-6.3079,-6.3079,-2.4283,-2.5331,-2.6683,-2.7554,-2.8082,-2.8769,0.0,0.0,0.0,0.0,-3.6366,-3.8164,-3.9687,-4.0137,-4.043,-4.0644,-4.0176,0.0,0.0,0.0,0.0,-3.5254,-3.4883,-3.4258,-3.3281,-3.2868,0.0,-3.158,-3.2093,-3.2444,-3.2423,-3.4119,-3.4333,-3.3526,-3.6088,0.0,-3.5066,-3.7295,-3.774,-3.7012,-3.6518,-3.6108,0.0,0.0,-3.4408,-3.5898,-3.5019,-3.5215,-3.6035,-3.6973,-3.7441,-3.7734,-3.8379,-3.8203,-3.7734,-3.7637,-3.7598,-3.7559,-3.7324,-3.7676,-3.7871,-3.7031,-3.6838,-3.6734,0.0,0.0,0.0,0.0,0.0,0.0,0.0,0.0,0.0,-3.8642,-3.7864,-3.7437,-3.7563,0.0,0.0,0.0,0.0,0.0,0.0,0.0,0.0,0.0,0.0,0.0,0.0,0.0,0.0,-3.922,-4.0752,-4.2007,-4.2961,-4.3112,-4.3614,-4.4418,-4.4694,-4.5296,-4.6125,-4.838,-5.0166,-5.182,-5.4059,-5.6289,-5.8141,-5.8501,-5.8919,-5.9428,-6.0266,-6.1224,-6.2181,-6.2839,-6.3079,-6.3079,-2.4781,-2.5809,-2.7053,-2.7801,0.0,0.0,-3.0784,0.0,0.0,-3.4564,-3.6797,0.0,-3.957,-4.0566,-4.1172,-4.1172,-4.0957,0.0,0.0,0.0,0.0,-3.7539,-3.6855,-3.5918,-3.4668,-3.3437,0.0,-3.125,0.0,-3.1197,-3.1381,-3.279,-3.3071,-3.2569,-3.5355,-3.6036,0.0,-3.6743,-3.6884,-3.6033,-3.5245,0.0,0.0,-3.3411,-3.3672,-3.4863,-3.4746,-3.5234,-3.6055,-3.6777,-3.7266,-3.7656,-3.8144,-3.8262,-3.8203,-3.8203,-3.8203,-3.8203,-3.8203,-3.8379,-3.8457,-3.7969,-3.7676,-3.7285,-3.6426,-3.7895,-3.9424,0.0,0.0,0.0,0.0,0.0,0.0,-3.8542,-3.8115,-3.7939,0.0,0.0,0.0,0.0,0.0,0.0,0.0,0.0,0.0,0.0,0.0,0.0,0.0,0.0,0.0,-3.8442,-4.0576,-4.1982,-4.261,-4.3338,-4.408,-4.4745,-4.5371,-4.6254,-4.745,-4.916,-5.0788,-5.229,-5.3789,-5.5674,-5.7693,-5.7992,-5.853,-5.9189,-6.0146,-6.1343,-6.257,-6.2929,-6.3079,-6.3079,-2.5391,-2.6406,-2.75,-2.8242,0.0,0.0,0.0,-3.2655,0.0,-3.5,0.0,-3.8496,-3.8867,-4.0312,-4.125,0.0,0.0,-4.0762,-3.9609,-4.0215,-4.0098,-3.8965,-3.8496,-3.75,-3.584,-3.4062,0.0,0.0,0.0,-2.9922,-3.0273,-3.1236,-3.1558,-3.1558,-3.432,0.0,0.0,-3.6143,-3.5871,0.0,-3.4061,-3.401,-3.4134,-3.3248,-3.3223,-3.3691,-3.4492,-3.5488,-3.6445,-3.668,-3.7246,-3.7851,-3.7969,-3.8262,-3.8574,-3.8574,-3.8574,-3.8574,-3.8574,-3.8613,-3.8652,-3.8652,-3.8691,-3.8535,-3.7734,-3.8628,-3.9971,-4.124,-4.0533,0.0,0.0,0.0,0.0,-3.9016,0.0,0.0,0.0,0.0,0.0,0.0,0.0,0.0,0.0,0.0,0.0,0.0,0.0,0.0,0.0,0.0,0.0,0.0,-4.0526,0.0,-4.2359,0.0,-4.4873,-4.5283,-4.6482,-4.7729,-4.9055,-5.0323,-5.1642,-5.2992,-5.381,-5.536,-5.7154,-5.7842,-5.853,-5.9249,-6.0595,-6.1822,-6.2839,-6.3019,-6.3079,-6.3079,0.0,0.0,0.0,0.0,0.0,-3.2917,0.0,-3.5465,-3.6758,-3.7773,-3.9473,0.0,-4.0703,-4.1308,-4.1699,-4.1699,-4.1699,0.0,0.0,0.0,0.0,-4.0723,-4.0293,-3.9434,-3.8047,-3.5996,-3.4297,0.0,-3.1426,-3.0703,-3.0762,-3.1707,-3.1482,-3.0512,-3.3443,0.0,-3.417,-3.4645,0.0,-3.2818,-3.3833,-3.3796,-3.3124,-3.3681,-3.4101,-3.4551,-3.5078,-3.5176,-3.5273,-3.6699,-3.7285,-3.7539,-3.8242,-3.8516,-3.8574,-3.8574,-3.8574,-3.8574,-3.8574,-3.8828,-3.9082,-3.9082,-3.9375,-3.9531,-3.8984,-3.916,-3.9314,-3.9146,-4.0562,-4.1723,-4.1556,0.0,0.0,0.0,0.0,0.0,0.0,0.0,0.0,0.0,0.0,0.0,0.0,0.0,0.0,0.0,0.0,0.0,0.0,0.0,0.0,0.0,0.0,0.0,0.0,0.0,0.0,-4.7047,-4.7487,-4.8377,-4.9663,-5.1095,-5.2263,-5.3097,-5.4982,-5.6288,-5.7154,-5.7842,-5.853,-5.9249,-6.0595,-6.1253,-6.1583,-6.266,-6.3079,-6.3079,0.0,0.0,0.0,0.0,0.0,0.0,0.0,-3.7988,0.0,-3.8301,-3.916,-3.9824,-3.9824,-4.1016,-4.1797,-4.1797,-4.1992,-4.2129,-4.2129,-4.1738,-4.1504,-4.1504,-4.1094,0.0,-3.8926,-3.6816,-3.5078,-3.375,-3.1836,-3.0898,-3.0879,-3.1317,-3.1217,-3.0662,-3.249,-3.3225,0.0,0.0,0.0,-3.164,-3.2751,-3.3254,-3.3184,-3.3828,-3.4336,-3.4766,-3.5234,-3.5391,-3.5547,-3.6621,-3.7109,-3.7402,-3.8027,-3.8398,-3.8574,-3.8574,-3.8574,-3.8574,-3.8574,-3.873,-3.8926,-3.9141,-3.9375,-3.9473,-3.9258,-3.9199,-3.9651,-4.1167,-4.1476,-4.1615,-4.181,-4.1818,0.0,0.0,0.0,0.0,0.0,0.0,0.0,0.0,0.0,0.0,0.0,0.0,0.0,0.0,0.0,0.0,0.0,0.0,0.0,0.0,0.0,0.0,0.0,0.0,0.0,-4.8393,-4.8874,-4.9962,-5.1494,-5.2617,-5.348,-5.42,-5.5202,-5.6196,-5.7184,-5.8201,-5.9009,-5.9727,-6.0715,-6.1313,-6.1732,-6.272,-6.3079,-6.3079,0.0,-3.0488,0.0,0.0,-3.4922,0.0,0.0,-3.9844,-4.0293,-3.8926,-3.8965,-3.9199,-3.9375,-4.0918,-4.2012,-4.2187,-4.2422,-4.2598,-4.2695,-4.2226,-4.1894,-4.1797,-4.1484,-4.0742,-3.9512,-3.748,-3.5742,0.0,-3.2305,-3.1152,-3.0898,-3.0898,-3.0898,0.0,0.0,0.0,0.0,0.0,-3.1795,-3.1094,-3.1953,-3.2812,-3.3613,-3.4043,-3.4531,-3.5039,-3.5508,-3.5937,-3.6367,-3.6797,-3.7148,-3.75,-3.793,-3.8359,-3.8711,-3.8711,-3.8769,-3.8867,-3.8867,-3.8926,-3.9062,-3.9394,-3.9551,-3.957,-3.9394,-3.9414,-4.0292,-4.3001,-4.2617,-4.2169,-4.3488,-4.3777,0.0,0.0,0.0,0.0,0.0,0.0,0.0,0.0,0.0,0.0,0.0,0.0,0.0,0.0,0.0,0.0,0.0,0.0,0.0,0.0,0.0,-4.1723,-4.2933,0.0,-4.7823,0.0,-5.0266,-5.1513,-5.3204,-5.3892,-5.4581,-5.5209,-5.5329,-5.6137,-5.7423,-5.862,-5.9488,-6.0146,-6.0835,-6.1523,-6.2181,-6.2839,-6.3079,-6.3079,0.0,0.0,0.0,0.0,0.0,0.0,0.0,-4.0351,-4.1621,-4.1465,-4.1133,-4.1211,-4.1992,-4.2246,-4.2676,-4.3457,-4.3203,-4.3183,-4.3555,-4.2812,-4.2207,-4.1816,-4.1758,-4.1328,-4.041,-3.8652,-3.6934,0.0,0.0,-3.2031,0.0,-3.0898,-3.0898,0.0,0.0,0.0,0.0,-3.1269,-3.1525,-3.1543,-3.2383,-3.3242,-3.4062,-3.4473,-3.5156,-3.5957,-3.6387,-3.6816,-3.7246,-3.7676,-3.7832,-3.7949,-3.8379,-3.8809,-3.9141,-3.9141,-3.9434,-3.9766,-3.9766,-4.0039,-4.0351,-4.0391,-4.0703,-4.0781,-4.0,-4.0117,-4.0623,-4.1477,-4.369,-4.5728,-4.6539,-4.6305,-4.5321,0.0,0.0,0.0,0.0,0.0,0.0,0.0,0.0,0.0,0.0,0.0,0.0,0.0,0.0,0.0,0.0,0.0,0.0,-3.5529,0.0,-4.186,-4.3992,-4.6723,0.0,-5.0628,-5.1621,-5.2449,-5.3204,-5.3892,-5.4581,-5.5209,-5.5807,-5.6825,-5.8082,-5.88,-5.9488,-6.0146,-6.0835,-6.1523,-6.2181,-6.2839,-6.3079,-6.3079,0.0,0.0,0.0,0.0,0.0,0.0,0.0,-4.1074,-4.1894,-4.2148,-4.2031,-4.2051,-4.2383,-4.2656,-4.3066,-4.3652,-4.3808,-4.3945,-4.4101,-4.3535,-4.3008,-4.2578,-4.207,-4.1641,-4.1289,-3.957,-3.7988,0.0,0.0,0.0,0.0,-3.1504,0.0,0.0,0.0,-3.0527,-3.0644,-3.0996,-3.1582,-3.2344,-3.293,-3.3848,-3.4902,-3.5332,-3.5879,-3.6465,-3.6894,-3.7324,-3.7695,-3.7871,-3.793,-3.8008,-3.8437,-3.8867,-3.9199,-3.9199,-3.9531,-3.9902,-3.9902,-4.0019,-4.0215,-4.0469,-4.1522,-4.215,-4.0636,-4.2297,-4.397,-4.3382,-4.5932,-4.8219,-4.8134,-4.7657,-4.6778,0.0,0.0,0.0,0.0,0.0,0.0,0.0,0.0,0.0,0.0,0.0,0.0,0.0,0.0,0.0,0.0,0.0,0.0,-3.6031,0.0,-4.0841,-4.3224,-4.5751,-4.7971,-4.991,-5.1394,-5.2546,-5.3204,-5.3892,-5.4581,-5.5239,-5.6286,-5.7034,-5.7573,-5.865,-5.9249,-5.9608,-6.0685,-6.1283,-6.1642,-6.269,-6.3079,-6.3079,-3.5439,0.0,-3.7461,0.0,-3.9434,-3.9941,-4.1172,-4.1816,-4.2285,-4.2578,-4.2734,-4.2812,-4.2812,-4.3086,-4.3496,-4.4043,-4.4394,-4.459,-4.459,-4.416,-4.3652,-4.3105,-4.25,0.0,-4.1816,-4.0469,-3.9082,-3.7676,-3.6055,0.0,-3.2949,0.0,0.0,0.0,-3.1055,-3.1074,-3.1289,-3.166,-3.2266,-3.3027,-3.3574,-3.4512,-3.5605,-3.5898,-3.6445,-3.709,-3.7383,-3.7754,-3.8105,-3.8105,-3.8105,-3.8184,-3.8613,-3.9062,-3.9434,-3.9551,-3.9902,-4.0273,-4.0273,-4.0273,-4.0351,-4.0644,-4.1735,-4.2583,-4.1574,-4.3679,-4.5666,-4.5798,-4.7858,-4.9464,-4.9088,-4.8686,-4.8008,0.0,0.0,0.0,0.0,0.0,0.0,0.0,-3.7563,-3.691,-3.6433,0.0,0.0,0.0,0.0,0.0,0.0,0.0,0.0,0.0,0.0,0.0,0.0,-4.5508,-4.7644,-4.9776,-5.1654,-5.2725,-5.3204,-5.4102,-5.485,-5.5538,-5.6615,-5.7214,-5.7483,-5.862,-5.9219,-5.9518,-6.0655,-6.1224,-6.1553,-6.266,-6.3079,-6.3079,-3.5707,-3.7634,-3.959,-4.0918,-4.1484,-4.1758,-4.1797,-4.2519,-4.3066,-4.3066,-4.3437,-4.3691,-4.3691,-4.3691,-4.4043,-4.4941,-4.5019,-4.5019,-4.5019,-4.4629,-4.4004,0.0,0.0,-4.2656,-4.1816,-4.1367,-4.0293,-3.8555,0.0,-3.5547,-3.3379,0.0,-3.1738,-3.2168,-3.2578,-3.2539,-3.2246,-3.3496,-3.3789,-3.3496,-3.4336,-3.5215,-3.6016,-3.6016,-3.6797,-3.791,-3.791,-3.8203,-3.8574,-3.8574,-3.8574,-3.8633,-3.9062,-3.9512,-3.9961,-4.0391,-4.082,-4.1152,-4.1152,-4.1152,-4.1172,-4.1172,-4.1172,-4.1634,-4.3081,-4.376,-4.4974,-4.7726,-4.8949,-4.959,-4.959,-4.9565,-4.9038,-4.738,0.0,0.0,0.0,0.0,0.0,0.0,-3.8843,-3.8191,-3.6558,0.0,0.0,0.0,0.0,0.0,0.0,0.0,0.0,-3.6383,-3.8704,0.0,-4.4581,-4.6472,-4.8617,-5.1229,-5.2546,-5.3174,-5.3234,-5.4581,-5.5538,-5.6196,-5.6825,-5.7483,-5.8171,-5.883,-5.9488,-6.0146,-6.0835,-6.1493,-6.2181,-6.2839,-6.3079,-6.3079,-3.8766,-3.9874,-4.0684,-4.1094,-4.1523,-4.1797,-4.1797,-4.2519,-4.3086,-4.3086,-4.3711,-4.418,-4.418,-4.418,-4.4531,0.0,-4.5469,-4.5469,0.0,-4.5351,-4.4883,-4.4004,-4.3672,-4.3242,-4.2676,-4.1973,-4.1055,-3.9902,0.0,0.0,0.0,-3.4492,-3.3906,-3.3476,-3.3613,-3.3594,-3.3516,-3.4199,-3.4766,-3.5234,-3.582,-3.6387,-3.6914,-3.7207,-3.7578,-3.8008,-3.8594,-3.8711,-3.8613,-3.8906,-3.8809,-3.8711,-3.9434,-3.9766,-3.998,-4.0391,-4.084,-4.1172,-4.1172,-4.1172,-4.1172,-4.1172,-4.2196,-4.2882,-4.2169,-4.376,-4.6591,-5.0166,-5.0498,-5.0167,-5.0167,-4.954,-4.8736,-4.7807,0.0,0.0,0.0,0.0,0.0,0.0,-3.8517,-3.809,0.0,-3.7638,0.0,0.0,0.0,0.0,0.0,0.0,0.0,0.0,-3.8941,0.0,-4.3728,-4.5702,-4.7941,-5.0573,-5.2337,-5.3653,-5.4581,-5.5448,-5.5987,-5.6226,-5.7334,-5.7932,-5.8171,-5.883,-5.9488,-6.0146,-6.0835,-6.1523,-6.2181,-6.2839,-6.3079,-6.3079,-3.8024,-3.985,-4.123,-4.1387,-4.1758,-4.209,-4.2246,-4.3008,-4.3516,-4.334,-4.4082,-4.4629,-4.4629,-4.4785,0.0,-4.5625,-4.582,0.0,-4.5683,-4.5683,-4.5293,-4.4433,-4.4121,-4.3691,-4.3086,0.0,0.0,-4.0996,-3.9629,-3.8203,-3.6719,-3.5976,-3.543,-3.5059,-3.5059,-3.4961,-3.4844,-3.543,-3.5898,-3.6309,-3.6738,-3.7148,-3.7559,-3.7812,-3.8027,-3.8262,-3.8945,-3.9023,-3.8887,-3.9316,-3.9297,-3.9199,-3.9902,-4.0137,-4.0215,-4.0644,-4.0957,-4.1172,-4.1172,-4.1172,-4.1172,-4.1172,-4.2042,-4.2922,-4.235,-4.4909,-4.8027,-5.0498,-5.0638,-5.0419,-5.0419,-4.9515,-4.8586,-4.8008,0.0,-4.4242,-4.3137,0.0,0.0,0.0,0.0,0.0,0.0,-3.8341,0.0,0.0,0.0,0.0,0.0,0.0,0.0,-3.8617,-3.932,0.0,-4.442,-4.5715,-4.7828,-5.0993,-5.2961,-5.4521,-5.5598,-5.6226,-5.6645,-5.6944,-5.7752,-5.8261,-5.853,-5.8949,-5.9338,-5.9817,-6.0745,-6.1373,-6.1852,-6.275,-6.3079,-6.3079,-3.4847,-3.8286,0.0,0.0,-4.2207,0.0,-4.3066,-4.3867,-4.4277,-4.3848,-4.4531,-4.5078,-4.5078,-4.5449,-4.5723,-4.5723,0.0,0.0,0.0,-4.5723,-4.5332,-4.4473,-4.4433,0.0,-4.3144,-4.3086,-4.2656,-4.1797,-3.9726,-3.8496,-3.8086,-3.6855,-3.6465,-3.6797,-3.6797,-3.6543,-3.6172,-3.6992,-3.7109,-3.6797,-3.7246,-3.7656,-3.8008,-3.8047,-3.832,-3.873,-3.9141,-3.9277,-3.9316,-3.9785,-3.9922,-3.9961,-4.0391,-4.0527,-4.0605,-4.1035,-4.1172,-4.1172,-4.1172,-4.1172,-4.1172,-4.1172,-4.1172,-4.1753,-4.3663,-4.667,-4.892,-4.906,-4.9829,-5.0469,-5.0469,-4.9515,-4.851,-4.7883,-4.5949,-4.4116,-4.3011,0.0,0.0,0.0,0.0,0.0,0.0,-3.8944,-3.8718,0.0,0.0,0.0,0.0,0.0,-3.8642,-3.9672,-3.9876,-4.2032,-4.6283,-4.6495,-4.8467,-5.2366,-5.4311,-5.5598,-5.6196,-5.6855,-5.7513,-5.8112,-5.8171,-5.853,-5.9099,-5.9099,-5.9159,-5.9368,-6.0625,-6.1164,-6.1403,-6.263,-6.3079,-6.3079,0.0,0.0,-4.0167,-4.1926,-4.291,-4.3437,-4.3535,-4.4316,-4.4844,-4.4726,-4.5176,-4.5527,-4.5527,-4.5898,-4.6152,-4.6152,-4.625,-4.6269,-4.6152,-4.6152,-4.5781,-4.4922,-4.4883,-4.4473,-4.3574,-4.3242,-4.2656,-4.1797,-4.0625,-4.0,-3.9902,-3.9277,-3.8672,-3.8125,-3.8125,-3.7715,-3.7031,-3.7559,-3.7715,-3.7695,-3.8457,-3.8809,-3.8945,-3.9297,-3.9492,-3.9629,-4.0059,-4.0,-3.9805,-4.0234,-4.0156,-3.9961,-4.0391,-4.0527,-4.0605,-4.1035,-4.1172,-4.1172,-4.1172,-4.1172,-4.1172,-4.1172,-4.1172,-4.1753,-4.3663,-4.591,-4.7866,-4.9487,-5.0528,-5.1071,-5.1071,-4.9464,-4.7807,-4.6853,-4.4819,-4.2986,-4.1882,-4.0676,-3.9998,0.0,-3.9948,-3.9798,-4.0099,-3.9747,-3.9622,0.0,0.0,0.0,0.0,0.0,-3.9848,-3.9697,-4.1595,-4.3717,-4.6283,-4.8267,-5.0743,-5.3743,-5.5239,-5.6017,-5.6196,-5.7363,-5.7962,-5.8141,-5.865,-5.8949,-5.9099,-5.9099,-5.9697,-6.0655,-6.0984,-6.1732,-6.266,-6.2959,-6.3079,-6.3079,-3.5015,-3.7309,-3.9468,-4.0834,-4.2414,-4.3555,-4.3965,-4.459,-4.5019,-4.5019,-4.5566,-4.5879,-4.5703,-4.6055,-4.6308,-4.6308,-4.6308,-4.6308,-4.6308,-4.6308,-4.6016,-4.5351,-4.5137,-4.4707,-4.4043,-4.3594,-4.3047,-4.2383,-4.1523,-4.1113,-4.1094,-4.0469,-3.9922,-3.9453,-3.9258,-3.8926,-3.8496,-3.873,-3.8828,-3.8867,-3.9336,-3.9512,-3.9551,-3.9805,-3.9902,-3.9961,-4.0371,-4.0371,-4.0254,-4.0664,-4.0664,-4.0527,-4.0742,-4.082,-4.0859,-4.1113,-4.1172,-4.1172,-4.1172,-4.1172,-4.1172,-4.1172,-4.1172,-4.1463,-4.2483,-4.4977,-4.7321,-4.8361,-5.0205,-5.1574,-5.1322,-4.9439,-4.7556,-4.6476,-4.4217,-4.2308,-4.1455,-4.0601,-4.0174,-4.0475,-4.0475,-4.0576,-4.0852,-4.0626,-4.0475,-4.0526,0.0,0.0,-4.1389,-4.1043,-4.117,-4.1801,-4.3337,-4.5619,-4.8477,-5.1106,-5.3195,-5.467,-5.6286,-5.7064,-5.7094,-5.8112,-5.859,-5.859,-5.8949,-5.9099,-5.9099,-5.9099,-5.9548,-6.0266,-6.0864,-6.1553,-6.2241,-6.2839,-6.3079,-6.3079,-3.2357,-3.5808,-3.9027,-4.0032,-4.1909,-4.3633,-4.4375,-4.4902,-4.5215,-4.5215,-4.5859,-4.6172,-4.5801,-4.6094,-4.6308,-4.6308,-4.6308,-4.6308,-4.6308,-4.625,-4.6055,-4.5683,-4.5195,-4.4766,-4.4414,-4.3808,-4.334,-4.2969,-4.2129,-4.1699,-4.1699,-4.0957,-4.0586,-4.0508,-4.0156,-3.9961,-3.9902,-3.9902,-3.9902,-3.9902,-3.9961,-4.0,-4.0,-4.0059,-4.0098,-4.0137,-4.0488,-4.0625,-4.0684,-4.1055,-4.1172,-4.1172,-4.1172,-4.1172,-4.1172,-4.1172,-4.1172,-4.1172,-4.1172,-4.1172,-4.1172,-4.1172,-4.1172,-4.1327,-4.1618,-4.4398,-4.7029,-4.7321,-5.0002,-5.195,-5.1373,-4.9439,-4.7531,-4.6376,-4.3915,-4.1932,-4.1304,0.0,-4.0576,-4.0752,-4.1178,-4.153,-4.1706,-4.163,-4.143,-4.1053,-4.0927,0.0,0.0,-4.2047,-4.2772,-4.5074,-4.5475,-4.7553,-5.1628,-5.4048,-5.5299,-5.5508,-5.7274,-5.8171,-5.8291,-5.886,-5.9159,-5.9249,-5.9159,-5.9099,-5.9099,-5.9099,-5.9159,-5.9368,-6.0625,-6.1164,-6.1403,-6.263,-6.3079,-6.3079,-3.4933,-3.6418,-3.8389,-4.2378,-4.4051,-4.4766,-4.4902,-4.5586,-4.6113,-4.6113,-4.623,-4.6289,-4.6211,-4.6269,-4.6308,-4.6308,-4.6308,-4.6308,-4.6308,-4.5976,-4.5742,-4.5683,-4.4922,-4.4473,-4.4394,-4.3242,-4.2598,-4.2519,-4.168,-4.1269,-4.1269,-4.1133,-4.0879,-4.0527,-4.0449,-4.0234,-3.9902,-3.9902,-3.9902,-3.9922,-4.0273,-4.043,-4.0469,-4.084,-4.0976,-4.0976,-4.1055,-4.1074,-4.1074,-4.1152,-4.1172,-4.1172,-4.1172,-4.1172,-4.1172,-4.1172,-4.1172,-4.1172,-4.1172,-4.1172,-4.1172,-4.1172,-4.1172,-4.1618,-4.3228,-4.5425,-4.7467,-4.9224,-5.0864,-5.195,-5.1373,-4.9439,-4.7405,-4.5874,-4.3664,-4.1806,-4.0777,0.0,-4.0852,-4.1781,-4.1982,-4.2409,-4.3338,-4.2986,-4.2886,-4.3263,-4.2861,-4.2897,-4.3574,-4.3476,-4.496,-4.8291,-4.7878,-4.9879,-5.4518,-5.4988,-5.5718,-5.6825,-5.7693,-5.8411,-5.8949,-5.9069,-5.9398,-5.9907,-5.9338,-5.9099,-5.9099,-5.9099,-5.9428,-5.9997,-6.0805,-6.1463,-6.2032,-6.278,-6.3079,-6.3079,-3.3954,-3.5241,-3.7194,-4.1468,-4.3591,-4.4922,-4.5312,-4.5703,-4.6055,-4.6269,-4.6308,-4.6308,-4.6308,-4.6308,-4.6308,-4.6308,-4.6308,-4.6308,-4.6308,-4.6113,-4.6016,-4.6016,-4.5195,-4.4512,-4.4043,-4.3418,-4.3105,-4.3105,-4.2266,-4.1855,-4.1836,-4.1387,-4.1074,-4.0879,-4.0879,-4.0762,-4.0586,-4.0586,-4.0586,-4.0605,-4.0801,-4.0879,-4.0898,-4.1094,-4.1172,-4.1172,-4.1172,-4.1172,-4.1172,-4.1172,-4.1172,-4.1172,-4.1172,-4.1172,-4.1172,-4.1172,-4.1172,-4.1172,-4.1172,-4.1172,-4.1172,-4.1172,-4.2062,-4.2922,-4.3945,-4.6441,-4.8938,-4.9819,-5.1387,-5.2277,-5.1448,-4.969,-4.8033,-4.6979,-4.4192,0.0,0.0,-4.1781,-4.1806,-4.2911,-4.3564,-4.4267,-4.507,-4.492,-4.4744,-4.4719,-4.4468,-4.4611,-4.5304,-4.5258,-4.659,-4.9803,-5.1575,-5.373,-5.6196,-5.6585,-5.7244,-5.8171,-5.886,-5.9338,-5.9638,-5.9638,-5.9608,-5.9548,-5.9249,-5.9099,-5.9099,-5.9099,-5.9279,-5.9638,-6.0296,-6.0984,-6.1642,-6.2301,-6.278,-6.3079,-3.2892,-3.4104,-3.6161,-3.9893,-4.2534,-4.4128,-4.4684,-4.5396,-4.5937,-4.6269,-4.6308,-4.6308,-4.6308,-4.6308,-4.6308,-4.6308,-4.6308,-4.6308,-4.6308,-4.6308,-4.625,-4.6152,-4.5332,-4.4512,-4.373,-4.3613,-4.3555,-4.3555,-4.2793,-4.2422,-4.2402,-4.166,-4.1328,-4.1308,-4.1211,-4.1172,-4.1172,-4.1172,-4.1172,-4.1172,-4.1172,-4.1172,-4.1172,-4.1172,-4.1172,-4.1172,-4.1172,-4.1172,-4.1172,-4.1172,-4.1172,-4.1172,-4.1172,-4.1172,-4.1172,-4.1172,-4.1172,-4.1172,-4.1172,-4.1172,-4.1172,-4.1172,-4.235,-4.3663,-4.4527,-4.7175,-4.9534,-5.041,-5.1886,-5.2628,-5.1649,-5.0218,-4.8837,-4.7883,0.0,0.0,0.0,-4.2986,-4.2961,-4.4066,-4.5196,-4.6075,-4.6627,-4.6677,-4.6502,-4.6075,-4.605,-4.6298,-4.695,-4.6773,-4.7854,-5.0612,-5.4079,-5.6123,-5.6776,-5.763,-5.853,-5.9338,-5.9847,-6.0236,-6.0535,-6.0386,-6.0146,-5.9787,-5.9458,-5.9428,-5.9548,-5.9398,-5.9428,-5.9638,-6.0296,-6.0864,-6.1433,-6.2091,-6.266,-6.3079,-3.3907,-3.4393,-3.5506,-3.9148,-4.1209,-4.2184,-4.222,-4.4542,-4.6269,-4.6289,-4.6308,-4.6308,-4.6308,-4.6308,-4.6308,-4.6308,-4.6308,-4.6308,-4.6308,-4.6308,-4.6133,-4.5742,-4.4902,-4.4219,-4.3711,-4.332,-4.3125,-4.3125,-4.2656,-4.2422,-4.2422,-4.1973,-4.1758,-4.1738,-4.1348,-4.1172,-4.1172,-4.1172,-4.1172,-4.1172,-4.1172,-4.1172,-4.1172,-4.1172,-4.1172,-4.1172,-4.1172,-4.1172,-4.1172,-4.1172,-4.1172,-4.1172,-4.1172,-4.1172,-4.1172,-4.1172,-4.1172,-4.1172,-4.1172,-4.1172,-4.1172,-4.1172,-4.1327,-4.235,-4.6019,-4.7029,-4.8217,-5.1886,-5.2792,-5.2754,-5.2151,-5.1096,-4.9615,-4.7531,0.0,0.0,-4.3162,-4.3413,-4.4091,-4.5221,-4.6351,-4.7205,-4.7732,-4.7782,-4.7782,-4.7732,-4.7732,-4.7707,-4.778,-4.7732,-4.8851,-5.1054,-5.3584,-5.5204,-5.5868,-5.7409,-5.877,-6.0027,-6.0057,-6.0745,-6.1942,-6.1313,-6.1343,-6.1822,-6.0565,-6.0386,-6.0924,-6.0266,-6.0386,-6.1044,-6.1702,-6.1972,-6.2121,-6.275,-6.3049,-6.3079,-3.6378,-3.4757,-3.4308,-3.9311,-4.0948,-4.2227,-4.4423,-4.5647,-4.6308,-4.6308,-4.6308,-4.6308,-4.6308,-4.6308,-4.6308,-4.6308,-4.6308,-4.6308,-4.6308,-4.6308,-4.6113,-4.5703,-4.5371,-4.4863,-4.4141,-4.3984,-4.375,-4.3457,-4.3027,-4.2832,-4.2812,-4.2383,-4.2187,-4.2168,-4.1758,-4.1562,-4.1543,-4.1289,-4.1172,-4.1172,-4.1172,-4.1172,-4.1172,-4.1172,-4.1172,-4.1172,-4.1172,-4.1172,-4.1172,-4.1172,-4.1172,-4.1172,-4.1172,-4.1172,-4.1172,-4.1172,-4.1172,-4.1172,-4.1172,-4.1172,-4.1463,-4.2637,-4.3966,-4.5574,-4.8217,-4.9819,-5.1163,-5.2629,-5.2929,-5.2754,-5.2201,-5.1473,-5.067,-4.9841,0.0,-4.6276,-4.6527,-4.6175,-4.6276,-4.738,-4.8485,-4.9238,-4.9439,-4.9791,-4.9841,-4.949,-4.9464,-4.9314,-4.8962,-4.8962,-4.9292,-5.0129,-5.2738,-5.479,-5.639,-5.7358,-5.8844,-6.0745,-6.1134,-6.1613,-6.2091,-6.1852,-6.1642,-6.1463,-6.0954,-6.0864,-6.1104,-6.0835,-6.0864,-6.1134,-6.1373,-6.1732,-6.2121,-6.2391,-6.272,-6.3079,-3.5684,-3.497,-3.4877,-3.7296,-3.9864,-4.1905,-4.3727,-4.5373,-4.6308,-4.6308,-4.6308,-4.6308,-4.6308,-4.6426,-4.6504,-4.6504,-4.6621,-4.6641,-4.6504,-4.6367,-4.6113,-4.5703,-4.5547,-4.5195,-4.4609,-4.459,-4.4375,-4.3926,-4.3769,-4.3555,-4.3262,-4.2969,-4.2754,-4.2617,-4.2187,-4.1933,-4.1777,-4.1484,-4.1289,-4.1172,-4.1172,-4.1172,-4.1172,-4.1172,-4.1172,-4.1172,-4.1172,-4.1172,-4.1172,-4.1172,-4.1172,-4.1172,-4.1172,-4.1172,-4.1191,-4.1328,-4.1717,-4.2042,-4.2042,-4.2483,-4.3228,-4.3945,-4.5552,-4.7467,-4.9534,-5.0998,-5.2189,-5.2792,-5.2929,-5.2804,-5.2427,-5.2051,-5.1624,-5.1096,-4.9414,-4.8309,-4.8711,-4.8284,-4.8259,-4.9188,-5.0117,-5.0695,-5.0695,-5.1046,-5.1122,-5.072,-5.0695,-5.0519,-5.0142,-5.0117,-5.0117,-5.0117,-5.1974,-5.3814,-5.5771,-5.7251,-5.8899,-6.0664,-6.1625,-6.2211,-6.2391,-6.2391,-6.2151,-6.1732,-6.1523,-6.1553,-6.1702,-6.1493,-6.1553,-6.1732,-6.1732,-6.2002,-6.2391,-6.2391,-6.269,-6.3079,-3.0794,-3.4789,-3.7344,-3.2583,-3.6975,-4.0808,-3.9358,-4.3193,-4.6308,-4.6308,-4.6308,-4.6308,-4.6308,-4.668,-4.6933,-4.6933,-4.7324,-4.7402,-4.6973,-4.6543,-4.6113,-4.5703,-4.5273,-4.5039,-4.5039,-4.5039,-4.4824,-4.4394,-4.4824,-4.457,-4.3711,-4.3711,-4.3496,-4.3066,-4.2637,-4.2207,-4.1816,-4.1797,-4.1562,-4.1191,-4.1172,-4.1172,-4.1172,-4.1172,-4.1172,-4.1172,-4.1172,-4.1172,-4.1172,-4.1172,-4.1172,-4.1172,-4.1191,-4.1191,-4.1269,-4.168,-4.2826,-4.4096,-4.4096,-4.5574,-4.661,-4.4677,-4.5574,-4.7613,-4.9534,-4.9961,-5.0551,-5.2491,-5.2929,-5.2929,-5.2929,-5.2929,-5.2377,-5.0695,-5.0444,-5.0042,-4.8937,-4.9264,-4.9816,-5.0368,-5.0946,-5.1297,-5.1297,-5.1297,-5.1297,-5.1297,-5.1297,-5.1297,-5.1272,-5.1272,-5.1297,-5.1272,-5.1297,-5.2017,-5.3576,-5.6884,-5.8807,-5.9529,-6.1315,-6.245,-6.3079,-6.3079,-6.3079,-6.3049,-6.2391,-6.248,-6.3019,-6.2361,-6.248,-6.3079,-6.3079,-6.3079,-6.3079,-6.3079,-6.3079,-6.3079,-3.3735,-3.3954,-3.4046,-3.4951,-3.6591,-3.8794,-4.1169,-4.2818,-4.4277,-4.6114,-4.4826,-4.4277,-4.6114,-4.668,-4.6933,-4.6933,-4.7324,-4.7519,-4.7402,-4.6973,-4.668,-4.6562,-4.6152,-4.5781,-4.5488,-4.5488,-4.5273,-4.4844,-4.4961,-4.4883,-4.4629,-4.4629,-4.4414,-4.3984,-4.3516,-4.3086,-4.2656,-4.2051,-4.1894,-4.2031,-4.1738,-4.1621,-4.1621,-4.1621,-4.1426,-4.1172,-4.1172,-4.1172,-4.1211,-4.1523,-4.1621,-4.166,-4.1953,-4.2051,-4.207,-4.2207,-4.3271,-4.4621,-4.4978,-4.7365,-4.938,-4.843,-4.865,-4.9677,-5.1607,-5.205,-5.2189,-5.2792,-5.2929,-5.2929,-5.2929,-5.2929,-5.2628,-5.1749,-5.1599,-5.1348,-5.0645,-5.0996,-5.1423,-5.1574,-5.2101,-5.2277,-5.19,-5.2201,-5.2277,-5.19,-5.185,-5.1699,-5.1297,-5.1649,-5.1674,-5.1297,-5.313,-5.3602,-5.2603,-5.5943,-5.8249,-5.9558,-6.1789,-6.2899,-6.3079,-6.3079,-6.3079,-6.3079,-6.2869,-6.2899,-6.3049,-6.2869,-6.2899,-6.3079,-6.3079,-6.3079,-6.3079,-6.3079,-6.3079,-6.3079,-3.3657,-3.2793,-3.2219,-3.4219,-3.568,-3.7144,-3.9341,-4.0627,-4.1726,-4.3193,-4.2996,-4.3175,-4.4649,-4.6265,-4.7187,-4.7187,-4.7578,-4.7832,-4.7832,-4.7266,-4.6933,-4.6933,-4.6523,-4.6191,-4.5918,-4.5918,-4.5703,-4.5293,-4.5449,-4.5351,-4.5039,-4.5195,-4.5058,-4.4629,-4.4355,-4.3887,-4.3301,-4.2773,-4.25,-4.2402,-4.2148,-4.2051,-4.2051,-4.2051,-4.1894,-4.166,-4.166,-4.166,-4.1699,-4.1953,-4.2051,-4.2129,-4.2539,-4.2558,-4.2602,-4.354,-4.4951,-4.6463,-4.7661,-5.0095,-5.2184,-5.1868,-5.1771,-5.203,-5.2978,-5.3231,-5.3181,-5.298,-5.2929,-5.2929,-5.2929,-5.2929,-5.2829,-5.2477,-5.2427,-5.2302,-5.1975,-5.2226,-5.2427,-5.2427,-5.2729,-5.2804,-5.2452,-5.2729,-5.2779,-5.2452,-5.2427,-5.2277,-5.195,-5.2251,-5.2277,-5.195,-5.3587,-5.3766,-5.2427,-5.5827,-5.7951,-5.8937,-6.1733,-6.3079,-6.3079,-6.3079,-6.3079,-6.3079,-6.3079,-6.3079,-6.3079,-6.3079,-6.3079,-6.3079,-6.3079,-6.3079,-6.3079,-6.3079,-6.3079,-6.3079,-3.1664,-3.1664,-3.1664,-3.1664,-3.4046,-3.5866,-3.5323,-3.716,-3.8811,-3.9341,-4.0988,-4.2443,-4.2818,-4.5725,-4.7539,-4.7578,-4.8008,-4.8262,-4.8262,-4.75,-4.7051,-4.7051,-4.6601,-4.6367,-4.6367,-4.6328,-4.6113,-4.5723,-4.6113,-4.5898,-4.5156,-4.5547,-4.5508,-4.5078,-4.5039,-4.4551,-4.3769,-4.3691,-4.3223,-4.2539,-4.25,-4.248,-4.248,-4.248,-4.2461,-4.2422,-4.2422,-4.2422,-4.2441,-4.248,-4.25,-4.2617,-4.3008,-4.2871,-4.2919,-4.5319,-4.7264,-4.905,-5.0889,-5.301,-5.4637,-5.4687,-5.4712,-5.4536,-5.3858,-5.3708,-5.3557,-5.303,-5.2929,-5.2929,-5.2929,-5.2929,-5.2929,-5.2929,-5.2929,-5.2929,-5.2929,-5.2929,-5.2929,-5.2929,-5.2929,-5.2929,-5.2929,-5.2929,-5.2929,-5.2929,-5.2929,-5.2929,-5.2929,-5.2929,-5.2929,-5.2929,-5.3042,-5.3042,-5.2929,-5.6466,-5.8131,-5.8005,-6.1436,-6.3079,-6.3079,-6.3079,-6.3079,-6.3079,-6.3079,-6.3079,-6.3079,-6.3079,-6.3079,-6.3079,-6.3079,-6.3079,-6.3079,-6.3079,-6.3079,-6.3079,-3.161,-3.1664,-3.1664,-3.1664,-3.2219,-3.3323,-3.4966,-3.5695,-3.7528,-4.1349,-4.0627,-4.1169,-4.5021,-4.6385,-4.7207,-4.7558,-4.8281,-4.8711,-4.8711,-4.8223,-4.793,-4.793,-4.7207,-4.6797,-4.6797,-4.6465,-4.625,-4.6172,-4.625,-4.6211,-4.6035,-4.6133,-4.5937,-4.5527,-4.5176,-4.4726,-4.4199,-4.3516,-4.3301,-4.3398,-4.3066,-4.293,-4.293,-4.293,-4.2715,-4.2422,-4.2422,-4.2422,-4.248,-4.2812,-4.3164,-4.3437,-4.3535,-4.3496,-4.3601,-4.4008,-4.6522,-4.9157,-5.0023,-5.278,-5.5315,-5.5742,-5.5867,-5.5491,-5.4034,-5.3708,-5.3557,-5.303,-5.2929,-5.2929,-5.2929,-5.2929,-5.2929,-5.2929,-5.2929,-5.2929,-5.2929,-5.2929,-5.2929,-5.2929,-5.2929,-5.2929,-5.2929,-5.2929,-5.2929,-5.2929,-5.2929,-5.2929,-5.2929,-5.2929,-5.2929,-5.2929,-5.4164,-5.4164,-5.2929,-5.7596,-5.9228,-5.8005,-6.1436,-6.3079,-6.3079,-6.3079,-6.3079,-6.3079,-6.3079,-6.3079,-6.3079,-6.3079,-6.3079,-6.3079,-6.3079,-6.3079,-6.3079,-6.3079,-6.3079,-6.3079,-3.1623,-3.1664,-3.1664,-3.1664,-3.1664,-3.2219,-3.3309,-3.3497,-3.4966,-3.8611,-3.9125,-4.0635,-4.4118,-4.6126,-4.7402,-4.7851,-4.8281,-4.8633,-4.8848,-4.8457,-4.8203,-4.8203,-4.7578,-4.7246,-4.7246,-4.6816,-4.6504,-4.6308,-4.6308,-4.6308,-4.6308,-4.6308,-4.6191,-4.5976,-4.5742,-4.541,-4.498,-4.4512,-4.4199,-4.4043,-4.4023,-4.375,-4.3398,-4.3613,-4.3437,-4.3027,-4.3027,-4.3027,-4.3125,-4.3789,-4.4023,-4.4043,-4.4043,-4.418,-4.4444,-4.5347,-4.7805,-5.0456,-5.1414,-5.4087,-5.6595,-5.6595,-5.6821,-5.657,-5.4888,-5.4511,-5.4285,-5.3457,-5.3306,-5.3231,-5.298,-5.2929,-5.2929,-5.2929,-5.2929,-5.2929,-5.2929,-5.2929,-5.2929,-5.2929,-5.2929,-5.2929,-5.2929,-5.2929,-5.2929,-5.2929,-5.2929,-5.2929,-5.2929,-5.2929,-5.2929,-5.2929,-5.381,-5.381,-5.2929,-5.7213,-5.8481,-5.6828,-6.1048,-6.3079,-6.3079,-6.3079,-6.3079,-6.3079,-6.3079,-6.3079,-6.3079,-6.3079,-6.3079,-6.3079,-6.3079,-6.3079,-6.3079,-6.3079,-6.3079,-6.3079,-3.1664,-3.1664,-3.1853,-3.2394,-3.2029,-3.2043,-3.2772,-3.2219,-3.2786,-3.5584,-3.7983,-4.0275,-4.2478,-4.5659,-4.7715,-4.8066,-4.8164,-4.8398,-4.8828,-4.8516,-4.832,-4.832,-4.791,-4.7695,-4.7695,-4.7266,-4.6836,-4.6406,-4.6328,-4.6308,-4.6308,-4.6308,-4.6308,-4.6289,-4.623,-4.5996,-4.5664,-4.5605,-4.5156,-4.4531,-4.4883,-4.459,-4.3965,-4.4277,-4.4199,-4.3926,-4.3848,-4.3867,-4.4043,-4.4785,-4.4785,-4.4512,-4.4512,-4.4746,-4.5281,-4.668,-4.9059,-5.1672,-5.2993,-5.5588,-5.7775,-5.7298,-5.7474,-5.7374,-5.5993,-5.5591,-5.5214,-5.4084,-5.3858,-5.3683,-5.3155,-5.313,-5.3155,-5.2955,-5.3005,-5.303,-5.2929,-5.2929,-5.2929,-5.2929,-5.2929,-5.2929,-5.2929,-5.2929,-5.2929,-5.2929,-5.2929,-5.2929,-5.2929,-5.2929,-5.2929,-5.2929,-5.2929,-5.2929,-5.2929,-5.5972,-5.6828,-5.5419,-6.0022,-6.2438,-6.2672,-6.2933,-6.3079,-6.3079,-6.3079,-6.3079,-6.3079,-6.3079,-6.3079,-6.3079,-6.3079,-6.3079,-6.3079,-6.3079,-6.3079,-6.3079,-3.1664,-3.1664,-3.2583,-3.5308,-3.3497,-3.3135,-3.7344,-3.442,-3.3422,-3.8296,-3.9041,-4.019,-4.3212,-4.6,-4.7598,-4.7656,-4.7988,-4.8398,-4.8828,-4.8808,-4.8769,-4.8769,-4.8359,-4.8125,-4.8125,-4.7715,-4.7285,-4.6836,-4.6484,-4.6308,-4.6308,-4.6308,-4.6308,-4.6289,-4.5918,-4.5723,-4.5644,-4.5273,-4.5039,-4.4941,-4.5,-4.4961,-4.4805,-4.4512,-4.459,-4.4805,-4.4433,-4.4531,-4.4863,-4.498,-4.498,-4.4941,-4.4941,-4.498,-4.5,-4.5281,-4.8189,-5.1443,-5.1672,-5.4777,-5.7876,-5.7801,-5.7474,-5.7097,-5.6872,-5.6445,-5.5792,-5.4687,-5.4436,-5.4285,-5.3708,-5.4009,-5.4034,-5.308,-5.3306,-5.3432,-5.298,-5.2929,-5.2929,-5.2929,-5.2929,-5.2929,-5.2929,-5.2929,-5.2929,-5.2929,-5.2929,-5.2929,-5.2929,-5.2929,-5.2929,-5.2929,-5.2929,-5.2929,-5.2929,-5.4809,-5.5683,-5.5419,-5.7596,-5.9503,-6.087,-6.2409,-6.3079,-6.3079,-6.3079,-6.3079,-6.3079,-6.3079,-6.3079,-6.3079,-6.3079,-6.3079,-6.3079,-6.3079,-6.3079,-6.3079,-3.3511,-3.4046,-3.5137,-3.7512,-3.7528,-3.716,-3.6975,-3.5152,-3.5025,-3.8657,-3.9257,-4.0875,-4.5119,-4.6684,-4.7676,-4.791,-4.8105,-4.8398,-4.8828,-4.8867,-4.8867,-4.8867,-4.8672,-4.8574,-4.8574,-4.8144,-4.7832,-4.7637,-4.6973,-4.666,-4.6641,-4.6406,-4.6308,-4.6289,-4.6113,-4.6035,-4.6016,-4.582,-4.5605,-4.541,-4.5644,-4.5449,-4.5039,-4.5098,-4.5078,-4.5039,-4.5098,-4.5078,-4.5098,-4.5586,-4.5586,-4.5391,-4.5391,-4.5547,-4.5683,-4.5469,-4.8651,-5.2204,-5.1935,-5.5154,-5.873,-5.8428,-5.8378,-5.8328,-5.8052,-5.7801,-5.7123,-5.539,-5.5039,-5.4838,-5.4285,-5.4386,-5.4285,-5.3482,-5.3557,-5.3507,-5.3005,-5.2929,-5.2929,-5.2929,-5.2929,-5.2929,-5.2929,-5.2929,-5.2929,-5.2929,-5.2929,-5.2929,-5.2929,-5.2929,-5.2929,-5.2929,-5.2929,-5.2929,-5.2929,-5.4541,-5.4916,-5.4055,-5.6726,-5.8383,-5.9104,-6.0899,-6.1644,-6.1644,-6.2672,-6.3079,-6.3079,-6.3079,-6.3079,-6.3079,-6.3079,-6.3079,-6.3079,-6.3079,-6.3079,-6.3079]}]]